[[{"header":{"parameterUnit":"m.s-1","parameterCategory":1,"la1":31.0,"la2":29.5877,"lo1":-88.7671,"lo2":-86.6584,"dy":0.0162,"dx":0.0185,"nx":115,"ny":88,"refTime":"2024-05-27T18:00:00:Z","depth":0,"parameterNumber":2,"parameterNumberName":"U-component_of_WINDS"},"data":[0.0,0.0,0.0,0.0,0.0,0.0,0.0,0.0,0.0,0.0,0.0,0.0,0.0,0.0,0.0,0.0,0.0,0.0,0.0,0.0,0.0,0.0,0.0,0.0,0.0,0.0,0.0,0.0,0.0,0.0,0.0,0.0,0.0,0.0,0.0,0.0,0.0,0.0,0.0,0.0,0.0,0.0,0.0,0.0,0.0,0.0,0.0,0.0,0.0,0.0,0.0,0.0,0.0,0.0,0.0,0.0,0.0,0.0,0.0,0.0,0.0,0.0,0.0,0.0,0.0,0.0,0.0,0.0,0.0,0.0,0.0,0.0,0.0,0.0,0.0,0.0,0.0,0.0,0.0,0.0,0.0,0.0,0.0,0.0,0.0,0.0,0.0,0.0,0.0,0.0,0.0,0.0,0.0,0.0,0.0,0.0,0.0,0.0,0.0,0.0,0.0,0.0,0.0,0.0,0.0,0.0,0.0,0.0,0.0,0.0,0.0,0.0,0.0,0.0,0.0,0.0,0.0,0.0,0.0,0.0,0.0,0.0,0.0,0.0,0.0,0.0,0.0,0.0,0.0,0.0,0.0,0.0,0.0,0.0,0.0,0.0,0.0,0.0,0.0,0.0,0.0,0.0,0.0,0.0,0.0,0.0,0.0,0.0,0.0,0.0,0.0,0.0,0.0,0.0,0.0,0.0,0.0,0.0,0.0,0.0,0.0,0.0,0.0,0.0,0.0,0.0,0.0,0.0,0.0,0.0,0.0,0.0,0.0,0.0,0.0,0.0,0.0,0.0,0.0,0.0,0.0,0.0,0.0,0.0,0.0,0.0,0.0,0.0,0.0,0.0,0.0,0.0,0.0,0.0,0.0,0.0,0.0,0.0,0.0,0.0,0.0,0.0,0.0,0.0,0.0,0.0,0.0,0.0,0.0,0.0,0.0,0.0,0.0,0.0,0.0,0.0,0.0,0.0,0.0,0.0,0.0,0.0,0.0,0.0,0.0,0.0,0.0,0.0,0.0,0.0,0.0,0.0,0.0,0.0,0.0,0.0,0.0,0.0,0.0,0.0,0.0,0.0,0.0,0.0,0.0,0.0,0.0,0.0,0.0,0.0,0.0,0.0,0.0,0.0,0.0,0.0,0.0,0.0,0.0,0.0,0.0,0.0,0.0,0.0,0.0,0.0,0.0,0.0,0.0,0.0,0.0,0.0,0.0,0.0,0.0,0.0,0.0,0.0,0.0,0.0,0.0,0.0,0.0,0.0,0.0,0.0,0.0,0.0,0.0,0.0,0.0,0.0,0.0,0.0,0.0,0.0,0.0,0.0,0.0,0.0,0.0,0.0,0.0,0.0,0.0,0.0,0.0,0.0,0.0,0.0,0.0,0.0,0.0,0.0,0.0,0.0,0.0,0.0,0.0,0.0,0.0,0.0,0.0,0.0,0.0,0.0,0.0,0.0,0.0,0.0,0.0,0.0,0.0,0.0,0.0,0.0,0.0,0.0,0.0,0.0,0.0,0.0,0.0,0.0,0.0,0.0,0.0,0.0,0.0,0.0,0.0,0.0,0.0,0.0,0.0,0.0,0.0,0.0,0.0,0.0,0.0,0.0,0.0,0.0,0.0,0.0,0.0,0.0,0.0,0.0,0.0,0.0,0.0,0.0,0.0,0.0,0.0,0.0,0.0,0.0,0.0,0.0,0.0,0.0,0.0,0.0,0.0,0.0,0.0,0.0,0.0,0.0,0.0,0.0,0.0,0.0,0.0,0.0,0.0,0.0,0.0,0.0,0.0,0.0,0.0,0.0,0.0,0.0,0.0,0.0,0.0,0.0,0.0,0.0,0.0,0.0,0.0,0.0,0.0,0.0,0.0,0.0,0.0,0.0,0.0,0.0,0.0,0.0,0.0,0.0,0.0,0.0,0.0,0.0,0.0,0.0,0.0,0.0,0.0,0.0,0.0,0.0,0.0,0.0,0.0,0.0,0.0,0.0,0.0,0.0,0.0,0.0,0.0,0.0,0.0,0.0,0.0,0.0,0.0,0.0,0.0,0.0,0.0,0.0,0.0,0.0,0.0,0.0,0.0,0.0,0.0,0.0,0.0,0.0,0.0,0.0,0.0,0.0,0.0,0.0,0.0,0.0,0.0,0.0,0.0,0.0,0.0,0.0,0.0,0.0,0.0,0.0,0.0,0.0,0.0,0.0,0.0,0.0,0.0,0.0,0.0,0.0,0.0,0.0,0.0,0.0,0.0,0.0,0.0,0.0,0.0,0.0,0.0,0.0,0.0,0.0,0.0,0.0,0.0,0.0,0.0,0.0,0.0,0.0,0.0,0.0,0.0,0.0,0.0,0.0,0.0,0.0,0.0,0.0,0.0,0.0,0.0,0.0,0.0,0.0,0.0,0.0,0.0,0.0,0.0,0.0,0.0,0.0,0.0,0.0,0.0,0.0,0.0,0.0,0.0,0.0,0.0,0.0,0.0,0.0,0.0,0.0,0.0,0.0,0.0,0.0,0.0,0.0,0.0,0.0,0.0,0.0,0.0,0.0,0.0,0.0,0.0,0.0,0.0,0.0,0.0,0.0,0.0,0.0,0.0,0.0,0.0,0.0,0.0,0.0,0.0,0.0,0.0,0.0,0.0,0.0,0.0,0.0,0.0,0.0,0.0,0.0,0.0,0.0,0.0,0.0,0.0,0.0,0.0,0.0,0.0,0.0,0.0,0.0,0.0,0.0,0.0,0.0,0.0,0.0,0.0,0.0,0.0,0.0,0.0,0.0,0.0,0.0,0.0,0.0,0.0,0.0,0.0,0.0,0.0,0.0,0.0,0.0,0.0,0.0,0.0,0.0,0.0,0.0,0.0,0.0,0.0,0.0,0.0,0.0,0.0,0.0,0.0,0.0,0.0,0.0,0.0,0.0,0.0,0.0,0.0,0.0,0.0,0.0,0.0,0.0,0.0,0.0,0.0,0.0,0.0,0.0,0.0,0.0,0.0,0.0,0.0,0.0,0.0,0.0,0.0,0.0,0.0,0.0,0.0,0.0,0.0,0.0,0.0,0.0,0.0,0.0,0.0,0.0,0.0,0.0,0.0,0.0,0.0,0.0,0.0,0.0,0.0,0.0,0.0,0.0,0.0,0.0,0.0,0.0,0.0,0.0,0.0,0.0,0.0,0.0,0.0,0.0,0.0,0.0,0.0,0.0,0.0,0.0,0.0,0.0,0.0,0.0,0.0,0.0,0.0,0.0,0.0,0.0,0.0,0.0,0.0,0.0,0.0,0.0,0.0,0.0,0.0,0.0,0.0,0.0,0.0,0.0,0.0,0.0,0.0,0.0,0.0,0.0,0.0,0.0,0.0,0.0,0.0,0.0,0.0,0.0,0.0,0.0,0.0,0.0,0.0,0.0,0.0,0.0,0.0,0.0,0.0,0.0,0.0,0.0,0.0,0.0,0.0,0.0,0.0,0.0,0.0,0.0,0.0,0.0,0.0,0.0,0.0,0.0,0.0,0.0,0.0,0.0,0.0,0.0,0.0,0.0,0.0,0.0,0.0,0.0,0.0,0.0,0.0,0.0,0.0,0.0,0.0,0.0,0.0,0.0,0.0,0.0,0.0,0.0,0.0,0.0,0.0,0.0,0.0,0.0,0.0,0.0,0.0,0.0,0.0,0.0,0.0,0.0,0.0,0.0,0.0,0.0,0.0,0.0,0.0,0.0,0.0,0.0,0.0,0.0,0.0,0.0,0.0,0.0,0.0,0.0,0.0,0.0,0.0,0.0,0.0,0.0,0.0,0.0,0.0,0.0,0.0,0.0,0.0,0.0,0.0,0.0,0.0,0.0,0.0,0.0,0.0,0.0,0.0,0.0,0.0,0.0,0.0,0.0,0.0,0.0,0.0,0.0,0.0,0.0,0.0,0.0,0.0,0.0,0.0,0.0,0.0,0.0,0.0,0.0,0.0,0.0,0.0,0.0,0.0,0.0,0.0,0.0,0.0,0.0,0.0,0.0,0.0,0.0,0.0,0.0,0.0,0.0,0.0,0.0,0.0,0.0,0.0,0.0,0.0,0.0,0.0,0.0,0.0,0.0,0.0,0.0,0.0,0.0,0.0,0.0,0.0,0.0,0.0,0.0,0.0,0.0,0.0,0.0,0.0,0.0,0.0,0.0,0.0,0.0,0.0,0.0,0.0,0.0,0.0,0.0,0.0,0.0,0.0,0.0,0.0,0.0,0.0,0.0,0.0,0.0,0.0,0.0,0.0,0.0,0.0,0.0,0.0,0.0,-1.0312,0.0,0.0,0.0,0.0,0.0,0.0,0.0,0.0,0.0,0.0,0.0,0.0,0.0,0.0,0.0,0.0,0.0,0.0,0.0,0.0,0.0,0.0,0.0,0.0,0.0,0.0,0.0,0.0,0.0,0.0,0.0,0.0,0.0,0.0,0.0,0.0,0.0,0.0,0.0,0.0,0.0,0.0,0.0,0.0,0.0,0.0,0.0,0.0,0.0,0.0,0.0,0.0,0.0,0.0,0.0,0.0,0.0,0.0,0.0,0.0,0.0,0.0,0.0,0.0,0.0,0.0,0.0,0.0,0.0,0.0,0.0,0.0,0.0,0.0,0.0,0.0,0.0,0.0,0.0,0.0,0.0,0.0,0.0,0.0,0.0,0.0,0.0,0.0,0.0,0.0,0.0,0.0,0.0,0.0,0.0,0.0,0.0,0.0,0.0,0.0,0.0,0.0,0.0,0.0,0.0,0.0,0.0,0.0,0.0,0.0,-1.046,-1.0412,-1.035,-1.0312,-1.0325,0.0,0.0,0.0,0.0,0.0,0.0,0.0,0.0,0.0,0.0,0.0,0.0,0.0,0.0,0.0,0.0,0.0,0.0,0.0,0.0,0.0,0.0,0.0,0.0,0.0,0.0,0.0,0.0,0.0,0.0,0.0,0.0,0.0,0.0,0.0,0.0,0.0,0.0,0.0,0.0,0.0,0.0,0.0,0.0,0.0,0.0,0.0,0.0,0.0,0.0,0.0,0.0,0.0,0.0,0.0,0.0,0.0,0.0,0.0,0.0,0.0,0.0,0.0,0.0,0.0,0.0,0.0,0.0,0.0,0.0,0.0,0.0,0.0,0.0,0.0,0.0,0.0,0.0,0.0,0.0,0.0,0.0,0.0,0.0,0.0,0.0,0.0,0.0,0.0,0.0,0.0,0.0,0.0,0.0,0.0,0.0,0.0,0.0,0.0,0.0,0.0,0.0,0.0,0.0,0.0,0.0,0.0,0.0,0.0,0.0,0.0,0.0,-1.0807,-1.0729,-1.0717,0.0,0.0,0.0,0.0,0.0,0.0,0.0,0.0,0.0,0.0,0.0,0.0,0.0,0.0,0.0,0.0,0.0,0.0,0.0,0.0,0.0,0.0,0.0,0.0,0.0,0.0,0.0,0.0,0.0,0.0,0.0,0.0,0.0,0.0,0.0,0.0,0.0,0.0,0.0,0.0,0.0,0.0,0.0,0.0,0.0,0.0,0.0,0.0,0.0,0.0,0.0,0.0,0.0,0.0,0.0,0.0,0.0,0.0,0.0,0.0,0.0,0.0,0.0,0.0,0.0,0.0,0.0,0.0,0.0,0.0,0.0,0.0,0.0,0.0,0.0,0.0,0.0,0.0,0.0,0.0,0.0,0.0,0.0,0.0,0.0,0.0,0.0,0.0,0.0,0.0,0.0,0.0,0.0,0.0,0.0,0.0,0.0,0.0,0.0,0.0,0.0,0.0,0.0,0.0,0.0,0.0,0.0,0.0,0.0,0.0,-1.117,-1.2193,-1.2094,0.0,-1.189,0.0,0.0,0.0,0.0,0.0,0.0,0.0,0.0,0.0,0.0,0.0,0.0,0.0,0.0,0.0,0.0,0.0,0.0,0.0,0.0,0.0,0.0,0.0,0.0,0.0,0.0,0.0,0.0,0.0,0.0,0.0,0.0,0.0,0.0,0.0,0.0,0.0,0.0,0.0,0.0,0.0,0.0,0.0,0.0,0.0,0.0,0.0,0.0,0.0,0.0,0.0,0.0,0.0,0.0,0.0,0.0,0.0,0.0,0.0,0.0,0.0,0.0,0.0,0.0,0.0,0.0,0.0,0.0,0.0,0.0,0.0,0.0,0.0,0.0,0.0,0.0,0.0,0.0,0.0,0.0,0.0,0.0,0.0,0.0,0.0,0.0,0.0,0.0,0.0,0.0,0.0,0.0,0.0,0.0,0.0,0.0,0.0,0.0,0.0,0.0,0.0,0.0,0.0,0.0,0.0,0.0,0.0,0.0,0.0,0.0,-1.2169,-1.2622,-1.2523,-1.241,0.0,0.0,0.0,0.0,0.0,0.0,0.0,0.0,0.0,0.0,0.0,0.0,0.0,0.0,0.0,0.0,0.0,0.0,0.0,0.0,0.0,0.0,0.0,0.0,0.0,0.0,0.0,0.0,0.0,0.0,0.0,0.0,0.0,0.0,0.0,0.0,0.0,0.0,0.0,0.0,0.0,0.0,0.0,0.0,0.0,0.0,0.0,0.0,0.0,0.0,0.0,0.0,0.0,0.0,0.0,0.0,0.0,0.0,0.0,0.0,0.0,0.0,0.0,0.0,0.0,0.0,0.0,0.0,0.0,0.0,0.0,0.0,0.0,0.0,0.0,0.0,0.0,0.0,0.0,0.0,0.0,0.0,0.0,0.0,0.0,0.0,0.0,0.0,0.0,0.0,0.0,0.0,0.0,0.0,0.0,0.0,0.0,0.0,0.0,0.0,0.0,0.0,0.0,0.0,0.0,0.0,0.0,0.0,0.0,0.0,-1.2579,-1.2941,-1.3231,-1.3143,-1.2892,-1.2551,0.0,0.0,0.0,0.0,0.0,0.0,0.0,0.0,0.0,0.0,0.0,0.0,0.0,0.0,0.0,0.0,0.0,0.0,0.0,0.0,0.0,0.0,0.0,0.0,0.0,0.0,0.0,0.0,0.0,0.0,0.0,0.0,0.0,0.0,0.0,0.0,0.0,0.0,0.0,0.0,0.0,0.0,0.0,0.0,0.0,0.0,0.0,0.0,0.0,0.0,0.0,0.0,0.0,0.0,0.0,0.0,0.0,0.0,0.0,0.0,0.0,0.0,0.0,0.0,0.0,0.0,0.0,0.0,0.0,0.0,0.0,0.0,0.0,0.0,0.0,0.0,0.0,0.0,0.0,0.0,0.0,0.0,0.0,0.0,0.0,0.0,0.0,0.0,0.0,0.0,0.0,0.0,0.0,0.0,0.0,0.0,0.0,0.0,0.0,0.0,0.0,0.0,0.0,0.0,0.0,0.0,0.0,0.0,-1.44,-1.3401,-1.3314,-1.4401,-1.4299,-1.3647,0.0,0.0,0.0,0.0,0.0,0.0,0.0,0.0,0.0,0.0,0.0,0.0,0.0,0.0,0.0,0.0,0.0,0.0,0.0,0.0,0.0,0.0,0.0,0.0,0.0,0.0,0.0,0.0,0.0,0.0,0.0,0.0,0.0,0.0,0.0,0.0,0.0,0.0,0.0,0.0,0.0,0.0,0.0,0.0,0.0,0.0,0.0,0.0,0.0,0.0,0.0,0.0,0.0,0.0,0.0,0.0,0.0,0.0,0.0,0.0,0.0,0.0,0.0,0.0,0.0,0.0,0.0,0.0,0.0,0.0,0.0,0.0,0.0,0.0,0.0,0.0,0.0,0.0,0.0,0.0,0.0,0.0,0.0,0.0,0.0,0.0,0.0,0.0,0.0,0.0,0.0,0.0,0.0,0.0,0.0,0.0,0.0,0.0,0.0,0.0,0.0,0.0,0.0,0.0,0.0,0.0,0.0,0.0,0.0,-1.2392,-1.2758,-1.3892,-1.5761,-1.4333,-1.3607,0.0,0.0,0.0,0.0,0.0,0.0,0.0,0.0,0.0,0.0,0.0,0.0,0.0,0.0,0.0,0.0,0.0,0.0,0.0,0.0,0.0,0.0,0.0,0.0,0.0,0.0,0.0,0.0,0.0,0.0,0.0,0.0,0.0,0.0,0.0,0.0,0.0,0.0,0.0,0.0,0.0,0.0,0.0,0.0,0.0,0.0,0.0,0.0,0.0,0.0,0.0,0.0,0.0,0.0,0.0,0.0,0.0,0.0,0.0,0.0,0.0,0.0,0.0,0.0,0.0,0.0,0.0,0.0,0.0,0.0,0.0,0.0,0.0,0.0,0.0,0.0,0.0,0.0,0.0,0.0,0.0,0.0,0.0,0.0,0.0,0.0,0.0,0.0,0.0,0.0,0.0,0.0,0.0,0.0,0.0,0.0,0.0,0.0,0.0,0.0,0.0,0.0,0.0,0.0,0.0,0.0,0.0,0.0,0.0,-1.2293,0.0,-1.481,0.0,-1.4458,-1.3586,0.0,0.0,0.0,0.0,0.0,0.0,0.0,0.0,0.0,0.0,0.0,0.0,0.0,0.0,0.0,0.0,0.0,0.0,0.0,0.0,0.0,0.0,0.0,0.0,0.0,0.0,0.0,0.0,0.0,0.0,0.0,0.0,0.0,0.0,0.0,0.0,0.0,0.0,0.0,0.0,0.0,0.0,0.0,0.0,0.0,0.0,0.0,0.0,0.0,0.0,0.0,0.0,0.0,0.0,0.0,0.0,0.0,0.0,0.0,0.0,0.0,0.0,0.0,0.0,0.0,0.0,0.0,0.0,0.0,0.0,0.0,0.0,0.0,0.0,0.0,0.0,0.0,0.0,0.0,0.0,0.0,0.0,0.0,0.0,0.0,0.0,0.0,0.0,0.0,0.0,0.0,0.0,0.0,0.0,0.0,0.0,0.0,0.0,0.0,0.0,0.0,0.0,0.0,0.0,0.0,0.0,0.0,0.0,-1.2336,-1.4668,-1.5921,-1.6005,-1.4922,-1.4794,-1.3642,0.0,0.0,0.0,0.0,0.0,0.0,0.0,0.0,0.0,0.0,0.0,0.0,0.0,0.0,0.0,0.0,0.0,0.0,0.0,0.0,0.0,0.0,0.0,0.0,0.0,0.0,0.0,0.0,0.0,0.0,0.0,0.0,0.0,0.0,0.0,0.0,0.0,0.0,0.0,0.0,0.0,0.0,0.0,0.0,0.0,0.0,0.0,0.0,0.0,0.0,0.0,0.0,0.0,0.0,0.0,0.0,0.0,0.0,0.0,0.0,0.0,0.0,0.0,0.0,0.0,0.0,0.0,0.0,0.0,0.0,0.0,0.0,0.0,0.0,0.0,0.0,0.0,0.0,0.0,0.0,0.0,0.0,0.0,0.0,0.0,0.0,0.0,0.0,0.0,0.0,0.0,0.0,0.0,0.0,0.0,0.0,0.0,0.0,0.0,0.0,0.0,0.0,0.0,0.0,0.0,0.0,0.0,0.0,0.0,-1.4443,-1.5073,-1.5919,-1.6901,-1.5172,-1.4218,0.0,0.0,0.0,0.0,0.0,0.0,0.0,0.0,0.0,0.0,0.0,0.0,0.0,0.0,0.0,0.0,0.0,0.0,0.0,0.0,0.0,0.0,0.0,0.0,0.0,0.0,0.0,0.0,0.0,0.0,0.0,0.0,0.0,0.0,0.0,0.0,0.0,0.0,0.0,0.0,0.0,0.0,0.0,0.0,0.0,0.0,0.0,0.0,0.0,0.0,0.0,0.0,0.0,0.0,0.0,0.0,0.0,0.0,0.0,0.0,0.0,0.0,0.0,0.0,0.0,0.0,0.0,0.0,0.0,0.0,0.0,0.0,0.0,0.0,0.0,0.0,0.0,0.0,0.0,0.0,0.0,0.0,0.0,0.0,0.0,0.0,0.0,0.0,0.0,0.0,0.0,0.0,0.0,0.0,0.0,0.0,0.0,0.0,0.0,0.0,0.0,0.0,0.0,0.0,0.0,0.0,0.0,0.0,0.0,-1.7052,-1.6948,-1.7414,-1.8503,-1.6397,-1.5202,-1.5005,0.0,0.0,0.0,0.0,0.0,0.0,0.0,0.0,0.0,0.0,0.0,0.0,0.0,0.0,0.0,0.0,0.0,0.0,0.0,0.0,0.0,0.0,0.0,0.0,0.0,0.0,0.0,0.0,0.0,0.0,0.0,0.0,0.0,0.0,0.0,0.0,0.0,0.0,0.0,0.0,0.0,0.0,0.0,0.0,0.0,0.0,0.0,0.0,0.0,0.0,0.0,0.0,0.0,0.0,0.0,0.0,0.0,0.0,0.0,0.0,0.0,0.0,0.0,0.0,0.0,0.0,0.0,0.0,0.0,0.0,0.0,0.0,0.0,0.0,0.0,0.0,0.0,0.0,0.0,0.0,0.0,0.0,0.0,0.0,0.0,0.0,0.0,0.0,0.0,0.0,0.0,0.0,0.0,0.0,0.0,0.0,0.0,0.0,0.0,0.0,0.0,0.0,0.0,0.0,0.0,0.0,0.0,0.0,-2.1902,-2.1194,-2.047,-1.9726,-1.8475,-1.6635,0.0,0.0,0.0,0.0,0.0,0.0,0.0,0.0,0.0,0.0,0.0,0.0,0.0,0.0,0.0,0.0,0.0,0.0,0.0,0.0,0.0,0.0,0.0,0.0,0.0,0.0,0.0,0.0,0.0,0.0,0.0,0.0,0.0,0.0,0.0,0.0,0.0,0.0,0.0,0.0,0.0,0.0,0.0,0.0,0.0,0.0,0.0,0.0,0.0,0.0,0.0,0.0,0.0,0.0,0.0,0.0,0.0,0.0,0.0,0.0,0.0,0.0,0.0,0.0,0.0,0.0,0.0,0.0,0.0,0.0,0.0,0.0,0.0,0.0,0.0,0.0,0.0,0.0,0.0,0.0,0.0,0.0,0.0,0.0,0.0,0.0,0.0,0.0,0.0,0.0,0.0,0.0,0.0,0.0,0.0,0.0,0.0,0.0,0.0,0.0,0.0,0.0,0.0,0.0,0.0,0.0,0.0,0.0,0.0,-2.4529,-2.5428,-2.5012,-2.3207,-2.132,-1.917,0.0,0.0,0.0,0.0,0.0,0.0,0.0,0.0,0.0,0.0,0.0,0.0,0.0,0.0,0.0,0.0,0.0,0.0,0.0,0.0,0.0,0.0,0.0,0.0,0.0,0.0,0.0,0.0,0.0,0.0,0.0,0.0,0.0,0.0,0.0,0.0,0.0,0.0,0.0,0.0,0.0,0.0,0.0,0.0,0.0,0.0,0.0,0.0,0.0,0.0,0.0,0.0,0.0,0.0,0.0,0.0,0.0,0.0,0.0,0.0,0.0,0.0,0.0,0.0,0.0,0.0,0.0,0.0,0.0,0.0,0.0,0.0,0.0,0.0,0.0,0.0,0.0,0.0,0.0,0.0,0.0,0.0,0.0,0.0,0.0,0.0,0.0,0.0,0.0,0.0,0.0,0.0,0.0,0.0,0.0,0.0,0.0,0.0,0.0,0.0,0.0,0.0,0.0,0.0,0.0,0.0,0.0,0.0,-2.3759,-2.6454,-2.8605,-2.8985,-2.742,-2.4422,-2.1448,0.0,0.0,0.0,0.0,0.0,0.0,0.0,0.0,0.0,0.0,0.0,0.0,0.0,0.0,0.0,0.0,0.0,0.0,0.0,0.0,0.0,0.0,0.0,0.0,0.0,0.0,0.0,0.0,0.0,0.0,0.0,0.0,0.0,0.0,0.0,0.0,0.0,0.0,0.0,0.0,0.0,0.0,0.0,0.0,0.0,0.0,0.0,0.0,0.0,0.0,0.0,0.0,0.0,0.0,0.0,0.0,0.0,0.0,0.0,0.0,0.0,0.0,0.0,0.0,0.0,0.0,0.0,0.0,0.0,0.0,0.0,0.0,0.0,0.0,0.0,0.0,0.0,0.0,0.0,0.0,0.0,0.0,0.0,0.0,0.0,0.0,0.0,0.0,0.0,0.0,0.0,0.0,0.0,0.0,0.0,0.0,0.0,0.0,0.0,0.0,0.0,0.0,0.0,0.0,0.0,0.0,0.0,0.0,-2.5865,-2.7771,-3.0938,-3.2174,-3.1312,-2.7357,-2.3449,0.0,0.0,0.0,0.0,0.0,0.0,0.0,0.0,0.0,0.0,0.0,0.0,0.0,0.0,0.0,0.0,0.0,0.0,0.0,0.0,0.0,0.0,0.0,0.0,0.0,0.0,0.0,0.0,0.0,0.0,0.0,0.0,0.0,0.0,0.0,0.0,0.0,0.0,0.0,0.0,0.0,0.0,0.0,0.0,0.0,0.0,0.0,0.0,0.0,0.0,0.0,0.0,0.0,0.0,0.0,0.0,0.0,0.0,0.0,0.0,0.0,0.0,0.0,0.0,0.0,0.0,0.0,0.0,0.0,0.0,0.0,0.0,0.0,0.0,0.0,0.0,0.0,0.0,0.0,0.0,0.0,0.0,0.0,0.0,0.0,0.0,0.0,0.0,0.0,0.0,0.0,0.0,0.0,0.0,0.0,0.0,0.0,0.0,0.0,0.0,0.0,0.0,0.0,0.0,0.0,0.0,0.0,0.0,-2.6867,-2.9002,-3.2101,-3.3234,-3.2173,-2.844,-2.491,0.0,0.0,0.0,0.0,0.0,0.0,0.0,0.0,0.0,0.0,0.0,0.0,0.0,0.0,0.0,0.0,0.0,0.0,0.0,0.0,0.0,0.0,0.0,0.0,0.0,0.0,0.0,0.0,0.0,0.0,0.0,0.0,0.0,0.0,0.0,0.0,0.0,0.0,0.0,0.0,0.0,0.0,0.0,0.0,0.0,0.0,0.0,0.0,-1.3369,0.0,0.0,0.0,0.0,0.0,0.0,0.0,0.0,0.0,0.0,0.0,0.0,0.0,0.0,0.0,0.0,0.0,0.0,0.0,0.0,0.0,0.0,0.0,0.0,0.0,0.0,0.0,0.0,0.0,0.0,0.0,0.0,0.0,0.0,0.0,0.0,0.0,0.0,0.0,0.0,0.0,0.0,0.0,0.0,0.0,0.0,0.0,0.0,0.0,0.0,0.0,0.0,0.0,0.0,0.0,0.0,0.0,0.0,0.0,-2.8742,-3.1231,-3.3296,-3.4148,-3.3694,-2.9846,-2.6231,0.0,0.0,0.0,0.0,0.0,0.0,0.0,0.0,0.0,0.0,0.0,0.0,0.0,0.0,0.0,0.0,0.0,0.0,0.0,0.0,0.0,0.0,0.0,0.0,0.0,0.0,0.0,0.0,0.0,0.0,0.0,0.0,0.0,0.0,0.0,0.0,0.0,0.0,0.0,0.0,0.0,0.0,0.0,0.0,0.0,0.0,0.0,0.0,0.0,0.0,0.0,0.0,0.0,0.0,0.0,0.0,0.0,0.0,0.0,0.0,0.0,0.0,0.0,0.0,0.0,0.0,0.0,0.0,0.0,0.0,0.0,0.0,0.0,0.0,0.0,0.0,0.0,0.0,0.0,0.0,0.0,0.0,0.0,0.0,0.0,0.0,0.0,0.0,0.0,0.0,0.0,0.0,0.0,0.0,0.0,0.0,0.0,0.0,0.0,0.0,0.0,0.0,0.0,0.0,0.0,0.0,0.0,-2.6764,-3.0394,-3.3412,-3.4314,-3.4843,-3.5029,-3.0939,-2.7355,-2.4472,0.0,0.0,0.0,0.0,0.0,0.0,0.0,0.0,0.0,0.0,0.0,0.0,0.0,0.0,0.0,0.0,0.0,0.0,0.0,0.0,0.0,0.0,0.0,0.0,0.0,0.0,0.0,0.0,0.0,0.0,0.0,0.0,0.0,0.0,0.0,0.0,0.0,0.0,-1.1082,-1.3192,0.0,0.0,0.0,0.0,0.0,0.0,0.0,0.0,-1.4659,0.0,0.0,0.0,0.0,0.0,0.0,0.0,0.0,0.0,0.0,0.0,0.0,0.0,0.0,0.0,0.0,0.0,0.0,0.0,0.0,0.0,0.0,0.0,0.0,0.0,0.0,0.0,0.0,0.0,0.0,0.0,0.0,0.0,0.0,0.0,0.0,0.0,0.0,0.0,0.0,0.0,0.0,0.0,0.0,0.0,0.0,0.0,0.0,0.0,0.0,0.0,0.0,0.0,0.0,0.0,0.0,-2.643,-2.7411,-2.9925,-3.4118,-3.4904,-3.4743,-3.363,-3.0432,-2.772,-2.5556,0.0,0.0,0.0,0.0,0.0,0.0,0.0,0.0,0.0,0.0,0.0,0.0,0.0,0.0,0.0,0.0,0.0,0.0,0.0,0.0,0.0,0.0,0.0,0.0,0.0,0.0,0.0,0.0,0.0,0.0,0.0,0.0,0.0,0.0,0.0,0.0,0.0,0.0,0.0,-1.4915,-1.5724,0.0,0.0,0.0,0.0,0.0,0.0,0.0,0.0,-1.5627,0.0,0.0,0.0,0.0,0.0,0.0,0.0,0.0,0.0,0.0,0.0,0.0,0.0,0.0,0.0,0.0,0.0,0.0,0.0,0.0,0.0,0.0,0.0,0.0,0.0,0.0,0.0,0.0,0.0,0.0,0.0,0.0,0.0,0.0,0.0,0.0,0.0,0.0,0.0,0.0,0.0,0.0,0.0,0.0,0.0,0.0,0.0,0.0,0.0,0.0,0.0,0.0,0.0,0.0,0.0,-2.7008,-2.958,-3.2583,-3.6055,-3.592,-3.5452,-3.4692,-3.0608,-2.764,0.0,0.0,0.0,0.0,0.0,0.0,0.0,0.0,0.0,0.0,0.0,0.0,0.0,0.0,0.0,0.0,0.0,0.0,0.0,0.0,0.0,0.0,0.0,0.0,0.0,0.0,0.0,0.0,0.0,0.0,0.0,0.0,0.0,0.0,0.0,0.0,0.0,0.0,0.0,0.0,-1.6265,-1.734,-1.7691,0.0,0.0,0.0,0.0,0.0,0.0,-1.7322,-1.6857,0.0,0.0,0.0,0.0,0.0,0.0,0.0,0.0,0.0,0.0,0.0,0.0,0.0,0.0,0.0,0.0,0.0,0.0,0.0,0.0,0.0,0.0,0.0,0.0,0.0,0.0,0.0,0.0,0.0,0.0,0.0,0.0,0.0,0.0,0.0,0.0,0.0,0.0,0.0,0.0,0.0,0.0,0.0,0.0,0.0,0.0,0.0,0.0,0.0,0.0,0.0,0.0,0.0,0.0,0.0,-2.7339,-3.1366,-3.4835,-3.7549,-3.6676,-3.6026,-3.5776,-3.0791,-2.7442,0.0,0.0,0.0,0.0,0.0,0.0,0.0,0.0,0.0,0.0,0.0,0.0,0.0,0.0,0.0,0.0,0.0,0.0,0.0,0.0,0.0,0.0,0.0,0.0,0.0,0.0,0.0,0.0,0.0,0.0,0.0,0.0,0.0,0.0,0.0,0.0,0.0,0.0,0.0,0.0,0.0,-1.8816,-1.9169,-1.8964,0.0,0.0,0.0,0.0,-1.8709,-1.8916,0.0,0.0,0.0,0.0,0.0,0.0,0.0,0.0,0.0,0.0,0.0,0.0,0.0,0.0,0.0,0.0,0.0,0.0,0.0,0.0,0.0,0.0,0.0,0.0,0.0,0.0,0.0,0.0,0.0,0.0,0.0,0.0,0.0,0.0,0.0,0.0,0.0,0.0,0.0,0.0,0.0,0.0,0.0,0.0,0.0,0.0,0.0,0.0,0.0,0.0,0.0,0.0,0.0,0.0,0.0,0.0,-2.8491,-3.1001,-3.3816,-3.6955,-3.6477,-3.5757,-3.5014,-3.058,-2.7312,0.0,0.0,0.0,0.0,0.0,0.0,0.0,0.0,0.0,0.0,0.0,0.0,0.0,0.0,0.0,0.0,0.0,0.0,0.0,0.0,0.0,0.0,0.0,0.0,0.0,0.0,0.0,0.0,0.0,0.0,0.0,0.0,0.0,0.0,0.0,0.0,0.0,0.0,0.0,0.0,0.0,-1.9291,-2.0178,-1.9448,-1.9157,0.0,0.0,-2.057,-2.1195,-2.2638,0.0,0.0,0.0,0.0,0.0,0.0,0.0,0.0,0.0,0.0,0.0,0.0,0.0,0.0,0.0,0.0,0.0,0.0,0.0,0.0,0.0,0.0,0.0,0.0,0.0,0.0,0.0,0.0,0.0,0.0,0.0,0.0,0.0,0.0,0.0,0.0,0.0,0.0,0.0,0.0,0.0,0.0,0.0,0.0,0.0,0.0,0.0,0.0,0.0,0.0,0.0,0.0,0.0,0.0,0.0,-2.4036,-2.8818,-3.2562,-3.5545,-3.77,-3.7161,-3.6661,-3.6322,-3.0821,-2.735,0.0,0.0,0.0,0.0,0.0,0.0,0.0,0.0,0.0,0.0,0.0,0.0,0.0,0.0,0.0,0.0,0.0,0.0,0.0,0.0,0.0,0.0,0.0,0.0,0.0,0.0,0.0,0.0,0.0,0.0,0.0,0.0,0.0,0.0,0.0,0.0,0.0,0.0,0.0,0.0,0.0,0.0,-2.1313,-2.1655,0.0,0.0,0.0,-2.297,-2.2962,0.0,0.0,0.0,0.0,0.0,0.0,0.0,0.0,0.0,0.0,0.0,0.0,0.0,0.0,0.0,0.0,0.0,0.0,0.0,0.0,0.0,0.0,0.0,0.0,0.0,0.0,0.0,0.0,0.0,0.0,0.0,0.0,0.0,0.0,0.0,0.0,0.0,0.0,0.0,0.0,0.0,0.0,0.0,0.0,0.0,0.0,0.0,0.0,0.0,0.0,0.0,0.0,0.0,0.0,0.0,0.0,0.0,-2.9265,-3.39,-3.6983,-3.8355,-3.7756,-3.7401,-3.7277,-3.1367,0.0,0.0,0.0,0.0,0.0,0.0,0.0,0.0,0.0,0.0,0.0,0.0,0.0,0.0,0.0,0.0,0.0,0.0,0.0,0.0,0.0,0.0,0.0,0.0,0.0,0.0,0.0,-0.7938,0.0,0.0,0.0,0.0,0.0,0.0,0.0,0.0,0.0,0.0,0.0,0.0,0.0,0.0,-2.3011,-2.2388,-2.3574,-2.4347,0.0,0.0,-2.534,-2.5146,-2.6469,-2.6568,0.0,0.0,0.0,0.0,0.0,0.0,0.0,0.0,0.0,0.0,0.0,0.0,0.0,0.0,0.0,0.0,0.0,0.0,0.0,0.0,0.0,0.0,0.0,0.0,0.0,0.0,0.0,0.0,0.0,0.0,0.0,0.0,0.0,0.0,0.0,0.0,0.0,0.0,0.0,0.0,0.0,0.0,0.0,0.0,0.0,0.0,0.0,0.0,0.0,0.0,0.0,0.0,0.0,0.0,-2.5908,-3.0159,-3.4234,-3.7037,-3.8495,-3.7799,-3.7401,-3.7308,-3.2312,-2.8404,0.0,0.0,0.0,0.0,0.0,0.0,0.0,0.0,0.0,0.0,0.0,0.0,0.0,0.0,0.0,0.0,0.0,0.0,0.0,0.0,0.0,0.0,0.0,0.0,0.0,0.0,0.0,0.0,0.0,0.0,0.0,0.0,0.0,0.0,0.0,0.0,0.0,0.0,0.0,0.0,0.0,-2.3326,-2.3368,-2.4396,-2.5581,0.0,-2.7182,-2.7593,-2.8349,-3.0804,-3.0876,-2.5625,0.0,0.0,0.0,0.0,0.0,0.0,0.0,0.0,0.0,0.0,0.0,0.0,0.0,0.0,0.0,0.0,0.0,0.0,0.0,0.0,0.0,0.0,0.0,0.0,0.0,0.0,0.0,0.0,0.0,0.0,0.0,0.0,0.0,0.0,0.0,0.0,0.0,0.0,0.0,0.0,0.0,0.0,0.0,0.0,0.0,0.0,0.0,0.0,0.0,0.0,0.0,0.0,0.0,-2.6031,-3.051,-3.4496,-3.7263,-3.8629,-3.8427,-3.8246,-3.8132,-3.3493,-2.9759,0.0,0.0,0.0,0.0,0.0,0.0,0.0,0.0,0.0,0.0,0.0,0.0,0.0,0.0,0.0,0.0,0.0,0.0,0.0,0.0,0.0,0.0,0.0,0.0,0.0,0.0,0.0,0.0,-1.1812,-1.2462,-1.259,0.0,0.0,0.0,0.0,0.0,0.0,0.0,0.0,0.0,0.0,-2.5923,-2.7571,-2.8163,0.0,0.0,-3.0053,-3.0304,-2.9477,-3.0665,-3.0325,-2.6237,-2.5092,0.0,0.0,0.0,0.0,0.0,0.0,0.0,0.0,0.0,0.0,0.0,0.0,0.0,0.0,0.0,0.0,0.0,0.0,0.0,0.0,0.0,0.0,0.0,0.0,0.0,0.0,0.0,0.0,0.0,0.0,0.0,0.0,0.0,0.0,0.0,0.0,0.0,0.0,0.0,0.0,0.0,0.0,0.0,0.0,0.0,0.0,0.0,0.0,0.0,0.0,0.0,0.0,-2.6659,-3.0754,-3.4904,-3.7603,-3.8843,-3.8832,-3.875,-3.8546,-3.4595,-3.1085,0.0,0.0,0.0,0.0,0.0,0.0,0.0,0.0,0.0,0.0,0.0,0.0,0.0,0.0,0.0,0.0,0.0,0.0,0.0,0.0,0.0,0.0,0.0,0.0,0.0,0.0,0.0,0.0,-1.3003,-1.3598,-1.3174,0.0,0.0,0.0,0.0,0.0,0.0,0.0,0.0,0.0,0.0,-2.8031,-2.9672,-3.0219,-3.0569,-3.0857,-3.1404,-3.1422,-3.0518,-3.0752,-3.0105,-2.7351,0.0,0.0,0.0,0.0,0.0,0.0,0.0,0.0,0.0,0.0,0.0,0.0,0.0,0.0,0.0,0.0,0.0,0.0,0.0,0.0,0.0,0.0,0.0,0.0,0.0,0.0,0.0,-1.5288,0.0,0.0,-1.4192,0.0,0.0,0.0,0.0,0.0,0.0,0.0,0.0,0.0,0.0,0.0,0.0,0.0,0.0,0.0,0.0,0.0,0.0,0.0,0.0,0.0,0.0,-2.7986,-3.1012,-3.5464,-3.8181,-3.8963,-3.886,-3.8821,-3.8739,-3.561,-3.2327,-2.9012,0.0,0.0,0.0,0.0,0.0,0.0,0.0,0.0,0.0,0.0,0.0,0.0,0.0,0.0,0.0,0.0,0.0,0.0,0.0,0.0,0.0,0.0,0.0,0.0,0.0,0.0,-1.0763,-1.1774,-1.2583,0.0,0.0,0.0,0.0,0.0,0.0,0.0,0.0,0.0,-2.3092,-2.6736,-2.9164,-2.8803,-2.9794,-3.0902,-3.1523,-3.0838,-3.0602,-3.1748,-3.1773,-3.1069,0.0,0.0,0.0,0.0,0.0,0.0,0.0,0.0,0.0,0.0,0.0,0.0,0.0,0.0,0.0,0.0,0.0,0.0,0.0,0.0,0.0,0.0,0.0,0.0,0.0,0.0,0.0,-1.9795,-1.9317,0.0,0.0,0.0,0.0,0.0,0.0,0.0,0.0,0.0,0.0,0.0,-2.7805,-2.7415,0.0,0.0,0.0,0.0,0.0,0.0,0.0,0.0,0.0,0.0,0.0,0.0,-2.8092,-3.132,-3.6237,-3.8933,-3.9202,-3.9627,-3.9561,-3.8942,-3.7026,-3.3411,-2.7908,0.0,0.0,0.0,0.0,0.0,0.0,0.0,0.0,0.0,0.0,0.0,0.0,0.0,0.0,0.0,0.0,0.0,0.0,0.0,0.0,0.0,0.0,0.0,0.0,0.0,-1.3586,0.0,0.0,0.0,0.0,0.0,0.0,0.0,0.0,0.0,0.0,0.0,-2.3685,-2.6573,-2.8179,-2.9605,-3.1117,-3.1832,-3.2655,0.0,0.0,0.0,0.0,0.0,0.0,0.0,0.0,0.0,0.0,0.0,0.0,0.0,0.0,-2.5825,-2.1974,-2.1781,-2.2344,-2.2685,0.0,0.0,0.0,0.0,0.0,0.0,0.0,0.0,0.0,0.0,0.0,0.0,0.0,0.0,-2.4122,-2.3411,-2.3049,0.0,0.0,0.0,0.0,0.0,0.0,0.0,0.0,-2.8408,-3.049,-3.2256,-3.1959,-3.1866,0.0,-3.052,-2.7608,0.0,0.0,0.0,0.0,0.0,0.0,0.0,0.0,-2.9042,-3.1726,-3.6927,-3.9696,-3.9696,-4.016,-4.0122,-3.9457,-3.7248,-3.386,-2.931,-2.5147,-2.1925,0.0,0.0,0.0,0.0,0.0,0.0,0.0,0.0,0.0,0.0,0.0,0.0,0.0,0.0,0.0,0.0,0.0,0.0,0.0,0.0,0.0,0.0,0.0,-1.4986,0.0,0.0,0.0,0.0,0.0,0.0,0.0,0.0,0.0,-2.2922,-2.4379,-2.6539,-2.9619,-3.0573,-3.135,-3.2332,0.0,0.0,0.0,0.0,0.0,0.0,0.0,-3.1397,-3.0847,-3.1188,-3.1827,-3.2646,-3.3149,-3.3233,-3.2651,0.0,0.0,-2.6039,-2.5334,-2.5524,-2.59,-2.6595,-2.7271,-2.7873,-2.8202,-2.8465,0.0,0.0,0.0,0.0,0.0,0.0,0.0,0.0,-2.8679,-2.8515,0.0,-2.691,0.0,0.0,0.0,0.0,-2.3256,-2.6974,0.0,0.0,-3.4601,-3.6563,-3.5431,-3.6214,-3.6235,-3.5443,-3.5394,-3.3796,-3.0662,-2.5478,0.0,0.0,0.0,0.0,0.0,0.0,-3.084,-3.2265,-3.7602,-4.0426,-4.0442,-4.0442,-4.0426,-4.0249,-3.6411,-3.39,-3.2934,-2.8888,-2.5592,-2.3381,-2.0286,0.0,0.0,0.0,0.0,0.0,0.0,0.0,0.0,0.0,0.0,0.0,0.0,0.0,0.0,0.0,0.0,0.0,0.0,0.0,0.0,-1.4556,0.0,0.0,0.0,0.0,0.0,0.0,0.0,0.0,0.0,0.0,-2.4995,-2.7817,-3.0542,-3.1855,0.0,0.0,0.0,0.0,-3.3817,-3.2717,-3.205,-3.2004,-3.2691,-3.3599,-3.4456,-3.5109,0.0,0.0,-3.7386,-3.6169,-3.5068,-3.3954,-3.4562,-3.4191,-3.1541,-2.9583,-2.8572,-2.9066,-2.93,-2.972,-3.1112,-3.1419,-3.1466,-3.6874,0.0,0.0,0.0,0.0,-3.3495,-3.4591,-3.6508,-3.6149,-3.4929,-3.3099,-3.2865,0.0,0.0,0.0,0.0,0.0,0.0,-3.2188,-3.4301,-3.65,-3.8247,-3.9678,-4.0009,-4.0101,-4.0008,-3.9049,-3.79,-3.6479,-3.3444,-2.9178,-2.3963,0.0,0.0,0.0,0.0,-3.1907,-3.4438,-3.8816,-4.1127,-4.1127,-4.111,-4.063,-3.9647,-3.7932,-3.6156,-3.4331,-3.2217,-2.9507,-2.6131,-2.3832,0.0,0.0,0.0,0.0,0.0,0.0,0.0,0.0,0.0,0.0,0.0,0.0,0.0,0.0,0.0,0.0,0.0,0.0,0.0,-1.647,-1.6972,-1.7379,0.0,0.0,0.0,0.0,0.0,0.0,0.0,0.0,0.0,-3.0735,-2.9974,-2.9921,0.0,0.0,-3.2153,-3.159,-3.3568,-3.5237,-3.554,-3.5666,0.0,-3.7049,-3.6432,-3.6052,-3.6645,-3.8534,-3.9995,-4.0158,-3.9914,-3.9836,-4.01,-3.9083,-3.8011,-3.7862,-3.5951,-3.4296,-3.3965,-3.4651,-3.5249,-3.5203,-3.5835,-3.6595,-4.4216,-4.1034,-3.8629,-3.8048,-3.874,-3.8867,-3.9896,-4.1486,-4.1,-3.996,-3.8563,-3.7936,-3.5835,-3.2657,-3.15,0.0,0.0,0.0,-3.5526,-3.8473,-3.951,-4.1136,-4.3191,-4.3297,-4.3354,-4.3454,-4.2337,-4.1221,-4.0144,-3.8556,-3.4984,-2.9626,0.0,0.0,-2.7997,-3.1083,-3.3907,-3.646,-3.9999,-4.1839,-4.1856,-4.1558,-4.0729,-3.9348,-3.8593,-3.7424,-3.577,-3.4455,-3.2305,-2.9222,-2.6768,-2.4005,0.0,0.0,0.0,0.0,0.0,0.0,0.0,0.0,0.0,0.0,0.0,-1.177,-0.9872,0.0,0.0,0.0,-1.4776,-1.6959,-1.853,-1.9239,0.0,0.0,0.0,0.0,0.0,0.0,0.0,-2.7828,-3.0606,-3.2931,-3.4113,-3.3197,-3.2911,-3.4312,-3.4507,-3.433,-3.3794,0.0,-3.7137,-3.7441,-3.767,-3.8133,-3.9035,-3.8784,-3.8721,-3.9619,-4.0711,-4.1639,-4.2049,-4.2223,-4.2478,-4.2776,-4.1942,-4.1095,-4.1693,-4.0477,-3.8878,-3.7405,-3.7889,-3.8538,-3.8417,-3.9072,-3.9659,-4.9891,-4.9392,-4.3779,-4.1702,-4.2176,-4.3614,-4.4136,-4.3964,-4.3982,-4.3889,-4.364,-4.2234,-4.0779,-3.9301,-3.6573,0.0,-3.636,-3.7045,-3.9013,-4.1911,-4.3281,-4.4707,-4.6175,-4.6119,-4.6088,-4.6088,-4.5316,-4.4122,-4.2552,-4.1704,-3.9675,-3.6482,-3.3232,-3.1911,-3.2517,-3.4499,-3.6501,-3.8444,-4.1099,-4.2506,-4.2489,-4.1761,-4.0763,-3.9431,-3.856,-3.7765,-3.7019,-3.5595,-3.3957,-3.2066,-2.9103,-2.6587,-2.4587,0.0,0.0,0.0,0.0,0.0,0.0,0.0,0.0,0.0,0.0,0.0,0.0,0.0,0.0,0.0,-1.8017,0.0,-2.052,-2.1652,0.0,0.0,0.0,-2.6476,-2.7845,-3.0017,-3.1652,-3.2294,0.0,0.0,-3.5878,-3.6926,-3.8167,-3.9523,-3.9499,-3.8901,-3.7659,-3.8601,-3.9349,-3.8781,-3.8766,-3.9035,-3.9866,-4.0741,-4.1698,-4.2722,-4.3305,-4.32,-4.32,-4.3245,-4.329,-4.329,-4.329,-4.3235,-4.329,-4.3076,-4.245,-3.9753,-3.9683,-4.0272,-4.0845,-4.092,-4.1111,-5.1527,-5.1419,-4.996,-4.8668,-4.7595,-4.7898,-4.7972,-4.7902,-4.792,-4.7265,-4.6141,-4.5749,-4.4782,-4.3353,-4.2163,-4.2039,-4.274,-4.2326,-4.319,-4.5096,-4.6058,-4.6962,-4.7846,-4.8373,-4.8554,-4.8478,-4.8277,-4.7777,-4.692,-4.559,-4.3305,-4.0107,-3.8068,-3.6452,-3.5254,-3.6729,-3.8546,-4.0602,-4.186,-4.2506,-4.2473,-4.1789,-4.1011,-4.016,-3.8344,-3.7019,-3.629,-3.4849,-3.333,-3.1764,-2.9902,-2.7874,-2.556,-2.1286,0.0,0.0,0.0,0.0,0.0,0.0,0.0,0.0,0.0,-1.59,-1.2695,0.0,-1.8372,0.0,-1.9833,-2.2899,-2.5598,-2.5852,0.0,0.0,-2.8537,-2.9354,-3.1144,-3.2969,-3.4228,-3.4629,-3.6484,-3.8093,-3.9125,-3.9499,-4.0367,-4.2034,-4.0217,-3.8512,-3.8242,-3.9753,-4.0861,-4.0771,-4.1444,-4.2168,-4.2258,-4.2602,-4.2916,-4.3245,-4.3305,-4.3305,-4.3305,-4.3305,-4.3305,-4.3305,-4.3305,-4.3305,-4.3305,-4.3305,-4.3121,-4.2435,-4.236,-4.2302,-4.1922,-4.2216,-4.2699,-5.2269,-5.2269,-5.2222,-5.1628,-5.0748,-5.0557,-5.0461,-5.0425,-5.0037,-4.9353,-4.8532,-4.8175,-4.74,-4.627,-4.5548,-4.5329,-4.5471,-4.4656,-4.5201,-4.688,-4.7176,-4.7936,-4.9064,-4.9362,-4.9489,-4.9483,-4.9501,-4.9185,-4.8652,-4.7823,-4.596,-4.3211,-4.2654,-4.1397,-3.935,-3.8254,-3.8714,-4.0698,-4.1604,-4.2187,-4.2456,-4.1789,-4.063,-3.8957,-3.7433,-3.581,-3.4097,-3.2945,-3.1802,-3.0654,-2.8933,-2.737,-2.5989,-2.2251,-1.9619,0.0,0.0,0.0,0.0,0.0,0.0,0.0,0.0,0.0,0.0,0.0,-2.1504,-2.1581,-2.4672,-2.7496,-2.948,-3.0123,-3.1004,-3.2402,-3.2922,-3.3824,-3.546,-3.6983,-3.7998,-3.8107,-3.9611,-4.0816,-4.125,-4.1519,-4.2087,-4.3155,-4.1743,-4.0591,-4.0666,-4.1579,-4.2252,-4.2297,-4.2826,-4.3305,-4.3305,-4.3305,-4.3305,-4.3305,-4.3305,-4.3305,-4.3305,-4.3305,-4.3305,-4.3305,-4.3305,-4.3305,-4.3305,-4.3305,-4.3305,-4.3305,-4.3305,-4.313,-4.2699,-4.2955,-4.3305,-5.2498,-5.2498,-5.2382,-5.2329,-5.2311,-5.2054,-5.1949,-5.1871,-5.1075,-5.0704,-5.0669,-4.9972,-4.9317,-4.8679,-4.7791,-4.7129,-4.6643,-4.5638,-4.6197,-4.795,-4.7719,-4.8524,-5.0164,-4.9975,-4.9905,-5.0016,-5.0016,-4.9752,-4.9312,-4.9181,-4.7992,-4.5882,-4.6361,-4.5483,-4.3085,-3.9467,-3.8546,-4.0346,-4.1039,-4.1723,-4.2324,-4.1463,-3.9752,-3.7235,-3.6108,-3.4352,-3.173,-3.0704,-2.9926,-2.9248,-2.7396,-2.6367,-2.6384,-2.3171,-2.1265,0.0,-1.9426,0.0,0.0,0.0,0.0,0.0,0.0,0.0,0.0,-2.412,-2.5401,-2.7962,-3.0457,-3.2224,-3.2878,-3.4246,-3.537,-3.6054,-3.7221,-3.8419,-3.9526,-4.0831,-4.1647,-4.1558,-4.2652,-4.3198,-4.2593,-4.2985,-4.329,-4.329,-4.317,-4.2976,-4.32,-4.317,-4.32,-4.3305,-4.3305,-4.3305,-4.3305,-4.3305,-4.3305,-4.3305,-4.3305,-4.3305,-4.3305,-4.3305,-4.3305,-4.3305,-4.3305,-4.3305,-4.3305,-4.3305,-4.3305,-4.3305,-4.3305,-4.3305,-4.325,-4.325,-4.3305,-5.2498,-5.2498,-5.2475,-5.2452,-5.2452,-5.2287,-5.2168,-5.206,-5.1874,-5.1796,-5.1778,-5.1748,-5.1652,-5.1423,-5.0114,-4.9458,-4.9303,-4.7813,-4.8034,-4.9637,-4.9571,-5.0371,-5.1788,-5.1813,-5.1724,-5.1652,-5.1634,-5.1587,-5.1478,-5.0736,-4.9303,-4.7315,-4.6681,-4.5005,-4.2316,0.0,0.0,0.0,-4.1901,-4.1475,-4.1541,-3.9742,-3.8278,-3.7102,-3.4634,0.0,-3.1615,-2.9781,-2.874,-2.8575,-2.763,0.0,0.0,0.0,0.0,0.0,0.0,0.0,0.0,0.0,0.0,0.0,-2.8675,-2.7676,-2.6295,-2.7959,-3.0174,-3.2553,-3.3501,-3.4888,-3.7122,-3.7637,-3.8083,-3.8726,-3.9482,-4.0025,-4.026,-4.1472,-4.2236,-4.2248,-4.2887,-4.3292,-4.3214,-4.323,-4.3305,-4.3305,-4.3305,-4.3305,-4.3305,-4.3305,-4.3305,-4.3305,-4.3305,-4.3305,-4.3305,-4.3305,-4.3305,-4.3305,-4.3305,-4.3305,-4.3305,-4.3305,-4.3305,-4.3305,-4.3305,-4.3305,-4.3305,-4.3305,-4.3305,-4.3305,-4.3305,-4.3305,-4.3305,-4.3305,-4.3305,-5.2787,-5.2765,-5.2595,-5.2498,0.0,-5.2428,-5.234,-5.2293,-5.2156,-5.2084,-5.2084,-5.2174,-5.2198,-5.2126,-5.0592,-4.9938,-4.991,-4.8255,-4.8226,-4.951,-4.978,-5.0371,-5.123,-5.1558,-5.1715,-5.1697,-5.1697,-5.1914,-5.2257,-5.176,-5.0605,-4.888,-4.8317,-4.6767,-4.4373,-4.3411,-4.2829,-4.2535,-4.1761,-4.1744,-4.2373,-4.1066,-3.9444,-3.7656,-3.5479,0.0,0.0,0.0,0.0,0.0,0.0,0.0,0.0,0.0,0.0,-2.8221,-2.7957,-2.8241,-2.9317,-3.0448,-3.1835,-3.3601,-3.4767,-3.4067,-3.098,-3.3597,-3.5894,-3.7095,-3.7938,-3.9032,-4.0358,-4.1154,-4.1729,-4.2061,-4.2702,-4.3091,-4.3118,-4.3969,-4.4443,-4.4121,-4.431,-4.4358,-4.3927,-4.3512,-4.3329,-4.3305,-4.3305,-4.3305,-4.3305,-4.3305,-4.3305,-4.3305,-4.3305,-4.3305,-4.3305,-4.3305,-4.3305,-4.3305,-4.3305,-4.3305,-4.3305,-4.3305,-4.3305,-4.3305,-4.3305,-4.3305,-4.3305,-4.3305,-4.3305,-4.3305,-4.3305,-4.3305,-4.3305,-4.3305,-4.3305,-5.3203,-5.3182,-5.2853,-5.2694,-5.2694,-5.2622,-5.2572,-5.2475,-5.2251,0.0,0.0,-5.2174,-5.2156,-5.2066,-5.0482,-4.9825,-4.9825,-4.8145,-4.7922,-4.8909,-4.9365,-4.9767,-5.0108,-5.0688,-5.0995,-5.1086,-5.1067,-5.1461,-5.2216,-5.2076,-5.1496,-5.0485,-5.0125,-4.8943,-4.6929,-4.5554,-4.3926,-4.2088,-4.1607,-4.2005,-4.3135,-4.2402,-4.0763,-3.8261,-3.692,-3.4932,-3.2277,-3.0361,-2.9304,-2.9138,-2.7992,-2.7959,-2.9254,-2.9354,-3.0195,-3.1995,-3.231,-3.3005,-3.4468,-3.5263,-3.6307,-3.7765,-3.9653,-3.9437,-3.6257,-3.8808,-4.0641,-4.0746,-4.1839,-4.2572,-4.2883,-4.3943,-4.4707,-4.4731,-4.5377,-4.57,-4.5545,-4.6206,-4.6246,-4.5838,-4.5608,-4.5442,-4.4774,-4.4028,-4.3527,-4.3488,-4.3409,-4.3305,-4.3305,-4.3305,-4.3305,-4.3305,-4.3305,-4.3305,-4.3305,-4.3305,-4.3305,-4.3305,-4.3305,-4.3305,-4.3305,-4.3305,-4.3305,-4.3305,-4.3305,-4.3305,-4.3305,-4.3305,-4.3305,-4.3305,-4.3305,-4.3305,-4.3305,-4.3305,-4.3305,-5.3606,-5.3606,-5.3548,-5.3547,-5.3489,-5.3162,-5.2809,-5.2498,-5.2475,-5.2452,-5.2452,-5.2434,-5.2434,-5.2361,-5.0751,-5.0049,-4.9959,-4.8381,-4.8091,-4.8873,-4.8996,-4.9394,-5.0093,-5.0198,-5.0253,-5.0253,-5.0127,-5.0516,-5.1192,-5.1053,-5.1137,-5.149,-5.099,-4.9615,-4.7691,-4.6305,-4.5168,-4.4208,-4.2369,-4.1524,-4.169,-4.0415,-3.9272,-3.8219,-3.7433,-3.6174,-3.4502,-3.3524,-3.2746,-3.2138,-3.1906,-3.2166,-3.2984,-3.3027,-3.3442,-3.4369,-3.5032,-3.6042,-3.7457,-3.8271,-3.9288,-4.068,-4.1662,-4.1707,-4.0647,-4.0917,-4.1541,-4.2137,-4.244,-4.3048,-4.4191,-4.4589,-4.4818,-4.487,-4.5358,-4.5495,-4.5088,-4.5566,-4.5984,-4.5845,-4.5697,-4.5697,-4.5499,-4.4812,-4.4259,-4.422,-4.3693,-4.3305,-4.3369,-4.3305,-4.3305,-4.3305,-4.3305,-4.3305,-4.3305,-4.3305,-4.3305,-4.3305,-4.3305,-4.3305,-4.3305,-4.3305,-4.3305,-4.3305,-4.3305,-4.3305,-4.3305,-4.3305,-4.3305,-4.3305,-4.3305,-4.3305,-4.3305,-4.3305,-4.3305,-5.4033,-5.3997,-5.3814,-5.372,-5.3683,-5.3508,-5.3203,-5.2831,-5.2831,-5.2712,-5.2498,-5.2498,-5.2498,-5.2389,-5.1267,-5.051,-5.0057,-4.8876,-4.8294,-4.8275,-4.8692,-4.8858,-4.884,-4.9238,-4.9394,-4.9332,-4.9288,-4.9636,-5.0302,-5.0569,-5.0722,-5.071,-5.0084,-4.895,-4.7378,-4.6701,-4.6013,-4.5268,-4.391,-4.3015,-4.2589,-4.1972,-4.1293,-4.0553,-3.9818,-3.8957,-3.7939,-3.6787,-3.6042,-3.5711,-3.5297,-3.5595,-3.6713,-3.6779,-3.7268,-3.8344,-3.8758,-3.9239,-3.9901,-4.063,-4.1309,-4.1972,-4.2671,-4.2953,-4.2622,-4.2589,-4.2886,-4.3611,-4.3694,-4.4125,-4.5185,-4.5649,-4.5887,-4.5945,-4.6553,-4.6797,-4.661,-4.6736,-4.6947,-4.6929,-4.6534,-4.6288,-4.6288,-4.5243,-4.451,-4.445,-4.381,-4.3488,-4.3834,-4.3536,-4.3305,-4.3305,-4.3305,-4.3305,-4.3305,-4.3305,-4.3305,-4.3305,-4.3305,-4.3305,-4.3305,-4.3305,-4.3305,-4.3305,-4.3305,-4.3305,-4.3305,-4.3305,-4.3305,-4.3305,-4.3305,-4.3305,-4.3305,-4.3305,-4.3305,-5.4602,-5.4399,-5.4104,-5.3851,-5.372,-5.372,-5.3428,-5.2987,-5.2947,-5.2787,-5.2503,-5.2498,-5.2498,-5.2408,-5.1647,-5.0963,-5.0307,-4.9546,-4.8768,-4.8076,-4.8601,-4.8547,-4.8019,-4.8435,-4.8605,-4.864,-4.8636,-4.8875,-4.9413,-5.0092,-5.0156,-4.9604,-4.912,-4.832,-4.7188,-4.7139,-4.6775,-4.6046,-4.5483,-4.4754,-4.391,-4.383,-4.3482,-4.28,-4.2175,-4.1574,-4.0862,-3.9785,-3.9106,-3.8897,-3.8394,-3.8609,-3.968,-3.9779,-4.0266,-4.1276,-4.1397,-4.1491,-4.169,-4.234,-4.2738,-4.2754,-4.3416,-4.386,-4.3876,-4.3995,-4.4257,-4.4638,-4.4818,-4.5235,-4.593,-4.651,-4.6957,-4.7139,-4.7636,-4.7869,-4.8001,-4.8001,-4.8001,-4.7935,-4.7454,-4.7067,-4.6828,-4.5881,-4.4946,-4.451,-4.3966,-4.3849,-4.4066,-4.3654,-4.3329,-4.3305,-4.3305,-4.3305,-4.3305,-4.3305,-4.3305,-4.3305,-4.3305,-4.3305,-4.3305,-4.3305,-4.3305,-4.3305,-4.3305,-4.3305,-4.3305,-4.3305,-4.3305,-4.3305,-4.3305,-4.3305,-4.3305,-4.3484,-4.3439,-5.5576,-5.4894,-5.4814,-5.4364,-5.3739,-5.3702,-5.3285,-5.264,-5.2549,-5.2567,-5.2498,-5.2498,-5.2498,-5.2389,-5.1665,-5.1267,-5.1108,-5.0343,-4.9546,-4.8837,-4.8855,-4.8793,-4.8562,-4.798,-4.7973,-4.8452,-4.8452,-4.8478,-4.8606,-4.9326,-4.9448,-4.9031,-4.8911,-4.8558,-4.7933,-4.7868,-4.752,-4.6808,-4.6725,-4.6013,-4.4688,-4.4589,-4.4257,-4.3515,-4.3416,-4.3052,-4.2303,-4.2158,-4.1761,-4.1182,-4.1028,-4.1044,-4.121,-4.1182,-4.1293,-4.1442,-4.1458,-4.1678,-4.2386,-4.3085,-4.3499,-4.3549,-4.4175,-4.4589,-4.4622,-4.5202,-4.5301,-4.505,-4.5334,-4.598,-4.6676,-4.6891,-4.7206,-4.7736,-4.7918,-4.8001,-4.8001,-4.8001,-4.8001,-4.8001,-4.7886,-4.7886,-4.7704,-4.6896,-4.5953,-4.4774,-4.4282,-4.3989,-4.3747,-4.3433,-4.3305,-4.3305,-4.3305,-4.3305,-4.3305,-4.3305,-4.3305,-4.3305,-4.3305,-4.3305,-4.3305,-4.3305,-4.3319,-4.3469,-4.3379,-4.3394,-4.3439,-4.3305,-4.3394,-4.3589,-4.3529,-4.3364,-4.3379,-4.3783,-4.4003,-5.6417,-5.5678,-5.5678,-5.5053,-5.4089,-5.3796,-5.3368,-5.2875,-5.2853,-5.2717,-5.2521,-5.2498,-5.2498,-5.2462,-5.2154,-5.1756,-5.1285,-5.0941,-5.0379,-4.9655,-4.9513,-4.9468,-4.9347,-4.901,-4.892,-4.9075,-4.9041,-4.8977,-4.8924,-4.9021,-4.9028,-4.8877,-4.8543,-4.826,-4.8001,-4.8001,-4.7852,-4.757,-4.7537,-4.704,-4.603,-4.5135,-4.4539,-4.4241,-4.383,-4.3466,-4.3184,-4.3135,-4.2986,-4.2721,-4.2688,-4.2688,-4.2704,-4.2688,-4.2704,-4.2688,-4.2688,-4.282,-4.3118,-4.3843,-4.4257,-4.4257,-4.492,-4.5351,-4.5367,-4.603,-4.6295,-4.6096,-4.6278,-4.6742,-4.7404,-4.7537,-4.7669,-4.7951,-4.8001,-4.8001,-4.8001,-4.8001,-4.8001,-4.8001,-4.8001,-4.8001,-4.782,-4.6913,-4.5969,-4.5147,-4.451,-4.3834,-4.3888,-4.363,-4.3329,-4.3305,-4.3305,-4.3305,-4.3305,-4.3305,-4.3305,-4.3305,-4.3305,-4.3305,-4.3364,-4.3305,-4.3394,-4.3783,-4.3858,-4.4052,-4.4511,-4.4481,-4.4496,-4.4436,-4.4481,-4.4481,-4.4496,-4.4706,-4.4706,-5.707,-5.6374,-5.6236,-5.544,-5.4298,-5.3997,-5.349,-5.2965,-5.2944,-5.2783,-5.2521,-5.2498,-5.2498,-5.2498,-5.2498,-5.2154,-5.1665,-5.1606,-5.1149,-5.0421,-5.0236,-5.0167,-5.0104,-4.9801,-4.9703,-4.9764,-4.9776,-4.9673,-4.9366,-4.8726,-4.8503,-4.8568,-4.8227,-4.8001,-4.8001,-4.8001,-4.8001,-4.8001,-4.8001,-4.7736,-4.709,-4.5947,-4.5202,-4.4953,-4.4291,-4.391,-4.391,-4.3698,-4.3615,-4.3598,-4.3615,-4.3615,-4.3615,-4.3615,-4.3615,-4.3631,-4.378,-4.3896,-4.3926,-4.4589,-4.4986,-4.5036,-4.5682,-4.6127,-4.6212,-4.6775,-4.7173,-4.7173,-4.7189,-4.7454,-4.7885,-4.8001,-4.8001,-4.8001,-4.8001,-4.8001,-4.8001,-4.8001,-4.8001,-4.8001,-4.8001,-4.7886,-4.7555,-4.6724,-4.5949,-4.5243,-4.4373,-4.363,-4.405,-4.382,-4.3589,-4.3574,-4.3708,-4.3678,-4.3424,-4.3529,-4.3529,-4.3633,-4.3723,-4.3962,-4.3843,-4.3858,-4.3888,-4.4541,-4.4571,-4.4646,-4.49,-4.514,-4.5319,-4.5289,-4.5304,-4.5289,-4.511,-4.5379,-4.5559,-5.7469,-5.6665,-5.6274,-5.5434,-5.4335,-5.4237,-5.3613,-5.2663,-5.2549,-5.2503,-5.248,-5.2498,-5.2498,-5.2498,-5.2498,-5.2462,-5.2408,-5.2273,-5.1788,-5.1102,-5.0932,-5.0772,-5.0617,-4.9877,-4.9865,-5.0448,-5.041,-5.0178,-4.9688,-4.8477,-4.7852,-4.8049,-4.8033,-4.8001,-4.8001,-4.8001,-4.8001,-4.8001,-4.8001,-4.7968,-4.7835,-4.7156,-4.6444,-4.5814,-4.5036,-4.4638,-4.4572,-4.3992,-4.3648,-4.3631,-4.3648,-4.3631,-4.3615,-4.3631,-4.3664,-4.3698,-4.4274,-4.4638,-4.4721,-4.5334,-4.5748,-4.5831,-4.6427,-4.6841,-4.6874,-4.7438,-4.7819,-4.7934,-4.7868,-4.7918,-4.7984,-4.8001,-4.8001,-4.8001,-4.8001,-4.8001,-4.8001,-4.8001,-4.8001,-4.7935,-4.782,-4.7555,-4.6965,-4.6811,-4.5917,-4.5036,-4.4488,-4.4205,-4.3786,-4.3923,-4.4212,-4.4377,-4.4616,-4.4766,-4.3693,-4.3873,-4.4242,-4.4317,-4.4601,-4.505,-4.5185,-4.5229,-4.52,-4.5229,-4.5244,-4.5274,-4.5289,-4.5364,-4.5499,-4.5544,-4.5603,-4.5589,-4.5798,-4.6007,-4.6187,-5.7878,-5.6999,-5.6092,-5.5444,-5.4998,-5.425,-5.3658,-5.3246,-5.2697,-5.2498,-5.2498,-5.2498,-5.2498,-5.2498,-5.2498,-5.2498,-5.2498,-5.2358,-5.2149,-5.1849,-5.1646,-5.1501,-5.1417,-5.1057,-5.1008,-5.1159,-5.0872,-5.0379,-4.9792,-4.925,-4.8869,-4.8507,-4.8163,-4.8001,-4.8001,-4.8001,-4.8001,-4.8001,-4.8001,-4.8001,-4.8001,-4.7736,-4.7471,-4.7173,-4.603,-4.5384,-4.5384,-4.5135,-4.4787,-4.4324,-4.4291,-4.4092,-4.3698,-4.4059,-4.4307,-4.4373,-4.4986,-4.5384,-4.5483,-4.6096,-4.6493,-4.6543,-4.7189,-4.7587,-4.7636,-4.7835,-4.8001,-4.8001,-4.8001,-4.8001,-4.8001,-4.8001,-4.8001,-4.8001,-4.8001,-4.8001,-4.8001,-4.8001,-4.782,-4.7287,-4.6878,-4.655,-4.6638,-4.5953,-4.5116,-4.4632,-4.4432,-4.4242,-4.4168,-4.4526,-4.4945,-4.496,-4.511,-4.514,-4.4766,-4.4751,-4.4945,-4.4975,-4.514,-4.5229,-4.5349,-4.5454,-4.5424,-4.5873,-4.5948,-4.6082,-4.6157,-4.6322,-4.6337,-4.6381,-4.6396,-4.6277,-4.6591,-4.6651,-4.68,-5.7935,-5.7206,-5.6397,-5.5894,-5.5574,-5.4796,-5.4146,-5.3693,-5.3114,-5.2733,-5.2534,-5.2498,-5.2498,-5.2498,-5.2498,-5.2498,-5.2475,-5.234,-5.2329,-5.2287,-5.2071,-5.1932,-5.1882,-5.1808,-5.174,-5.1615,-5.107,-5.0467,-4.985,-4.9617,-4.9201,-4.8574,-4.8163,-4.8001,-4.8001,-4.8001,-4.8001,-4.8001,-4.8001,-4.8001,-4.8001,-4.8001,-4.8001,-4.7868,-4.7007,-4.6378,-4.6179,-4.5914,-4.5582,-4.5135,-4.5036,-4.4837,-4.4456,-4.4787,-4.5036,-4.5149,-4.5732,-4.6146,-4.6228,-4.6841,-4.7255,-4.7272,-4.7703,-4.8001,-4.8001,-4.8001,-4.8001,-4.8001,-4.8001,-4.8001,-4.8001,-4.8001,-4.8001,-4.8001,-4.8001,-4.8001,-4.8001,-4.8001,-4.777,-4.7337,-4.6947,-4.674,-4.6585,-4.5629,-4.507,-4.4841,-4.4552,-4.4372,-4.4631,-4.5185,-4.5618,-4.5648,-4.5873,-4.6022,-4.5933,-4.6007,-4.5783,-4.5753,-4.5933,-4.5858,-4.5783,-4.5813,-4.5963,-4.6426,-4.6711,-4.689,-4.707,-4.7249,-4.7309,-4.7309,-4.7145,-4.6905,-4.71,-4.7204,-4.7189,-5.7624,-5.7216,-5.717,-5.6677,-5.6085,-5.5855,-5.507,-5.3983,-5.3766,-5.3313,-5.2715,-5.257,-5.2589,-5.2498,-5.2498,-5.2498,-5.2475,-5.2382,-5.2311,-5.2287,-5.2126,-5.2005,-5.1907,-5.1858,-5.174,-5.1589,-5.1061,-5.0439,-4.9821,-4.9261,-4.87,-4.8163,-4.8066,-4.8001,-4.8001,-4.8001,-4.8001,-4.8001,-4.8001,-4.8001,-4.8001,-4.8001,-4.8001,-4.8001,-4.7885,-4.752,-4.6908,-4.6278,-4.593,-4.5814,-4.5798,-4.5798,-4.5632,-4.5748,-4.5829,-4.5897,-4.6493,-4.6858,-4.6974,-4.7537,-4.7885,-4.7885,-4.7984,-4.8001,-4.8001,-4.8001,-4.8001,-4.8001,-4.8001,-4.8001,-4.8001,-4.8001,-4.8001,-4.8001,-4.8001,-4.8001,-4.8001,-4.7968,-4.8001,-4.7853,-4.7571,-4.7521,-4.6862,-4.5884,-4.5304,-4.5101,-4.489,-4.4766,-4.5259,-4.5888,-4.6234,-4.6384,-4.6606,-4.6785,-4.704,-4.7234,-4.683,-4.6561,-4.6815,-4.6905,-4.677,-4.6756,-4.6681,-4.701,-4.701,-4.716,-4.716,-4.7309,-4.7309,-4.7309,-4.7309,-4.7309,-4.7309,-4.7309,-4.7251,-5.732,-5.7206,-5.7188,-5.7062,-5.6736,-5.6228,-5.5667,-5.5233,-5.4762,-5.4074,-5.3422,-5.3331,-5.3023,-5.257,-5.2498,-5.2498,-5.2498,-5.2452,-5.2382,-5.2287,-5.2096,-5.1956,-5.1882,-5.1808,-5.1521,-5.114,-5.0901,-5.0467,-4.9821,-4.9201,-4.8776,-4.8574,-4.8195,-4.8001,-4.8001,-4.8001,-4.8001,-4.8001,-4.8001,-4.8001,-4.8001,-4.8001,-4.8001,-4.8001,-4.8001,-4.7868,-4.7669,-4.7438,-4.7073,-4.6593,-4.656,-4.6328,-4.598,-4.6278,-4.6527,-4.6626,-4.7255,-4.7669,-4.7669,-4.7852,-4.8001,-4.8001,-4.8001,-4.8001,-4.8001,-4.8001,-4.8001,-4.8001,-4.8001,-4.8001,-4.8001,-4.8001,-4.8001,-4.8001,-4.8001,-4.8001,-4.7935,-4.7555,-4.7488,-4.7671,-4.662,-4.5825,-4.5864,-4.5401,-4.4976,-4.501,-4.527,-4.5753,-4.6037,-4.6531,-4.6965,-4.7055,-4.7294,-4.7309,-4.7309,-4.7309,-4.7115,-4.6905,-4.713,-4.7309,-4.7309,-4.7309,-4.7309,-4.7309,-4.7309,-4.7309,-4.7309,-4.7309,-4.7309,-4.7309,-4.7309,-4.7309,-4.7266,-4.7207,-4.7164,-5.7188,-5.7188,-5.7188,-5.7188,-5.7152,-5.6627,-5.6265,-5.5957,-5.5504,-5.487,-5.4255,-5.4146,-5.3711,-5.3059,-5.2951,-5.2752,-5.2516,-5.2498,-5.2428,-5.2287,-5.2144,-5.2023,-5.1907,-5.1783,-5.1521,-5.1167,-5.0928,-5.0467,-4.9775,-4.9201,-4.8807,-4.8528,-4.8163,-4.8001,-4.8001,-4.8001,-4.8001,-4.8001,-4.8001,-4.8001,-4.8001,-4.8001,-4.8001,-4.8001,-4.8001,-4.8001,-4.8001,-4.8001,-4.7785,-4.7404,-4.7305,-4.7073,-4.6692,-4.7073,-4.7322,-4.7404,-4.7703,-4.8001,-4.8001,-4.7984,-4.8001,-4.8001,-4.8001,-4.8001,-4.8001,-4.8001,-4.8001,-4.8001,-4.8001,-4.8001,-4.8001,-4.8001,-4.8001,-4.8001,-4.8001,-4.8001,-4.7935,-4.7555,-4.7253,-4.7319,-4.6564,-4.6029,-4.5849,-4.5619,-4.5238,-4.5546,-4.5935,-4.6459,-4.6651,-4.7025,-4.7219,-4.7309,-4.7309,-4.7309,-4.7309,-4.7309,-4.7309,-4.7249,-4.7264,-4.7309,-4.7309,-4.7309,-4.7309,-4.7309,-4.7309,-4.7309,-4.7309,-4.7309,-4.7309,-4.7309,-4.7309,-4.7222,-4.7164,-4.7077,-4.6975,-5.7188,-5.7188,-5.7188,-5.7188,-5.7188,-5.7134,-5.6754,-5.6174,-5.6066,-5.5649,-5.5088,-5.4943,-5.4526,-5.3892,-5.3657,-5.3222,-5.2661,-5.2498,-5.2428,-5.2335,-5.2264,-5.2144,-5.1882,-5.1758,-5.1597,-5.1418,-5.0937,-5.0338,-4.9629,-4.9036,-4.856,-4.8115,-4.8066,-4.8001,-4.8001,-4.8001,-4.8001,-4.8001,-4.8001,-4.8001,-4.8001,-4.8001,-4.8001,-4.8001,-4.8001,-4.8001,-4.8001,-4.8001,-4.8001,-4.7984,-4.7901,-4.7868,-4.7934,-4.7984,-4.7934,-4.7901,-4.7984,-4.8001,-4.8001,-4.8001,-4.8001,-4.8001,-4.8001,-4.8001,-4.8001,-4.8001,-4.8001,-4.8001,-4.8001,-4.8001,-4.8001,-4.8001,-4.8001,-4.8001,-4.8001,-4.8001,-4.8001,-4.7951,-4.7704,-4.7266,-4.7359,-4.7493,-4.6713,-4.6455,-4.6708,-4.6834,-4.6671,-4.6796,-4.7025,-4.7249,-4.7294,-4.7309,-4.7309,-4.7309,-4.7309,-4.7309,-4.7309,-4.7309,-4.7309,-4.7309,-4.7309,-4.7309,-4.7309,-4.7309,-4.7309,-4.7309,-4.7309,-4.7309,-4.7309,-4.7309,-4.7266,-4.7164,-4.7033,-4.6931,-4.68,-5.7188,-5.7188,-5.7188,-5.7188,-5.7188,-5.7188,-5.708,-5.688,-5.6862,-5.6391,-5.5848,-5.5703,-5.5251,-5.4562,-5.3947,-5.3566,-5.3222,-5.2733,-5.2428,-5.2311,-5.2329,-5.2078,-5.1815,-5.1715,-5.147,-5.1017,-5.0422,-4.9734,-4.911,-4.8591,-4.8163,-4.8001,-4.8001,-4.8001,-4.8001,-4.8001,-4.8001,-4.8001,-4.8001,-4.8001,-4.8001,-4.8001,-4.8001,-4.8001,-4.8001,-4.8001,-4.8001,-4.8001,-4.8001,-4.8001,-4.8001,-4.8001,-4.8001,-4.8001,-4.8001,-4.8001,-4.8001,-4.8001,-4.8001,-4.8001,-4.8001,-4.8001,-4.8001,-4.8001,-4.8001,-4.8001,-4.8001,-4.8001,-4.8001,-4.8001,-4.8001,-4.8001,-4.8001,-4.8001,-4.8001,-4.8001,-4.8001,-4.8001,-4.7902,-4.7753,-4.7802,-4.7521,-4.7146,-4.7029,-4.7114,-4.694,-4.6909,-4.7025,-4.7249,-4.7309,-4.7309,-4.7309,-4.7309,-4.7309,-4.7309,-4.7309,-4.7309,-4.7309,-4.7309,-4.7309,-4.7309,-4.7309,-4.7309,-4.7309,-4.7309,-4.7309,-4.7309,-4.7309,-4.7309,-4.7266,-4.7222,-4.7121,-4.6931,-4.68,-4.6668,-5.7188,-5.7188,-5.7188,-5.7188,-5.7188,-5.7188,-5.7188,-5.7188,-5.717,-5.6953,-5.65,-5.6102,-5.5595,-5.4852,-5.4074,-5.3512,-5.315,-5.2733,-5.2446,-5.2287,-5.2192,-5.2005,-5.179,-5.1715,-5.1393,-5.0758,-5.0124,-4.9482,-4.8931,-4.8275,-4.8033,-4.8001,-4.8001,-4.8001,-4.8001,-4.8001,-4.8001,-4.8001,-4.8001,-4.8001,-4.8001,-4.8001,-4.8001,-4.8001,-4.8001,-4.8001,-4.8001,-4.8001,-4.8001,-4.8001,-4.8001,-4.8001,-4.8001,-4.8001,-4.8001,-4.8001,-4.8001,-4.8001,-4.8001,-4.8001,-4.8001,-4.8001,-4.8001,-4.8001,-4.8001,-4.8001,-4.8001,-4.8001,-4.8001,-4.8001,-4.8001,-4.8001,-4.8001,-4.8001,-4.8001,-4.8001,-4.8017,-4.8315,-4.8249,-4.8126,-4.8087,-4.8136,-4.7593,-4.7568,-4.7424,-4.7307,-4.7325,-4.7276,-4.7309,-4.7309,-4.7309,-4.7309,-4.7309,-4.7309,-4.7309,-4.7309,-4.7309,-4.7309,-4.7309,-4.7309,-4.7309,-4.7309,-4.7309,-4.7309,-4.7309,-4.7309,-4.7309,-4.7266,-4.7207,-4.7164,-4.7164,-4.699,-4.6756,-4.6624,-4.6491,-5.7188,-5.7188,-5.7188,-5.7188,-5.7188,-5.7188,-5.7188,-5.7188,-5.7188,-5.717,-5.6989,-5.6428,-5.5812,-5.4979,-5.4327,-5.344,-5.2715,-5.2607,-5.2441,-5.2264,-5.2096,-5.1932,-5.1882,-5.1589,-5.1167,-5.0577,-5.0011,-4.9351,-4.8731,-4.8195,-4.8033,-4.8001,-4.8001,-4.8001,-4.8001,-4.8001,-4.8001,-4.8001,-4.8001,-4.8001,-4.8001,-4.8001,-4.8001,-4.8001,-4.8001,-4.8001,-4.8001,-4.8001,-4.8001,-4.8001,-4.8001,-4.8001,-4.8001,-4.8001,-4.8001,-4.8001,-4.8001,-4.8001,-4.8001,-4.8001,-4.8001,-4.8001,-4.8001,-4.8001,-4.8001,-4.8001,-4.8001,-4.8001,-4.8001,-4.8001,-4.8001,-4.8001,-4.8001,-4.8034,-4.805,-4.81,-4.8117,-4.8646,-4.8824,-4.8286,-4.8589,-4.8812,-4.8545,-4.8106,-4.7664,-4.7465,-4.7478,-4.7351,-4.7309,-4.7309,-4.7309,-4.7309,-4.7309,-4.7309,-4.7309,-4.7309,-4.7309,-4.7309,-4.7309,-4.7309,-4.7309,-4.7309,-4.7309,-4.7309,-4.7309,-4.7309,-4.7309,-4.7251,-4.7106,-4.7062,-4.7019,-4.6756,-4.6447,-4.6403,-4.6314,-5.7188,-5.7188,-5.7188,-5.7188,-5.7188,-5.7188,-5.7188,-5.7188,-5.7188,-5.7188,-5.7134,-5.6971,-5.6428,-5.5685,-5.4907,-5.42,-5.3403,-5.2855,-5.2428,-5.2287,-5.2126,-5.198,-5.1765,-5.1297,-5.0677,-5.0039,-4.9411,-4.8776,-4.8275,-4.8115,-4.8001,-4.8001,-4.8001,-4.8001,-4.8001,-4.8001,-4.8001,-4.8001,-4.8001,-4.8001,-4.8001,-4.8001,-4.8001,-4.8001,-4.8001,-4.8001,-4.8001,-4.8001,-4.8001,-4.8001,-4.8001,-4.8001,-4.8001,-4.8001,-4.8001,-4.8001,-4.8001,-4.8001,-4.8001,-4.8001,-4.8001,-4.8001,-4.8001,-4.8001,-4.8001,-4.8001,-4.8001,-4.8001,-4.8001,-4.8001,-4.8001,-4.8001,-4.805,-4.815,-4.8431,-4.8544,-4.8202,-4.8674,-4.9256,-4.9524,-4.9572,-4.948,-4.8864,-4.8509,-4.8095,-4.7764,-4.751,-4.7352,-4.7309,-4.7309,-4.7309,-4.7309,-4.7309,-4.7309,-4.7309,-4.7309,-4.7309,-4.7309,-4.7309,-4.7309,-4.7309,-4.7266,-4.7207,-4.7266,-4.7309,-4.7266,-4.7179,-4.7077,-4.6931,-4.6931,-4.6887,-4.658,-4.6358,-4.6269,-4.6296,-5.7188,-5.7188,-5.7188,-5.7188,-5.7188,-5.7188,-5.7188,-5.7188,-5.7188,-5.7188,-5.7098,-5.6826,-5.6391,-5.5957,-5.5251,-5.4617,-5.414,-5.3351,-5.2725,-5.2372,-5.2078,-5.1815,-5.1357,-5.0741,-5.0096,-4.9717,-4.9201,-4.8574,-4.8147,-4.8001,-4.8001,-4.8001,-4.8001,-4.8001,-4.8001,-4.8001,-4.8001,-4.8001,-4.8001,-4.8001,-4.8001,-4.8001,-4.8001,-4.8001,-4.8001,-4.8001,-4.8001,-4.8001,-4.8001,-4.8001,-4.8001,-4.8001,-4.8001,-4.8001,-4.8001,-4.8001,-4.8001,-4.8001,-4.8001,-4.8001,-4.8001,-4.8001,-4.8001,-4.8001,-4.8001,-4.8001,-4.8001,-4.8001,-4.8001,-4.8001,-4.8001,-4.8001,-4.81,-4.8448,-4.8493,-4.8713,-4.9305,-4.9847,-5.0032,-5.014,-4.9913,-4.9973,-4.9653,-4.8798,-4.8357,-4.7934,-4.7467,-4.7309,-4.7309,-4.7309,-4.7309,-4.7309,-4.7309,-4.7309,-4.7309,-4.7309,-4.7309,-4.7309,-4.7309,-4.7309,-4.7309,-4.7207,-4.7121,-4.7121,-4.7121,-4.6961,-4.6873,-4.6815,-4.6712,-4.658,-4.6491,-4.6358,-4.6386,-4.6397,-4.651,-5.7188,-5.7188,-5.7188,-5.7188,-5.7188,-5.7188,-5.7188,-5.7188,-5.7188,-5.7188,-5.7098,-5.6428,-5.6283,-5.5884,-5.5414,-5.507,-5.4647,-5.3899,-5.3069,-5.26,-5.1911,-5.147,-5.0902,-5.0163,-4.9646,-4.9588,-4.8975,-4.8418,-4.8115,-4.8001,-4.8001,-4.8001,-4.8001,-4.8001,-4.8001,-4.8001,-4.8001,-4.8001,-4.8001,-4.8001,-4.8001,-4.8001,-4.8001,-4.8001,-4.8001,-4.8001,-4.8001,-4.8001,-4.8001,-4.8001,-4.8001,-4.8001,-4.8001,-4.8001,-4.8001,-4.8001,-4.8001,-4.8001,-4.8001,-4.8001,-4.8001,-4.8001,-4.8001,-4.8001,-4.8001,-4.8001,-4.8001,-4.8001,-4.8001,-4.8001,-4.8017,-4.8216,-4.8514,-4.8811,-4.8462,-4.9088,-5.0339,-5.0996,-5.0582,-5.0318,-4.9802,-4.9529,-4.9282,-4.8692,-4.8407,-4.8103,-4.7624,-4.7309,-4.7309,-4.7309,-4.7309,-4.7309,-4.7309,-4.7309,-4.7309,-4.7164,-4.7164,-4.7164,-4.7179,-4.7179,-4.7135,-4.6887,-4.6756,-4.6887,-4.6858,-4.6727,-4.6639,-4.6594,-4.6447,-4.6254,-4.6209,-4.6268,-4.6366,-4.6536,-4.678,-5.7188,-5.7188,-5.7188,-5.7188,-5.7188,-5.7188,-5.7188,-5.7188,-5.7188,-5.7188,-5.717,-5.7043,-5.6554,-5.6138,-5.5939,-5.5504,-5.4919,-5.4128,-5.3489,-5.2934,-5.2052,-5.1238,-5.0867,-4.9985,-4.928,-4.89,-4.8564,-4.823,-4.8066,-4.8001,-4.8001,-4.8001,-4.8001,-4.8001,-4.8001,-4.8001,-4.8001,-4.8001,-4.8001,-4.8001,-4.8001,-4.8001,-4.8001,-4.8001,-4.8001,-4.8001,-4.8001,-4.8001,-4.8001,-4.8001,-4.8001,-4.8001,-4.8001,-4.8001,-4.8001,-4.8001,-4.8001,-4.8001,-4.8001,-4.8001,-4.8001,-4.8001,-4.8001,-4.8001,-4.8001,-4.8001,-4.8001,-4.8017,-4.8034,-4.805,-4.8034,-4.858,-4.8911,-4.9156,-4.9273,-4.9388,-4.9475,-4.9684,-5.0211,-5.0249,-4.9584,-4.8928,-4.8723,-4.8449,-4.7976,-4.7752,-4.751,-4.7309,-4.7309,-4.7309,-4.7309,-4.7309,-4.7309,-4.7309,-4.7309,-4.7077,-4.6975,-4.6931,-4.6902,-4.6815,-4.6727,-4.6476,-4.6388,-4.6565,-4.6624,-4.6535,-4.6447,-4.6358,-4.6358,-4.6239,-4.6223,-4.6175,-4.6508,-4.6855,-4.7448,-5.7188,-5.7188,-5.7188,-5.7188,-5.7188,-5.7188,-5.7188,-5.7188,-5.7188,-5.7188,-5.7188,-5.717,-5.7007,-5.6681,-5.6609,-5.6192,-5.5437,-5.4903,-5.4352,-5.3713,-5.267,-5.1805,-5.1402,-5.0404,-4.9622,-4.9136,-4.8712,-4.8315,-4.8034,-4.8001,-4.8001,-4.8001,-4.8001,-4.8001,-4.8001,-4.8001,-4.8001,-4.8001,-4.8001,-4.8001,-4.8001,-4.8001,-4.8001,-4.8001,-4.8001,-4.8001,-4.8001,-4.8001,-4.8001,-4.8001,-4.8001,-4.8001,-4.8001,-4.8001,-4.8001,-4.8001,-4.8001,-4.8001,-4.8001,-4.8001,-4.8001,-4.8001,-4.8001,-4.8001,-4.8001,-4.8001,-4.8017,-4.81,-4.8448,-4.8564,-4.863,-4.926,-4.9568,-4.9526,-4.9498,-4.9349,-4.9174,-4.8833,-4.9175,-4.9718,-4.9157,-4.8641,-4.8532,-4.8145,-4.751,-4.7309,-4.7309,-4.7309,-4.7309,-4.7309,-4.7309,-4.7309,-4.7266,-4.7222,-4.7164,-4.6975,-4.6844,-4.6756,-4.6653,-4.658,-4.655,-4.6431,-4.6313,-4.6388,-4.6388,-4.6548,-4.6225,-4.6105,-4.615,-4.6268,-4.6162,-4.6216,-4.677,-4.7294,-4.784,-5.7188,-5.7188,-5.7188,-5.7188,-5.7188,-5.7188,-5.7188,-5.7188,-5.7188,-5.7188,-5.7188,-5.7188,-5.7188,-5.717,-5.7098,-5.6808,-5.6186,-5.5808,-5.5107,-5.4304,-5.3165,-5.2415,-5.1836,-5.1176,-5.0191,-4.9161,-4.9028,-4.8713,-4.8133,-4.8001,-4.8001,-4.8001,-4.8001,-4.8001,-4.8001,-4.8001,-4.8001,-4.8001,-4.8001,-4.8001,-4.8001,-4.8001,-4.8001,-4.8001,-4.8001,-4.8001,-4.8001,-4.8001,-4.8001,-4.8001,-4.8001,-4.8001,-4.8001,-4.8001,-4.8001,-4.8001,-4.8001,-4.8001,-4.8001,-4.8001,-4.8001,-4.8001,-4.8001,-4.8001,-4.8001,-4.8034,-4.8084,-4.8299,-4.8663,-4.9177,-4.9359,-4.9988,-5.0169,-4.988,-4.9415,-4.8962,-4.8876,-4.8569,-4.7973,-4.8256,-4.8282,-4.8256,-4.8103,-4.7934,-4.7396,-4.7309,-4.7309,-4.7309,-4.7309,-4.7309,-4.7309,-4.7251,-4.7207,-4.7164,-4.7033,-4.68,-4.6712,-4.6683,-4.6506,-4.6372,-4.6489,-4.6532,-4.6546,-4.6648,-4.6718,-4.6832,-4.6318,-4.5953,-4.6116,-4.6219,-4.6114,-4.6505,-4.7407,-4.7872,-4.829,-5.7188,-5.7188,-5.7188,-5.7188,-5.7188,-5.7188,-5.7188,-5.7188,-5.7188,-5.7188,-5.7188,-5.7188,-5.7188,-5.7188,-5.7188,-5.7116,-5.6787,-5.6037,-5.5347,-5.4686,-5.3207,-5.2173,-5.1395,-5.0593,-5.0242,-4.9491,-4.926,-4.868,-4.8233,-4.8084,-4.8001,-4.8001,-4.8001,-4.8001,-4.8001,-4.8001,-4.8001,-4.8001,-4.8001,-4.8001,-4.8001,-4.8001,-4.8001,-4.8001,-4.8001,-4.8001,-4.8001,-4.8001,-4.8001,-4.8001,-4.8001,-4.8001,-4.8001,-4.8001,-4.8001,-4.8001,-4.8001,-4.8001,-4.8001,-4.8001,-4.8001,-4.8001,-4.8001,-4.8001,-4.8034,-4.8133,-4.8365,-4.8961,-4.916,-4.9508,-5.0104,-5.075,-5.0676,-5.0265,-4.9764,-4.9205,-4.8846,-4.8214,-4.7624,-4.7538,-4.7779,-4.7709,-4.751,-4.7424,-4.7309,-4.7309,-4.7309,-4.7309,-4.7309,-4.7309,-4.7309,-4.7251,-4.7121,-4.7033,-4.6844,-4.6668,-4.6506,-4.6521,-4.6519,-4.6337,-4.6526,-4.6774,-4.7151,-4.725,-4.7259,-4.7071,-4.6621,-4.6374,-4.6301,-4.6446,-4.6664,-4.7419,-4.8348,-4.8638,-4.8696,-5.7188,-5.7188,-5.7188,-5.7188,-5.7188,-5.7188,-5.7188,-5.7188,-5.7188,-5.7188,-5.7188,-5.7188,-5.7188,-5.7188,-5.7188,-5.7188,-5.6971,-5.6169,-5.583,-5.5319,-5.3857,-5.2853,-5.2794,-5.195,-5.1048,-5.032,-4.9872,-4.9375,-4.8746,-4.8199,-4.8001,-4.8001,-4.8001,-4.8001,-4.8001,-4.8001,-4.8001,-4.8001,-4.8001,-4.8001,-4.8001,-4.8001,-4.8001,-4.8001,-4.8001,-4.8001,-4.8001,-4.8001,-4.8001,-4.8001,-4.8001,-4.8001,-4.8001,-4.8001,-4.8001,-4.8001,-4.8001,-4.8001,-4.8001,-4.8001,-4.8001,-4.8001,-4.8001,-4.8001,-4.8084,-4.8398,-4.868,-4.9061,-4.9906,-5.0452,-5.0833,-5.1479,-5.1264,-5.0837,-5.0083,-4.9377,-4.8682,-4.7864,-4.7352,-4.7309,-4.7309,-4.7309,-4.7309,-4.7309,-4.7309,-4.7309,-4.7309,-4.7309,-4.7309,-4.7309,-4.7309,-4.7309,-4.7121,-4.6902,-4.6712,-4.6491,-4.6313,-4.6356,-4.6659,-4.6594,-4.6812,-4.7056,-4.7535,-4.7695,-4.7622,-4.7346,-4.6969,-4.6954,-4.7056,-4.7201,-4.7375,-4.8043,-4.8667,-4.8629,-4.8567,-5.7188,-5.7188,-5.7188,-5.7188,-5.7188,-5.7188,-5.7188,-5.7188,-5.7188,-5.7188,-5.7188,-5.7188,-5.7188,-5.7188,-5.7188,-5.7188,-5.7156,-5.6402,-5.6166,-5.5594,-5.473,-5.376,-5.323,-5.2562,-5.1893,-5.1315,-5.0701,-4.9939,-4.9127,-4.8597,-4.8266,-4.8017,-4.8001,-4.8001,-4.8001,-4.8001,-4.8001,-4.8001,-4.8001,-4.8001,-4.8001,-4.8001,-4.8001,-4.8001,-4.8001,-4.8001,-4.8001,-4.8001,-4.8001,-4.8001,-4.8001,-4.8001,-4.8001,-4.8001,-4.8001,-4.8001,-4.8001,-4.8001,-4.8001,-4.8001,-4.8001,-4.8001,-4.805,-4.81,-4.8415,-4.8845,-4.9458,-4.9756,-5.0485,-5.1183,-5.163,-5.2075,-5.1711,-5.1064,-5.0274,-4.9503,-4.8682,-4.7864,-4.7309,-4.7309,-4.7309,-4.7309,-4.7309,-4.7309,-4.7309,-4.7309,-4.7309,-4.7309,-4.7309,-4.7266,-4.7207,-4.7164,-4.6858,-4.6683,-4.6653,-4.6447,-4.6208,-4.635,-4.6695,-4.7068,-4.7387,-4.7738,-4.8145,-4.8174,-4.813,-4.8246,-4.8261,-4.8029,-4.7825,-4.7927,-4.8072,-4.8377,-4.8692,-4.8635,-4.7949,-5.7188,-5.7188,-5.7188,-5.7188,-5.7188,-5.7188,-5.7188,-5.7188,-5.7188,-5.7188,-5.7188,-5.7188,-5.7188,-5.7188,-5.7188,-5.7188,-5.7163,-5.6855,-5.612,-5.5285,-5.4433,-5.3665,-5.3094,-5.2559,-5.2094,-5.1514,-5.1133,-5.0336,-4.9475,-4.9226,-4.8647,-4.81,-4.8117,-4.805,-4.8001,-4.8001,-4.8001,-4.8001,-4.8001,-4.8001,-4.8001,-4.8001,-4.8001,-4.8001,-4.8001,-4.8001,-4.8001,-4.8001,-4.8001,-4.8001,-4.8001,-4.8001,-4.8001,-4.8001,-4.8001,-4.8001,-4.8001,-4.805,-4.815,-4.8067,-4.8034,-4.8017,-4.8133,-4.8431,-4.8978,-4.9077,-4.9723,-5.075,-5.1265,-5.1663,-5.2061,-5.2269,-5.198,-5.1194,-5.0345,-4.9519,-4.8682,-4.7822,-4.7396,-4.7309,-4.7309,-4.7309,-4.7309,-4.7309,-4.7309,-4.7309,-4.7309,-4.7309,-4.7266,-4.7222,-4.7077,-4.6931,-4.658,-4.6462,-4.6609,-4.6489,-4.6468,-4.6785,-4.7189,-4.7738,-4.8228,-4.858,-4.8783,-4.8986,-4.903,-4.9291,-4.9412,-4.8812,-4.8493,-4.8595,-4.8706,-4.8847,-4.852,-4.8191,-4.7017,-5.7188,-5.7188,-5.7188,-5.7188,-5.7188,-5.7188,-5.7188,-5.7188,-5.7188,-5.7188,-5.717,-5.7188,-5.7188,-5.7188,-5.7188,-5.7188,-5.7112,-5.6537,-5.5936,-5.5238,-5.4433,-5.3615,-5.2991,-5.2572,-5.2243,-5.1912,-5.1547,-5.1183,-5.0551,-5.0005,-4.9723,-4.9243,-4.8531,-4.8084,-4.8001,-4.815,-4.81,-4.8084,-4.805,-4.8017,-4.8001,-4.8001,-4.8001,-4.8001,-4.8001,-4.8001,-4.8001,-4.8001,-4.8001,-4.8001,-4.8001,-4.8001,-4.8001,-4.8001,-4.8034,-4.8067,-4.8084,-4.8282,-4.8531,-4.8365,-4.8199,-4.863,-4.873,-4.8995,-4.9723,-5.0121,-5.0568,-5.1265,-5.1659,-5.2004,-5.2205,-5.2338,-5.2069,-5.1194,-5.0306,-4.9423,-4.8641,-4.7822,-4.7396,-4.7309,-4.7309,-4.7309,-4.7309,-4.7309,-4.7309,-4.7309,-4.7309,-4.7309,-4.7266,-4.7165,-4.7049,-4.6948,-4.6623,-4.6723,-4.6856,-4.6821,-4.6754,-4.7233,-4.7712,-4.8203,-4.8735,-4.9175,-4.9393,-4.9688,-4.9732,-4.9659,-4.9499,-4.9267,-4.9103,-4.9132,-4.9088,-4.9086,-4.8575,-4.774,-4.6347,-5.7188,-5.7188,-5.7188,-5.7188,-5.7188,-5.7188,-5.7188,-5.7188,-5.7188,-5.7025,-5.6844,-5.6844,-5.6844,-5.688,-5.7116,-5.7188,-5.6992,-5.6438,-5.5907,-5.5119,-5.4259,-5.3482,-5.3042,-5.2694,-5.2376,-5.2277,-5.1978,-5.1564,-5.1133,-5.0734,-5.0353,-4.9856,-4.926,-4.8862,-4.8746,-4.8663,-4.8647,-4.8663,-4.8663,-4.8663,-4.8713,-4.873,-4.8746,-4.8779,-4.8812,-4.8614,-4.8514,-4.8415,-4.8233,-4.8117,-4.8001,-4.8001,-4.8001,-4.8034,-4.8117,-4.8249,-4.8415,-4.868,-4.9061,-4.911,-4.8912,-4.9359,-4.9425,-4.9823,-5.0436,-5.1015,-5.1179,-5.1185,-5.1681,-5.1944,-5.1818,-5.138,-5.1215,-5.0384,-4.9757,-4.8953,-4.8532,-4.7864,-4.7553,-4.7309,-4.7309,-4.7309,-4.7309,-4.7324,-4.7311,-4.7339,-4.7309,-4.7309,-4.7266,-4.7195,-4.7036,-4.6963,-4.6828,-4.7045,-4.7289,-4.7282,-4.7332,-4.7825,-4.8275,-4.8609,-4.9103,-4.948,-4.9717,-4.9732,-4.9732,-4.9732,-4.963,-4.947,-4.9543,-4.9659,-4.9479,-4.919,-4.7799,-4.6854,-4.5767,-5.7116,-5.7188,-5.7134,-5.7116,-5.7043,-5.7188,-5.7188,-5.717,-5.7098,-5.6699,-5.6084,-5.6066,-5.612,-5.6301,-5.6862,-5.712,-5.6915,-5.6393,-5.5687,-5.4757,-5.407,-5.323,-5.2729,-5.2445,-5.2409,-5.2409,-5.2227,-5.1895,-5.1431,-5.1365,-5.0949,-5.0618,-5.032,-5.0038,-5.0103,-5.0121,-5.0121,-5.0104,-5.0005,-4.9939,-4.9889,-4.9839,-4.9806,-4.979,-4.979,-4.9491,-4.921,-4.9094,-4.8879,-4.8547,-4.8431,-4.8415,-4.8382,-4.8349,-4.8564,-4.9028,-4.9077,-4.9458,-5.0071,-5.0121,-5.0204,-5.0171,-5.0187,-5.0535,-5.1065,-5.1345,-5.1402,-5.1507,-5.1369,-5.0897,-5.0422,-5.0017,-5.0057,-4.9742,-4.9116,-4.8599,-4.8172,-4.7864,-4.7467,-4.7309,-4.7309,-4.7309,-4.7324,-4.7296,-4.7341,-4.7341,-4.7324,-4.7296,-4.7385,-4.7345,-4.7303,-4.7391,-4.7372,-4.751,-4.7704,-4.7803,-4.7956,-4.8464,-4.8827,-4.9103,-4.9306,-4.9567,-4.9732,-4.9732,-4.9732,-4.9732,-4.9732,-4.9703,-4.9522,-4.9375,-4.9424,-4.8923,-4.742,-4.6018,-4.5034,-5.5685,-5.5667,-5.5685,-5.5667,-5.583,-5.6772,-5.7188,-5.7098,-5.6627,-5.5975,-5.5504,-5.574,-5.5993,-5.6247,-5.6704,-5.6966,-5.6582,-5.6447,-5.5641,-5.4279,-5.3845,-5.323,-5.2659,-5.2409,-5.2409,-5.2409,-5.2376,-5.2343,-5.2042,-5.1962,-5.1945,-5.1678,-5.138,-5.1082,-5.0469,-5.022,-5.0204,-5.0204,-5.0187,-5.0204,-5.0237,-5.027,-5.0303,-5.032,-5.0336,-5.0171,-4.9889,-4.9839,-4.9624,-4.9342,-4.9276,-4.9309,-4.9326,-4.9326,-4.9508,-4.9806,-4.9856,-5.0171,-5.0866,-5.1214,-5.1363,-5.1115,-5.0966,-5.1264,-5.1912,-5.2028,-5.1996,-5.1736,-5.1215,-5.0859,-5.0783,-5.0096,-4.9821,-4.9157,-4.8599,-4.8214,-4.7822,-4.7581,-4.7309,-4.7309,-4.7309,-4.7354,-4.7384,-4.7581,-4.7685,-4.7671,-4.7671,-4.779,-4.7865,-4.7837,-4.7763,-4.7936,-4.8031,-4.8089,-4.8192,-4.8319,-4.858,-4.903,-4.9277,-4.9451,-4.9625,-4.9732,-4.9732,-4.9732,-4.9732,-4.9732,-4.9732,-4.9634,-4.9164,-4.8951,-4.8788,-4.8209,-4.675,-4.5555,-4.4561,-5.4907,-5.4907,-5.4907,-5.4907,-5.5051,-5.5993,-5.6391,-5.6247,-5.5558,-5.4907,-5.4725,-5.5269,-5.5595,-5.5853,-5.6418,-5.674,-5.6239,-5.5744,-5.529,-5.3912,-5.3633,-5.3059,-5.2605,-5.2409,-5.2409,-5.2409,-5.2409,-5.2376,-5.2343,-5.2393,-5.2326,-5.2293,-5.2393,-5.1843,-5.1247,-5.1098,-5.1082,-5.1131,-5.1164,-5.1131,-5.1098,-5.1065,-5.1048,-5.1048,-5.1015,-5.0883,-5.0684,-5.0551,-5.0469,-5.0353,-5.0253,-5.0253,-5.0253,-5.0253,-5.0353,-5.0469,-5.0899,-5.1181,-5.1694,-5.1959,-5.1943,-5.1711,-5.1713,-5.1928,-5.231,-5.231,-5.2076,-5.1729,-5.1177,-5.0631,-5.0229,-4.9583,-4.8913,-4.8256,-4.8088,-4.7694,-4.7624,-4.7352,-4.7309,-4.7309,-4.7369,-4.7414,-4.761,-4.7865,-4.806,-4.806,-4.809,-4.8224,-4.8343,-4.8223,-4.8249,-4.8477,-4.8597,-4.8639,-4.8788,-4.9001,-4.9277,-4.9674,-4.9683,-4.9669,-4.9683,-4.9732,-4.9732,-4.9732,-4.9732,-4.9732,-4.9732,-4.9522,-4.9001,-4.8324,-4.7754,-4.6971,-4.5913,-4.5088,-4.4206,-5.4816,-5.4852,-5.4816,-5.4762,-5.4798,-5.4798,-5.4852,-5.4834,-5.4092,-5.3766,-5.3729,-5.446,-5.4712,-5.4945,-5.5722,-5.597,-5.5783,-5.4852,-5.4259,-5.3764,-5.3281,-5.2781,-5.2551,-5.2409,-5.2409,-5.2409,-5.2409,-5.2409,-5.2409,-5.2409,-5.2409,-5.2409,-5.2409,-5.221,-5.2075,-5.2009,-5.2009,-5.1943,-5.1943,-5.1926,-5.1893,-5.2094,-5.1993,-5.1995,-5.1959,-5.1728,-5.1496,-5.1332,-5.0982,-5.0717,-5.0452,-5.0402,-5.0353,-5.032,-5.075,-5.1264,-5.1926,-5.1806,-5.2029,-5.2073,-5.1948,-5.1605,-5.1885,-5.2197,-5.2393,-5.2373,-5.2178,-5.1508,-5.0783,-4.9837,-4.9035,-4.8324,-4.7666,-4.751,-4.7467,-4.7396,-4.7352,-4.7309,-4.7309,-4.7354,-4.7444,-4.7653,-4.8133,-4.8417,-4.855,-4.8591,-4.8632,-4.8717,-4.8776,-4.8448,-4.8635,-4.9087,-4.9143,-4.9126,-4.9277,-4.9407,-4.9494,-4.9732,-4.9732,-4.9683,-4.9732,-4.9683,-4.9732,-4.9732,-4.9732,-4.9634,-4.9262,-4.905,-4.8802,-4.8007,-4.6712,-4.6189,-4.5302,-4.4724,-4.3945,-5.3186,-5.3186,-5.3186,-5.3186,-5.3186,-5.3204,-5.3494,-5.3947,-5.3766,-5.3422,-5.2896,-5.3253,-5.3523,-5.3458,-5.385,-5.4084,-5.4015,-5.3808,-5.3519,-5.3163,-5.2991,-5.2694,-5.2516,-5.2409,-5.2409,-5.2409,-5.2409,-5.2409,-5.2409,-5.2409,-5.2409,-5.2409,-5.2409,-5.2409,-5.2409,-5.2409,-5.2409,-5.2409,-5.2409,-5.2409,-5.2409,-5.2409,-5.2409,-5.2409,-5.2409,-5.2177,-5.2078,-5.2011,-5.1744,-5.1728,-5.1711,-5.1728,-5.1744,-5.1761,-5.1959,-5.185,-5.1394,-5.0729,-5.1231,-5.0897,-5.0653,-5.0767,-5.0691,-5.1417,-5.1891,-5.2214,-5.2017,-5.1268,-5.0345,-4.9439,-4.8805,-4.813,-4.751,-4.7309,-4.7309,-4.7309,-4.7339,-4.7444,-4.7459,-4.7728,-4.7803,-4.8149,-4.8656,-4.8951,-4.9077,-4.9154,-4.9186,-4.9285,-4.919,-4.8942,-4.8895,-4.9391,-4.9484,-4.9427,-4.9465,-4.9596,-4.964,-4.9732,-4.9732,-4.9683,-4.9683,-4.9683,-4.9683,-4.9683,-4.9571,-4.9114,-4.8489,-4.8324,-4.8324,-4.6608,-4.5302,-4.5047,-4.4724,-4.4152,-4.3725,-5.2498,-5.2498,-5.2498,-5.2498,-5.2457,-5.2251,-5.2444,-5.287,-5.311,-5.2803,-5.2222,-5.2645,-5.2676,-5.2511,-5.2723,-5.2857,-5.2944,-5.2972,-5.2785,-5.2691,-5.2787,-5.2712,-5.2535,-5.2393,-5.2409,-5.2409,-5.2409,-5.2409,-5.2409,-5.2409,-5.2409,-5.2409,-5.2409,-5.2409,-5.2409,-5.2409,-5.2409,-5.2409,-5.2409,-5.2409,-5.2409,-5.2409,-5.2409,-5.2409,-5.2409,-5.2409,-5.2409,-5.2409,-5.2409,-5.2409,-5.2409,-5.2409,-5.2376,-5.2376,-5.2036,-5.1786,-5.1161,-5.0576,-5.0576,-5.0229,-4.99,-4.9765,-4.9726,-5.0329,-5.0821,-5.1086,-5.1102,-5.0821,-4.9939,-4.9141,-4.8708,-4.824,-4.7737,-4.7309,-4.7309,-4.7309,-4.7429,-4.7578,-4.7833,-4.8132,-4.8432,-4.8775,-4.9083,-4.9387,-4.9584,-4.9615,-4.9618,-4.9625,-4.9591,-4.9363,-4.9334,-4.9582,-4.965,-4.9625,-4.9732,-4.9732,-4.9732,-4.9732,-4.9732,-4.9683,-4.962,-4.9198,-4.8852,-4.905,-4.941,-4.8738,-4.7971,-4.7971,-4.7652,-4.5834,-4.4466,-4.4357,-4.4139,-4.3615,-4.324,-5.2475,-5.2387,-5.2387,-5.2364,-5.2428,-5.1884,-5.1662,-5.1669,-5.2323,-5.2162,-5.1837,-5.2222,-5.2121,-5.1771,-5.1691,-5.177,-5.1826,-5.1909,-5.1926,-5.2001,-5.2453,-5.2497,-5.2354,-5.2447,-5.2409,-5.2409,-5.2409,-5.2409,-5.2409,-5.2409,-5.2409,-5.2409,-5.2409,-5.2409,-5.2409,-5.2409,-5.2409,-5.2409,-5.2409,-5.2409,-5.2409,-5.2409,-5.2409,-5.2409,-5.2409,-5.2409,-5.2409,-5.2409,-5.2409,-5.2409,-5.2409,-5.2409,-5.2409,-5.1964,-5.1545,-5.1081,-5.0515,-5.0017,-4.9662,-4.9383,-4.9343,-4.9383,-4.9567,-4.9463,-4.9543,-5.0213,-5.0384,-5.0267,-4.9503,-4.8994,-4.8558,-4.7961,-4.7467,-4.7309,-4.7309,-4.7459,-4.7698,-4.8027,-4.8566,-4.882,-4.9029,-4.9368,-4.9643,-4.9881,-4.9688,-4.9896,-4.9917,-4.9863,-4.98,-4.9645,-4.9659,-4.9766,-4.9717,-4.9732,-4.9732,-4.9732,-4.9732,-4.9732,-4.9634,-4.9375,-4.905,-4.8474,-4.7855,-4.8007,-4.8209,-4.8058,-4.7652,-4.7242,-4.6451,-4.5101,-4.4042,-4.3878,-4.356,-4.3129,-4.303,-5.2228,-5.1768,-5.1312,-5.1626,-5.2364,-5.186,-5.1594,-5.1651,-5.2251,-5.2072,-5.1561,-5.097,-5.0819,-5.0924,-5.027,-5.0254,-5.0623,-5.0888,-5.0836,-5.1211,-5.1731,-5.1878,-5.1818,-5.208,-5.2277,-5.2409,-5.2409,-5.2409,-5.2409,-5.2409,-5.2409,-5.2409,-5.2409,-5.2409,-5.2409,-5.2409,-5.2409,-5.2409,-5.2409,-5.2409,-5.2409,-5.2409,-5.2409,-5.2409,-5.2409,-5.2409,-5.2409,-5.2409,-5.2409,-5.2409,-5.2409,-5.2409,-5.2409,-5.1177,-5.0821,-5.0707,-4.9494,-4.8969,-4.8723,-4.849,-4.8256,-4.8088,-4.8019,-4.7934,-4.824,-4.9222,-4.9623,-4.9423,-4.9157,-4.8764,-4.8366,-4.7737,-4.7309,-4.7309,-4.7399,-4.7698,-4.7997,-4.8656,-4.9299,-4.9567,-4.9728,-4.9883,-5.0153,-5.0092,-4.9925,-4.9839,-4.9786,-4.9732,-4.9732,-4.9703,-4.9688,-4.9732,-4.9732,-4.9732,-4.9732,-4.9732,-4.9732,-4.9424,-4.9277,-4.8902,-4.8489,-4.7754,-4.706,-4.6854,-4.6802,-4.6802,-4.649,-4.5675,-4.4778,-4.3945,-4.3628,-4.3462,-4.3351,-4.303,-4.303,-5.209,-5.1933,-5.1651,-5.1866,-5.2275,-5.1576,-5.1209,-5.1183,-5.1044,-5.0911,-5.084,-5.0432,-5.0181,-5.0067,-4.9243,-4.9137,-4.9647,-4.9921,-5.0197,-5.0507,-5.0827,-5.101,-5.1238,-5.158,-5.1746,-5.1945,-5.2293,-5.2409,-5.2409,-5.2409,-5.2409,-5.2409,-5.2409,-5.2409,-5.2409,-5.2409,-5.2409,-5.2409,-5.2409,-5.2409,-5.2409,-5.2409,-5.2409,-5.2409,-5.2409,-5.2409,-5.2409,-5.2409,-5.2409,-5.2214,-5.2017,-5.1782,-5.1508,-5.0615,-4.9978,-4.9599,-4.8846,-4.7892,-4.7849,-4.7666,-4.7309,-4.7309,-4.7309,-4.7538,-4.7538,-4.8366,-4.8407,-4.8256,-4.8198,-4.7849,-4.7849,-4.7381,-4.7309,-4.7309,-4.7773,-4.8222,-4.882,-4.9523,-5.0077,-5.0465,-5.0426,-5.0171,-5.0305,-5.0003,-4.9834,-4.9786,-4.9732,-4.9732,-4.9732,-4.9732,-4.9732,-4.9732,-4.9732,-4.9732,-4.9732,-4.9732,-4.9732,-4.9375,-4.8966,-4.8223,-4.7587,-4.6905,-4.6333,-4.5913,-4.5701,-4.586,-4.5395,-4.467,-4.4097,-4.3517,-4.3252,-4.3085,-4.2986,-4.2986,-4.3024,-5.2048,-5.2475,-5.2209,-5.2233,-5.2204,-5.1113,-5.0589,-5.0452,-4.9698,-4.9496,-4.989,-5.0331,-4.9896,-4.9406,-4.9001,-4.8987,-4.9108,-4.9436,-4.9678,-4.972,-5.0092,-5.0209,-5.0507,-5.097,-5.1398,-5.1829,-5.2142,-5.2343,-5.2409,-5.2409,-5.2409,-5.2409,-5.2409,-5.2409,-5.2409,-5.2409,-5.2409,-5.2409,-5.2409,-5.2409,-5.2409,-5.2409,-5.2409,-5.2409,-5.2409,-5.2409,-5.2409,-5.2409,-5.2409,-5.2106,-5.1672,-5.1231,-5.0707,-5.0017,-4.9423,-4.8887,-4.8506,-4.7822,-4.7538,-4.7381,-4.7309,-4.7309,-4.7309,-4.7309,-4.7309,-4.7352,-4.7424,-4.7424,-4.7381,-4.7337,-4.7337,-4.7352,-4.7309,-4.7653,-4.8252,-4.8835,-4.9568,-5.0211,-5.0674,-5.1137,-5.0822,-5.0519,-5.0216,-4.9926,-4.9829,-4.9732,-4.9732,-4.9732,-4.9732,-4.9732,-4.9732,-4.9732,-4.9732,-4.9732,-4.9732,-4.9683,-4.9683,-4.9262,-4.8738,-4.7689,-4.658,-4.5595,-4.4913,-4.4765,-4.4657,-4.4752,-4.4711,-4.4193,-4.3615,-4.3141,-4.3085,-4.2986,-4.2986,-4.2999,-4.3074,-5.2387,-5.2387,-5.1008,-5.0911,-5.15,-5.0542,-5.0045,-5.0113,-5.0276,-4.9982,-4.9496,-4.9744,-4.9861,-4.9703,-4.9168,-4.897,-4.8914,-4.9072,-4.875,-4.8625,-4.9227,-4.936,-4.9758,-5.0571,-5.1531,-5.2028,-5.2293,-5.2359,-5.2409,-5.2409,-5.2409,-5.2409,-5.2409,-5.2409,-5.2409,-5.2409,-5.2409,-5.2409,-5.2409,-5.2409,-5.2409,-5.2409,-5.2409,-5.2409,-5.2409,-5.2409,-5.2409,-5.2409,-5.2409,-5.2142,-5.1471,-5.0707,-4.9994,-4.9303,-4.8723,-4.8407,-4.8019,-4.7666,-4.7352,-4.7309,-4.7309,-4.7309,-4.7309,-4.7309,-4.7309,-4.7309,-4.7352,-4.7352,-4.7309,-4.7309,-4.7309,-4.7309,-4.7369,-4.8252,-4.897,-4.9538,-5.0151,-5.0538,-5.0971,-5.0917,-5.0647,-5.0423,-5.0183,-4.9926,-4.9781,-4.9732,-4.9732,-4.9732,-4.9732,-4.9732,-4.9732,-4.9732,-4.9732,-4.9732,-4.9732,-4.9683,-4.962,-4.9149,-4.8195,-4.6632,-4.5222,-4.392,-4.3449,-4.3713,-4.3602,-4.3547,-4.3449,-4.367,-4.3406,-4.303,-4.3042,-4.2986,-4.2986,-4.3037,-4.3124]},{"header":{"parameterUnit":"m.s-1","parameterCategory":1,"la1":31.0,"la2":29.5877,"lo1":-88.7671,"lo2":-86.6584,"dy":0.0162,"dx":0.0185,"nx":115,"ny":88,"refTime":"2024-05-27T18:00:00:Z","depth":0,"parameterNumber":3,"parameterNumberName":"V-component_of_WINDS"},"data":[0.0,0.0,0.0,0.0,0.0,0.0,0.0,0.0,0.0,0.0,0.0,0.0,0.0,0.0,0.0,0.0,0.0,0.0,0.0,0.0,0.0,0.0,0.0,0.0,0.0,0.0,0.0,0.0,0.0,0.0,0.0,0.0,0.0,0.0,0.0,0.0,0.0,0.0,0.0,0.0,0.0,0.0,0.0,0.0,0.0,0.0,0.0,0.0,0.0,0.0,0.0,0.0,0.0,0.0,0.0,0.0,0.0,0.0,0.0,0.0,0.0,0.0,0.0,0.0,0.0,0.0,0.0,0.0,0.0,0.0,0.0,0.0,0.0,0.0,0.0,0.0,0.0,0.0,0.0,0.0,0.0,0.0,0.0,0.0,0.0,0.0,0.0,0.0,0.0,0.0,0.0,0.0,0.0,0.0,0.0,0.0,0.0,0.0,0.0,0.0,0.0,0.0,0.0,0.0,0.0,0.0,0.0,0.0,0.0,0.0,0.0,0.0,0.0,0.0,0.0,0.0,0.0,0.0,0.0,0.0,0.0,0.0,0.0,0.0,0.0,0.0,0.0,0.0,0.0,0.0,0.0,0.0,0.0,0.0,0.0,0.0,0.0,0.0,0.0,0.0,0.0,0.0,0.0,0.0,0.0,0.0,0.0,0.0,0.0,0.0,0.0,0.0,0.0,0.0,0.0,0.0,0.0,0.0,0.0,0.0,0.0,0.0,0.0,0.0,0.0,0.0,0.0,0.0,0.0,0.0,0.0,0.0,0.0,0.0,0.0,0.0,0.0,0.0,0.0,0.0,0.0,0.0,0.0,0.0,0.0,0.0,0.0,0.0,0.0,0.0,0.0,0.0,0.0,0.0,0.0,0.0,0.0,0.0,0.0,0.0,0.0,0.0,0.0,0.0,0.0,0.0,0.0,0.0,0.0,0.0,0.0,0.0,0.0,0.0,0.0,0.0,0.0,0.0,0.0,0.0,0.0,0.0,0.0,0.0,0.0,0.0,0.0,0.0,0.0,0.0,0.0,0.0,0.0,0.0,0.0,0.0,0.0,0.0,0.0,0.0,0.0,0.0,0.0,0.0,0.0,0.0,0.0,0.0,0.0,0.0,0.0,0.0,0.0,0.0,0.0,0.0,0.0,0.0,0.0,0.0,0.0,0.0,0.0,0.0,0.0,0.0,0.0,0.0,0.0,0.0,0.0,0.0,0.0,0.0,0.0,0.0,0.0,0.0,0.0,0.0,0.0,0.0,0.0,0.0,0.0,0.0,0.0,0.0,0.0,0.0,0.0,0.0,0.0,0.0,0.0,0.0,0.0,0.0,0.0,0.0,0.0,0.0,0.0,0.0,0.0,0.0,0.0,0.0,0.0,0.0,0.0,0.0,0.0,0.0,0.0,0.0,0.0,0.0,0.0,0.0,0.0,0.0,0.0,0.0,0.0,0.0,0.0,0.0,0.0,0.0,0.0,0.0,0.0,0.0,0.0,0.0,0.0,0.0,0.0,0.0,0.0,0.0,0.0,0.0,0.0,0.0,0.0,0.0,0.0,0.0,0.0,0.0,0.0,0.0,0.0,0.0,0.0,0.0,0.0,0.0,0.0,0.0,0.0,0.0,0.0,0.0,0.0,0.0,0.0,0.0,0.0,0.0,0.0,0.0,0.0,0.0,0.0,0.0,0.0,0.0,0.0,0.0,0.0,0.0,0.0,0.0,0.0,0.0,0.0,0.0,0.0,0.0,0.0,0.0,0.0,0.0,0.0,0.0,0.0,0.0,0.0,0.0,0.0,0.0,0.0,0.0,0.0,0.0,0.0,0.0,0.0,0.0,0.0,0.0,0.0,0.0,0.0,0.0,0.0,0.0,0.0,0.0,0.0,0.0,0.0,0.0,0.0,0.0,0.0,0.0,0.0,0.0,0.0,0.0,0.0,0.0,0.0,0.0,0.0,0.0,0.0,0.0,0.0,0.0,0.0,0.0,0.0,0.0,0.0,0.0,0.0,0.0,0.0,0.0,0.0,0.0,0.0,0.0,0.0,0.0,0.0,0.0,0.0,0.0,0.0,0.0,0.0,0.0,0.0,0.0,0.0,0.0,0.0,0.0,0.0,0.0,0.0,0.0,0.0,0.0,0.0,0.0,0.0,0.0,0.0,0.0,0.0,0.0,0.0,0.0,0.0,0.0,0.0,0.0,0.0,0.0,0.0,0.0,0.0,0.0,0.0,0.0,0.0,0.0,0.0,0.0,0.0,0.0,0.0,0.0,0.0,0.0,0.0,0.0,0.0,0.0,0.0,0.0,0.0,0.0,0.0,0.0,0.0,0.0,0.0,0.0,0.0,0.0,0.0,0.0,0.0,0.0,0.0,0.0,0.0,0.0,0.0,0.0,0.0,0.0,0.0,0.0,0.0,0.0,0.0,0.0,0.0,0.0,0.0,0.0,0.0,0.0,0.0,0.0,0.0,0.0,0.0,0.0,0.0,0.0,0.0,0.0,0.0,0.0,0.0,0.0,0.0,0.0,0.0,0.0,0.0,0.0,0.0,0.0,0.0,0.0,0.0,0.0,0.0,0.0,0.0,0.0,0.0,0.0,0.0,0.0,0.0,0.0,0.0,0.0,0.0,0.0,0.0,0.0,0.0,0.0,0.0,0.0,0.0,0.0,0.0,0.0,0.0,0.0,0.0,0.0,0.0,0.0,0.0,0.0,0.0,0.0,0.0,0.0,0.0,0.0,0.0,0.0,0.0,0.0,0.0,0.0,0.0,0.0,0.0,0.0,0.0,0.0,0.0,0.0,0.0,0.0,0.0,0.0,0.0,0.0,0.0,0.0,0.0,0.0,0.0,0.0,0.0,0.0,0.0,0.0,0.0,0.0,0.0,0.0,0.0,0.0,0.0,0.0,0.0,0.0,0.0,0.0,0.0,0.0,0.0,0.0,0.0,0.0,0.0,0.0,0.0,0.0,0.0,0.0,0.0,0.0,0.0,0.0,0.0,0.0,0.0,0.0,0.0,0.0,0.0,0.0,0.0,0.0,0.0,0.0,0.0,0.0,0.0,0.0,0.0,0.0,0.0,0.0,0.0,0.0,0.0,0.0,0.0,0.0,0.0,0.0,0.0,0.0,0.0,0.0,0.0,0.0,0.0,0.0,0.0,0.0,0.0,0.0,0.0,0.0,0.0,0.0,0.0,0.0,0.0,0.0,0.0,0.0,0.0,0.0,0.0,0.0,0.0,0.0,0.0,0.0,0.0,0.0,0.0,0.0,0.0,0.0,0.0,0.0,0.0,0.0,0.0,0.0,0.0,0.0,0.0,0.0,0.0,0.0,0.0,0.0,0.0,0.0,0.0,0.0,0.0,0.0,0.0,0.0,0.0,0.0,0.0,0.0,0.0,0.0,0.0,0.0,0.0,0.0,0.0,0.0,0.0,0.0,0.0,0.0,0.0,0.0,0.0,0.0,0.0,0.0,0.0,0.0,0.0,0.0,0.0,0.0,0.0,0.0,0.0,0.0,0.0,0.0,0.0,0.0,0.0,0.0,0.0,0.0,0.0,0.0,0.0,0.0,0.0,0.0,0.0,0.0,0.0,0.0,0.0,0.0,0.0,0.0,0.0,0.0,0.0,0.0,0.0,0.0,0.0,0.0,0.0,0.0,0.0,0.0,0.0,0.0,0.0,0.0,0.0,0.0,0.0,0.0,0.0,0.0,0.0,0.0,0.0,0.0,0.0,0.0,0.0,0.0,0.0,0.0,0.0,0.0,0.0,0.0,0.0,0.0,0.0,0.0,0.0,0.0,0.0,0.0,0.0,0.0,0.0,0.0,0.0,0.0,0.0,0.0,0.0,0.0,0.0,0.0,0.0,0.0,0.0,0.0,0.0,0.0,0.0,0.0,0.0,0.0,0.0,0.0,0.0,0.0,0.0,0.0,0.0,0.0,0.0,0.0,0.0,0.0,0.0,0.0,0.0,0.0,0.0,0.0,0.0,0.0,0.0,0.0,0.0,0.0,0.0,0.0,0.0,0.0,0.0,0.0,0.0,0.0,0.0,0.0,0.0,0.0,0.0,0.0,0.0,0.0,0.0,0.0,0.0,0.0,0.0,0.0,0.0,0.0,0.0,0.0,0.0,0.0,0.0,0.0,0.0,0.0,0.0,0.0,0.0,0.0,0.0,0.0,0.0,0.0,0.0,0.0,0.0,0.0,0.0,0.0,0.0,0.0,0.0,0.0,0.0,0.0,0.0,0.0,0.0,0.0,0.0,0.0,0.0,0.0,0.0,0.0,1.1504,0.0,0.0,0.0,0.0,0.0,0.0,0.0,0.0,0.0,0.0,0.0,0.0,0.0,0.0,0.0,0.0,0.0,0.0,0.0,0.0,0.0,0.0,0.0,0.0,0.0,0.0,0.0,0.0,0.0,0.0,0.0,0.0,0.0,0.0,0.0,0.0,0.0,0.0,0.0,0.0,0.0,0.0,0.0,0.0,0.0,0.0,0.0,0.0,0.0,0.0,0.0,0.0,0.0,0.0,0.0,0.0,0.0,0.0,0.0,0.0,0.0,0.0,0.0,0.0,0.0,0.0,0.0,0.0,0.0,0.0,0.0,0.0,0.0,0.0,0.0,0.0,0.0,0.0,0.0,0.0,0.0,0.0,0.0,0.0,0.0,0.0,0.0,0.0,0.0,0.0,0.0,0.0,0.0,0.0,0.0,0.0,0.0,0.0,0.0,0.0,0.0,0.0,0.0,0.0,0.0,0.0,0.0,0.0,0.0,0.0,1.1316,1.1387,1.147,1.1504,1.1518,0.0,0.0,0.0,0.0,0.0,0.0,0.0,0.0,0.0,0.0,0.0,0.0,0.0,0.0,0.0,0.0,0.0,0.0,0.0,0.0,0.0,0.0,0.0,0.0,0.0,0.0,0.0,0.0,0.0,0.0,0.0,0.0,0.0,0.0,0.0,0.0,0.0,0.0,0.0,0.0,0.0,0.0,0.0,0.0,0.0,0.0,0.0,0.0,0.0,0.0,0.0,0.0,0.0,0.0,0.0,0.0,0.0,0.0,0.0,0.0,0.0,0.0,0.0,0.0,0.0,0.0,0.0,0.0,0.0,0.0,0.0,0.0,0.0,0.0,0.0,0.0,0.0,0.0,0.0,0.0,0.0,0.0,0.0,0.0,0.0,0.0,0.0,0.0,0.0,0.0,0.0,0.0,0.0,0.0,0.0,0.0,0.0,0.0,0.0,0.0,0.0,0.0,0.0,0.0,0.0,0.0,0.0,0.0,0.0,0.0,0.0,0.0,1.182,1.189,1.1954,0.0,0.0,0.0,0.0,0.0,0.0,0.0,0.0,0.0,0.0,0.0,0.0,0.0,0.0,0.0,0.0,0.0,0.0,0.0,0.0,0.0,0.0,0.0,0.0,0.0,0.0,0.0,0.0,0.0,0.0,0.0,0.0,0.0,0.0,0.0,0.0,0.0,0.0,0.0,0.0,0.0,0.0,0.0,0.0,0.0,0.0,0.0,0.0,0.0,0.0,0.0,0.0,0.0,0.0,0.0,0.0,0.0,0.0,0.0,0.0,0.0,0.0,0.0,0.0,0.0,0.0,0.0,0.0,0.0,0.0,0.0,0.0,0.0,0.0,0.0,0.0,0.0,0.0,0.0,0.0,0.0,0.0,0.0,0.0,0.0,0.0,0.0,0.0,0.0,0.0,0.0,0.0,0.0,0.0,0.0,0.0,0.0,0.0,0.0,0.0,0.0,0.0,0.0,0.0,0.0,0.0,0.0,0.0,0.0,0.0,1.1694,1.2905,1.2998,0.0,1.3263,0.0,0.0,0.0,0.0,0.0,0.0,0.0,0.0,0.0,0.0,0.0,0.0,0.0,0.0,0.0,0.0,0.0,0.0,0.0,0.0,0.0,0.0,0.0,0.0,0.0,0.0,0.0,0.0,0.0,0.0,0.0,0.0,0.0,0.0,0.0,0.0,0.0,0.0,0.0,0.0,0.0,0.0,0.0,0.0,0.0,0.0,0.0,0.0,0.0,0.0,0.0,0.0,0.0,0.0,0.0,0.0,0.0,0.0,0.0,0.0,0.0,0.0,0.0,0.0,0.0,0.0,0.0,0.0,0.0,0.0,0.0,0.0,0.0,0.0,0.0,0.0,0.0,0.0,0.0,0.0,0.0,0.0,0.0,0.0,0.0,0.0,0.0,0.0,0.0,0.0,0.0,0.0,0.0,0.0,0.0,0.0,0.0,0.0,0.0,0.0,0.0,0.0,0.0,0.0,0.0,0.0,0.0,0.0,0.0,0.0,1.2303,1.2844,1.2968,1.3049,0.0,0.0,0.0,0.0,0.0,0.0,0.0,0.0,0.0,0.0,0.0,0.0,0.0,0.0,0.0,0.0,0.0,0.0,0.0,0.0,0.0,0.0,0.0,0.0,0.0,0.0,0.0,0.0,0.0,0.0,0.0,0.0,0.0,0.0,0.0,0.0,0.0,0.0,0.0,0.0,0.0,0.0,0.0,0.0,0.0,0.0,0.0,0.0,0.0,0.0,0.0,0.0,0.0,0.0,0.0,0.0,0.0,0.0,0.0,0.0,0.0,0.0,0.0,0.0,0.0,0.0,0.0,0.0,0.0,0.0,0.0,0.0,0.0,0.0,0.0,0.0,0.0,0.0,0.0,0.0,0.0,0.0,0.0,0.0,0.0,0.0,0.0,0.0,0.0,0.0,0.0,0.0,0.0,0.0,0.0,0.0,0.0,0.0,0.0,0.0,0.0,0.0,0.0,0.0,0.0,0.0,0.0,0.0,0.0,0.0,1.2362,1.2885,1.3202,1.3345,1.3263,1.294,0.0,0.0,0.0,0.0,0.0,0.0,0.0,0.0,0.0,0.0,0.0,0.0,0.0,0.0,0.0,0.0,0.0,0.0,0.0,0.0,0.0,0.0,0.0,0.0,0.0,0.0,0.0,0.0,0.0,0.0,0.0,0.0,0.0,0.0,0.0,0.0,0.0,0.0,0.0,0.0,0.0,0.0,0.0,0.0,0.0,0.0,0.0,0.0,0.0,0.0,0.0,0.0,0.0,0.0,0.0,0.0,0.0,0.0,0.0,0.0,0.0,0.0,0.0,0.0,0.0,0.0,0.0,0.0,0.0,0.0,0.0,0.0,0.0,0.0,0.0,0.0,0.0,0.0,0.0,0.0,0.0,0.0,0.0,0.0,0.0,0.0,0.0,0.0,0.0,0.0,0.0,0.0,0.0,0.0,0.0,0.0,0.0,0.0,0.0,0.0,0.0,0.0,0.0,0.0,0.0,0.0,0.0,0.0,1.3936,1.3169,1.3285,1.4464,1.4646,1.4163,0.0,0.0,0.0,0.0,0.0,0.0,0.0,0.0,0.0,0.0,0.0,0.0,0.0,0.0,0.0,0.0,0.0,0.0,0.0,0.0,0.0,0.0,0.0,0.0,0.0,0.0,0.0,0.0,0.0,0.0,0.0,0.0,0.0,0.0,0.0,0.0,0.0,0.0,0.0,0.0,0.0,0.0,0.0,0.0,0.0,0.0,0.0,0.0,0.0,0.0,0.0,0.0,0.0,0.0,0.0,0.0,0.0,0.0,0.0,0.0,0.0,0.0,0.0,0.0,0.0,0.0,0.0,0.0,0.0,0.0,0.0,0.0,0.0,0.0,0.0,0.0,0.0,0.0,0.0,0.0,0.0,0.0,0.0,0.0,0.0,0.0,0.0,0.0,0.0,0.0,0.0,0.0,0.0,0.0,0.0,0.0,0.0,0.0,0.0,0.0,0.0,0.0,0.0,0.0,0.0,0.0,0.0,0.0,0.0,1.1967,1.2374,1.3533,1.5421,1.4116,1.3489,0.0,0.0,0.0,0.0,0.0,0.0,0.0,0.0,0.0,0.0,0.0,0.0,0.0,0.0,0.0,0.0,0.0,0.0,0.0,0.0,0.0,0.0,0.0,0.0,0.0,0.0,0.0,0.0,0.0,0.0,0.0,0.0,0.0,0.0,0.0,0.0,0.0,0.0,0.0,0.0,0.0,0.0,0.0,0.0,0.0,0.0,0.0,0.0,0.0,0.0,0.0,0.0,0.0,0.0,0.0,0.0,0.0,0.0,0.0,0.0,0.0,0.0,0.0,0.0,0.0,0.0,0.0,0.0,0.0,0.0,0.0,0.0,0.0,0.0,0.0,0.0,0.0,0.0,0.0,0.0,0.0,0.0,0.0,0.0,0.0,0.0,0.0,0.0,0.0,0.0,0.0,0.0,0.0,0.0,0.0,0.0,0.0,0.0,0.0,0.0,0.0,0.0,0.0,0.0,0.0,0.0,0.0,0.0,0.0,1.1872,0.0,1.427,0.0,1.3932,1.3091,0.0,0.0,0.0,0.0,0.0,0.0,0.0,0.0,0.0,0.0,0.0,0.0,0.0,0.0,0.0,0.0,0.0,0.0,0.0,0.0,0.0,0.0,0.0,0.0,0.0,0.0,0.0,0.0,0.0,0.0,0.0,0.0,0.0,0.0,0.0,0.0,0.0,0.0,0.0,0.0,0.0,0.0,0.0,0.0,0.0,0.0,0.0,0.0,0.0,0.0,0.0,0.0,0.0,0.0,0.0,0.0,0.0,0.0,0.0,0.0,0.0,0.0,0.0,0.0,0.0,0.0,0.0,0.0,0.0,0.0,0.0,0.0,0.0,0.0,0.0,0.0,0.0,0.0,0.0,0.0,0.0,0.0,0.0,0.0,0.0,0.0,0.0,0.0,0.0,0.0,0.0,0.0,0.0,0.0,0.0,0.0,0.0,0.0,0.0,0.0,0.0,0.0,0.0,0.0,0.0,0.0,0.0,0.0,1.1912,1.4164,1.5341,1.5422,1.4379,1.4287,1.3174,0.0,0.0,0.0,0.0,0.0,0.0,0.0,0.0,0.0,0.0,0.0,0.0,0.0,0.0,0.0,0.0,0.0,0.0,0.0,0.0,0.0,0.0,0.0,0.0,0.0,0.0,0.0,0.0,0.0,0.0,0.0,0.0,0.0,0.0,0.0,0.0,0.0,0.0,0.0,0.0,0.0,0.0,0.0,0.0,0.0,0.0,0.0,0.0,0.0,0.0,0.0,0.0,0.0,0.0,0.0,0.0,0.0,0.0,0.0,0.0,0.0,0.0,0.0,0.0,0.0,0.0,0.0,0.0,0.0,0.0,0.0,0.0,0.0,0.0,0.0,0.0,0.0,0.0,0.0,0.0,0.0,0.0,0.0,0.0,0.0,0.0,0.0,0.0,0.0,0.0,0.0,0.0,0.0,0.0,0.0,0.0,0.0,0.0,0.0,0.0,0.0,0.0,0.0,0.0,0.0,0.0,0.0,0.0,0.0,1.3351,1.4335,1.5173,1.5726,1.4429,1.373,0.0,0.0,0.0,0.0,0.0,0.0,0.0,0.0,0.0,0.0,0.0,0.0,0.0,0.0,0.0,0.0,0.0,0.0,0.0,0.0,0.0,0.0,0.0,0.0,0.0,0.0,0.0,0.0,0.0,0.0,0.0,0.0,0.0,0.0,0.0,0.0,0.0,0.0,0.0,0.0,0.0,0.0,0.0,0.0,0.0,0.0,0.0,0.0,0.0,0.0,0.0,0.0,0.0,0.0,0.0,0.0,0.0,0.0,0.0,0.0,0.0,0.0,0.0,0.0,0.0,0.0,0.0,0.0,0.0,0.0,0.0,0.0,0.0,0.0,0.0,0.0,0.0,0.0,0.0,0.0,0.0,0.0,0.0,0.0,0.0,0.0,0.0,0.0,0.0,0.0,0.0,0.0,0.0,0.0,0.0,0.0,0.0,0.0,0.0,0.0,0.0,0.0,0.0,0.0,0.0,0.0,0.0,0.0,0.0,1.5591,1.6048,1.6634,1.733,1.5663,1.468,1.449,0.0,0.0,0.0,0.0,0.0,0.0,0.0,0.0,0.0,0.0,0.0,0.0,0.0,0.0,0.0,0.0,0.0,0.0,0.0,0.0,0.0,0.0,0.0,0.0,0.0,0.0,0.0,0.0,0.0,0.0,0.0,0.0,0.0,0.0,0.0,0.0,0.0,0.0,0.0,0.0,0.0,0.0,0.0,0.0,0.0,0.0,0.0,0.0,0.0,0.0,0.0,0.0,0.0,0.0,0.0,0.0,0.0,0.0,0.0,0.0,0.0,0.0,0.0,0.0,0.0,0.0,0.0,0.0,0.0,0.0,0.0,0.0,0.0,0.0,0.0,0.0,0.0,0.0,0.0,0.0,0.0,0.0,0.0,0.0,0.0,0.0,0.0,0.0,0.0,0.0,0.0,0.0,0.0,0.0,0.0,0.0,0.0,0.0,0.0,0.0,0.0,0.0,0.0,0.0,0.0,0.0,0.0,0.0,2.0157,2.0113,1.9768,1.9049,1.7841,1.6064,0.0,0.0,0.0,0.0,0.0,0.0,0.0,0.0,0.0,0.0,0.0,0.0,0.0,0.0,0.0,0.0,0.0,0.0,0.0,0.0,0.0,0.0,0.0,0.0,0.0,0.0,0.0,0.0,0.0,0.0,0.0,0.0,0.0,0.0,0.0,0.0,0.0,0.0,0.0,0.0,0.0,0.0,0.0,0.0,0.0,0.0,0.0,0.0,0.0,0.0,0.0,0.0,0.0,0.0,0.0,0.0,0.0,0.0,0.0,0.0,0.0,0.0,0.0,0.0,0.0,0.0,0.0,0.0,0.0,0.0,0.0,0.0,0.0,0.0,0.0,0.0,0.0,0.0,0.0,0.0,0.0,0.0,0.0,0.0,0.0,0.0,0.0,0.0,0.0,0.0,0.0,0.0,0.0,0.0,0.0,0.0,0.0,0.0,0.0,0.0,0.0,0.0,0.0,0.0,0.0,0.0,0.0,0.0,0.0,2.2378,2.4078,2.3892,2.1736,2.0321,1.8472,0.0,0.0,0.0,0.0,0.0,0.0,0.0,0.0,0.0,0.0,0.0,0.0,0.0,0.0,0.0,0.0,0.0,0.0,0.0,0.0,0.0,0.0,0.0,0.0,0.0,0.0,0.0,0.0,0.0,0.0,0.0,0.0,0.0,0.0,0.0,0.0,0.0,0.0,0.0,0.0,0.0,0.0,0.0,0.0,0.0,0.0,0.0,0.0,0.0,0.0,0.0,0.0,0.0,0.0,0.0,0.0,0.0,0.0,0.0,0.0,0.0,0.0,0.0,0.0,0.0,0.0,0.0,0.0,0.0,0.0,0.0,0.0,0.0,0.0,0.0,0.0,0.0,0.0,0.0,0.0,0.0,0.0,0.0,0.0,0.0,0.0,0.0,0.0,0.0,0.0,0.0,0.0,0.0,0.0,0.0,0.0,0.0,0.0,0.0,0.0,0.0,0.0,0.0,0.0,0.0,0.0,0.0,0.0,2.1628,2.3977,2.7086,2.7566,2.5236,2.3125,2.0667,0.0,0.0,0.0,0.0,0.0,0.0,0.0,0.0,0.0,0.0,0.0,0.0,0.0,0.0,0.0,0.0,0.0,0.0,0.0,0.0,0.0,0.0,0.0,0.0,0.0,0.0,0.0,0.0,0.0,0.0,0.0,0.0,0.0,0.0,0.0,0.0,0.0,0.0,0.0,0.0,0.0,0.0,0.0,0.0,0.0,0.0,0.0,0.0,0.0,0.0,0.0,0.0,0.0,0.0,0.0,0.0,0.0,0.0,0.0,0.0,0.0,0.0,0.0,0.0,0.0,0.0,0.0,0.0,0.0,0.0,0.0,0.0,0.0,0.0,0.0,0.0,0.0,0.0,0.0,0.0,0.0,0.0,0.0,0.0,0.0,0.0,0.0,0.0,0.0,0.0,0.0,0.0,0.0,0.0,0.0,0.0,0.0,0.0,0.0,0.0,0.0,0.0,0.0,0.0,0.0,0.0,0.0,0.0,2.3289,2.517,2.9167,3.0532,2.8881,2.5904,2.2644,0.0,0.0,0.0,0.0,0.0,0.0,0.0,0.0,0.0,0.0,0.0,0.0,0.0,0.0,0.0,0.0,0.0,0.0,0.0,0.0,0.0,0.0,0.0,0.0,0.0,0.0,0.0,0.0,0.0,0.0,0.0,0.0,0.0,0.0,0.0,0.0,0.0,0.0,0.0,0.0,0.0,0.0,0.0,0.0,0.0,0.0,0.0,0.0,0.0,0.0,0.0,0.0,0.0,0.0,0.0,0.0,0.0,0.0,0.0,0.0,0.0,0.0,0.0,0.0,0.0,0.0,0.0,0.0,0.0,0.0,0.0,0.0,0.0,0.0,0.0,0.0,0.0,0.0,0.0,0.0,0.0,0.0,0.0,0.0,0.0,0.0,0.0,0.0,0.0,0.0,0.0,0.0,0.0,0.0,0.0,0.0,0.0,0.0,0.0,0.0,0.0,0.0,0.0,0.0,0.0,0.0,0.0,0.0,2.3927,2.6459,2.9609,3.1059,3.0732,2.7344,2.4055,0.0,0.0,0.0,0.0,0.0,0.0,0.0,0.0,0.0,0.0,0.0,0.0,0.0,0.0,0.0,0.0,0.0,0.0,0.0,0.0,0.0,0.0,0.0,0.0,0.0,0.0,0.0,0.0,0.0,0.0,0.0,0.0,0.0,0.0,0.0,0.0,0.0,0.0,0.0,0.0,0.0,0.0,0.0,0.0,0.0,0.0,0.0,0.0,1.5654,0.0,0.0,0.0,0.0,0.0,0.0,0.0,0.0,0.0,0.0,0.0,0.0,0.0,0.0,0.0,0.0,0.0,0.0,0.0,0.0,0.0,0.0,0.0,0.0,0.0,0.0,0.0,0.0,0.0,0.0,0.0,0.0,0.0,0.0,0.0,0.0,0.0,0.0,0.0,0.0,0.0,0.0,0.0,0.0,0.0,0.0,0.0,0.0,0.0,0.0,0.0,0.0,0.0,0.0,0.0,0.0,0.0,0.0,0.0,2.4117,2.6497,2.9393,3.0815,3.0472,2.8076,2.5331,0.0,0.0,0.0,0.0,0.0,0.0,0.0,0.0,0.0,0.0,0.0,0.0,0.0,0.0,0.0,0.0,0.0,0.0,0.0,0.0,0.0,0.0,0.0,0.0,0.0,0.0,0.0,0.0,0.0,0.0,0.0,0.0,0.0,0.0,0.0,0.0,0.0,0.0,0.0,0.0,0.0,0.0,0.0,0.0,0.0,0.0,0.0,0.0,0.0,0.0,0.0,0.0,0.0,0.0,0.0,0.0,0.0,0.0,0.0,0.0,0.0,0.0,0.0,0.0,0.0,0.0,0.0,0.0,0.0,0.0,0.0,0.0,0.0,0.0,0.0,0.0,0.0,0.0,0.0,0.0,0.0,0.0,0.0,0.0,0.0,0.0,0.0,0.0,0.0,0.0,0.0,0.0,0.0,0.0,0.0,0.0,0.0,0.0,0.0,0.0,0.0,0.0,0.0,0.0,0.0,0.0,0.0,2.1384,2.4068,2.6518,2.9113,3.0355,3.005,2.8537,2.6359,2.3581,0.0,0.0,0.0,0.0,0.0,0.0,0.0,0.0,0.0,0.0,0.0,0.0,0.0,0.0,0.0,0.0,0.0,0.0,0.0,0.0,0.0,0.0,0.0,0.0,0.0,0.0,0.0,0.0,0.0,0.0,0.0,0.0,0.0,0.0,0.0,0.0,0.0,0.0,1.3443,1.5446,0.0,0.0,0.0,0.0,0.0,0.0,0.0,0.0,1.6863,0.0,0.0,0.0,0.0,0.0,0.0,0.0,0.0,0.0,0.0,0.0,0.0,0.0,0.0,0.0,0.0,0.0,0.0,0.0,0.0,0.0,0.0,0.0,0.0,0.0,0.0,0.0,0.0,0.0,0.0,0.0,0.0,0.0,0.0,0.0,0.0,0.0,0.0,0.0,0.0,0.0,0.0,0.0,0.0,0.0,0.0,0.0,0.0,0.0,0.0,0.0,0.0,0.0,0.0,0.0,0.0,2.0418,2.1033,2.3591,2.8313,2.9353,3.0469,3.1636,2.9133,2.6769,2.4679,0.0,0.0,0.0,0.0,0.0,0.0,0.0,0.0,0.0,0.0,0.0,0.0,0.0,0.0,0.0,0.0,0.0,0.0,0.0,0.0,0.0,0.0,0.0,0.0,0.0,0.0,0.0,0.0,0.0,0.0,0.0,0.0,0.0,0.0,0.0,0.0,0.0,0.0,0.0,1.7775,1.8574,0.0,0.0,0.0,0.0,0.0,0.0,0.0,0.0,1.7702,0.0,0.0,0.0,0.0,0.0,0.0,0.0,0.0,0.0,0.0,0.0,0.0,0.0,0.0,0.0,0.0,0.0,0.0,0.0,0.0,0.0,0.0,0.0,0.0,0.0,0.0,0.0,0.0,0.0,0.0,0.0,0.0,0.0,0.0,0.0,0.0,0.0,0.0,0.0,0.0,0.0,0.0,0.0,0.0,0.0,0.0,0.0,0.0,0.0,0.0,0.0,0.0,0.0,0.0,0.0,2.0076,2.159,2.4001,2.7542,2.8636,2.955,3.029,2.8232,2.6344,0.0,0.0,0.0,0.0,0.0,0.0,0.0,0.0,0.0,0.0,0.0,0.0,0.0,0.0,0.0,0.0,0.0,0.0,0.0,0.0,0.0,0.0,0.0,0.0,0.0,0.0,0.0,0.0,0.0,0.0,0.0,0.0,0.0,0.0,0.0,0.0,0.0,0.0,0.0,0.0,1.896,2.0302,2.113,0.0,0.0,0.0,0.0,0.0,0.0,1.8698,1.8196,0.0,0.0,0.0,0.0,0.0,0.0,0.0,0.0,0.0,0.0,0.0,0.0,0.0,0.0,0.0,0.0,0.0,0.0,0.0,0.0,0.0,0.0,0.0,0.0,0.0,0.0,0.0,0.0,0.0,0.0,0.0,0.0,0.0,0.0,0.0,0.0,0.0,0.0,0.0,0.0,0.0,0.0,0.0,0.0,0.0,0.0,0.0,0.0,0.0,0.0,0.0,0.0,0.0,0.0,0.0,1.9455,2.1912,2.4279,2.6599,2.8016,2.8785,2.8971,2.7361,2.5815,0.0,0.0,0.0,0.0,0.0,0.0,0.0,0.0,0.0,0.0,0.0,0.0,0.0,0.0,0.0,0.0,0.0,0.0,0.0,0.0,0.0,0.0,0.0,0.0,0.0,0.0,0.0,0.0,0.0,0.0,0.0,0.0,0.0,0.0,0.0,0.0,0.0,0.0,0.0,0.0,0.0,2.1789,2.2644,2.1816,0.0,0.0,0.0,0.0,1.9672,1.9934,0.0,0.0,0.0,0.0,0.0,0.0,0.0,0.0,0.0,0.0,0.0,0.0,0.0,0.0,0.0,0.0,0.0,0.0,0.0,0.0,0.0,0.0,0.0,0.0,0.0,0.0,0.0,0.0,0.0,0.0,0.0,0.0,0.0,0.0,0.0,0.0,0.0,0.0,0.0,0.0,0.0,0.0,0.0,0.0,0.0,0.0,0.0,0.0,0.0,0.0,0.0,0.0,0.0,0.0,0.0,0.0,1.9127,2.096,2.3623,2.7221,2.8243,2.9149,3.0037,2.7655,2.5525,0.0,0.0,0.0,0.0,0.0,0.0,0.0,0.0,0.0,0.0,0.0,0.0,0.0,0.0,0.0,0.0,0.0,0.0,0.0,0.0,0.0,0.0,0.0,0.0,0.0,0.0,0.0,0.0,0.0,0.0,0.0,0.0,0.0,0.0,0.0,0.0,0.0,0.0,0.0,0.0,0.0,2.2488,2.2908,2.1885,2.1464,0.0,0.0,2.2846,2.4328,2.5032,0.0,0.0,0.0,0.0,0.0,0.0,0.0,0.0,0.0,0.0,0.0,0.0,0.0,0.0,0.0,0.0,0.0,0.0,0.0,0.0,0.0,0.0,0.0,0.0,0.0,0.0,0.0,0.0,0.0,0.0,0.0,0.0,0.0,0.0,0.0,0.0,0.0,0.0,0.0,0.0,0.0,0.0,0.0,0.0,0.0,0.0,0.0,0.0,0.0,0.0,0.0,0.0,0.0,0.0,0.0,1.6022,1.9165,2.186,2.4316,2.6521,2.7435,2.8068,2.8505,2.5862,2.388,0.0,0.0,0.0,0.0,0.0,0.0,0.0,0.0,0.0,0.0,0.0,0.0,0.0,0.0,0.0,0.0,0.0,0.0,0.0,0.0,0.0,0.0,0.0,0.0,0.0,0.0,0.0,0.0,0.0,0.0,0.0,0.0,0.0,0.0,0.0,0.0,0.0,0.0,0.0,0.0,0.0,0.0,2.425,2.4156,0.0,0.0,0.0,2.3786,2.4091,0.0,0.0,0.0,0.0,0.0,0.0,0.0,0.0,0.0,0.0,0.0,0.0,0.0,0.0,0.0,0.0,0.0,0.0,0.0,0.0,0.0,0.0,0.0,0.0,0.0,0.0,0.0,0.0,0.0,0.0,0.0,0.0,0.0,0.0,0.0,0.0,0.0,0.0,0.0,0.0,0.0,0.0,0.0,0.0,0.0,0.0,0.0,0.0,0.0,0.0,0.0,0.0,0.0,0.0,0.0,0.0,0.0,1.9233,2.2705,2.4945,2.581,2.6745,2.7174,2.7145,2.4727,0.0,0.0,0.0,0.0,0.0,0.0,0.0,0.0,0.0,0.0,0.0,0.0,0.0,0.0,0.0,0.0,0.0,0.0,0.0,0.0,0.0,0.0,0.0,0.0,0.0,0.0,0.0,0.7467,0.0,0.0,0.0,0.0,0.0,0.0,0.0,0.0,0.0,0.0,0.0,0.0,0.0,0.0,2.5668,2.5698,2.6239,2.6804,0.0,0.0,2.4901,2.4765,2.5954,2.5712,0.0,0.0,0.0,0.0,0.0,0.0,0.0,0.0,0.0,0.0,0.0,0.0,0.0,0.0,0.0,0.0,0.0,0.0,0.0,0.0,0.0,0.0,0.0,0.0,0.0,0.0,0.0,0.0,0.0,0.0,0.0,0.0,0.0,0.0,0.0,0.0,0.0,0.0,0.0,0.0,0.0,0.0,0.0,0.0,0.0,0.0,0.0,0.0,0.0,0.0,0.0,0.0,0.0,0.0,1.6585,1.9399,2.2767,2.4864,2.56,2.6652,2.7174,2.7168,2.5358,2.3362,0.0,0.0,0.0,0.0,0.0,0.0,0.0,0.0,0.0,0.0,0.0,0.0,0.0,0.0,0.0,0.0,0.0,0.0,0.0,0.0,0.0,0.0,0.0,0.0,0.0,0.0,0.0,0.0,0.0,0.0,0.0,0.0,0.0,0.0,0.0,0.0,0.0,0.0,0.0,0.0,0.0,2.5963,2.6941,2.7154,2.7978,0.0,2.8271,2.7234,2.866,3.0403,2.9882,2.4692,0.0,0.0,0.0,0.0,0.0,0.0,0.0,0.0,0.0,0.0,0.0,0.0,0.0,0.0,0.0,0.0,0.0,0.0,0.0,0.0,0.0,0.0,0.0,0.0,0.0,0.0,0.0,0.0,0.0,0.0,0.0,0.0,0.0,0.0,0.0,0.0,0.0,0.0,0.0,0.0,0.0,0.0,0.0,0.0,0.0,0.0,0.0,0.0,0.0,0.0,0.0,0.0,0.0,1.6464,1.888,2.2295,2.4489,2.5326,2.5737,2.6041,2.6207,2.484,2.3042,0.0,0.0,0.0,0.0,0.0,0.0,0.0,0.0,0.0,0.0,0.0,0.0,0.0,0.0,0.0,0.0,0.0,0.0,0.0,0.0,0.0,0.0,0.0,0.0,0.0,0.0,0.0,0.0,1.0729,1.132,1.1411,0.0,0.0,0.0,0.0,0.0,0.0,0.0,0.0,0.0,0.0,2.6553,2.8302,2.8597,0.0,0.0,2.9468,2.8445,2.8716,2.8973,2.7848,2.4041,2.2395,0.0,0.0,0.0,0.0,0.0,0.0,0.0,0.0,0.0,0.0,0.0,0.0,0.0,0.0,0.0,0.0,0.0,0.0,0.0,0.0,0.0,0.0,0.0,0.0,0.0,0.0,0.0,0.0,0.0,0.0,0.0,0.0,0.0,0.0,0.0,0.0,0.0,0.0,0.0,0.0,0.0,0.0,0.0,0.0,0.0,0.0,0.0,0.0,0.0,0.0,0.0,0.0,1.6417,1.8479,2.2129,2.4361,2.5105,2.5158,2.5285,2.5453,2.428,2.2741,0.0,0.0,0.0,0.0,0.0,0.0,0.0,0.0,0.0,0.0,0.0,0.0,0.0,0.0,0.0,0.0,0.0,0.0,0.0,0.0,0.0,0.0,0.0,0.0,0.0,0.0,0.0,0.0,1.1683,1.219,1.1784,0.0,0.0,0.0,0.0,0.0,0.0,0.0,0.0,0.0,0.0,2.7486,2.9159,2.9438,2.9779,3.0655,2.9413,2.8355,2.8272,2.7872,2.6693,2.4145,0.0,0.0,0.0,0.0,0.0,0.0,0.0,0.0,0.0,0.0,0.0,0.0,0.0,0.0,0.0,0.0,0.0,0.0,0.0,0.0,0.0,0.0,0.0,0.0,0.0,0.0,0.0,0.6372,0.0,0.0,0.6006,0.0,0.0,0.0,0.0,0.0,0.0,0.0,0.0,0.0,0.0,0.0,0.0,0.0,0.0,0.0,0.0,0.0,0.0,0.0,0.0,0.0,0.0,1.6485,1.8313,2.2376,2.4618,2.4882,2.5115,2.5211,2.5158,2.3906,2.2583,2.1175,0.0,0.0,0.0,0.0,0.0,0.0,0.0,0.0,0.0,0.0,0.0,0.0,0.0,0.0,0.0,0.0,0.0,0.0,0.0,0.0,0.0,0.0,0.0,0.0,0.0,0.0,0.9734,1.0508,1.1157,0.0,0.0,0.0,0.0,0.0,0.0,0.0,0.0,0.0,2.2057,2.5932,2.8784,2.931,2.9342,2.9518,3.0111,2.8011,2.6719,2.7781,2.8049,2.7548,0.0,0.0,0.0,0.0,0.0,0.0,0.0,0.0,0.0,0.0,0.0,0.0,0.0,0.0,0.0,0.0,0.0,0.0,0.0,0.0,0.0,0.0,0.0,0.0,0.0,0.0,0.0,0.8301,0.8076,0.0,0.0,0.0,0.0,0.0,0.0,0.0,0.0,0.0,0.0,0.0,1.5018,1.508,0.0,0.0,0.0,0.0,0.0,0.0,0.0,0.0,0.0,0.0,0.0,0.0,1.6342,1.7901,2.2206,2.4565,2.4615,2.5003,2.5143,2.4988,2.474,2.3178,2.0137,0.0,0.0,0.0,0.0,0.0,0.0,0.0,0.0,0.0,0.0,0.0,0.0,0.0,0.0,0.0,0.0,0.0,0.0,0.0,0.0,0.0,0.0,0.0,0.0,0.0,1.1967,0.0,0.0,0.0,0.0,0.0,0.0,0.0,0.0,0.0,0.0,0.0,2.1419,2.4137,2.5709,2.7188,2.889,2.8978,2.9467,0.0,0.0,0.0,0.0,0.0,0.0,0.0,0.0,0.0,0.0,0.0,0.0,0.0,0.0,2.9125,2.3359,2.2408,2.254,2.2586,0.0,0.0,0.0,0.0,0.0,0.0,0.0,0.0,0.0,0.0,0.0,0.0,0.0,0.0,1.0053,0.9727,0.9784,0.0,0.0,0.0,0.0,0.0,0.0,0.0,0.0,1.4241,1.5704,1.6881,1.6859,1.7033,0.0,1.6485,1.4641,0.0,0.0,0.0,0.0,0.0,0.0,0.0,0.0,1.6768,1.8133,2.2463,2.4745,2.4745,2.5034,2.5132,2.5016,2.4654,2.3217,2.0523,1.8354,1.6372,0.0,0.0,0.0,0.0,0.0,0.0,0.0,0.0,0.0,0.0,0.0,0.0,0.0,0.0,0.0,0.0,0.0,0.0,0.0,0.0,0.0,0.0,0.0,1.2828,0.0,0.0,0.0,0.0,0.0,0.0,0.0,0.0,0.0,2.0014,2.1521,2.3531,2.6033,2.6871,2.7554,2.8479,0.0,0.0,0.0,0.0,0.0,0.0,0.0,2.6934,2.6346,2.6578,2.7003,2.7637,3.0375,3.1884,3.0051,0.0,0.0,2.7499,2.658,2.6721,2.6821,2.748,2.7994,2.7812,2.8887,2.98,0.0,0.0,0.0,0.0,0.0,0.0,0.0,0.0,1.1551,1.1593,0.0,1.0975,0.0,0.0,0.0,0.0,0.9278,1.24,0.0,0.0,1.7916,1.939,1.869,1.8752,1.8712,1.85,1.8425,1.7687,1.6303,1.3942,0.0,0.0,0.0,0.0,0.0,0.0,1.7716,1.9148,2.3156,2.5199,2.521,2.521,2.5199,2.515,2.3758,2.2705,2.211,1.9761,1.8339,1.8103,1.4138,0.0,0.0,0.0,0.0,0.0,0.0,0.0,0.0,0.0,0.0,0.0,0.0,0.0,0.0,0.0,0.0,0.0,0.0,0.0,0.0,1.1973,0.0,0.0,0.0,0.0,0.0,0.0,0.0,0.0,0.0,0.0,2.1348,2.3968,2.6491,2.757,0.0,0.0,0.0,0.0,2.8883,2.8005,2.7132,2.6914,2.7492,2.8506,2.9428,2.9986,0.0,0.0,3.2072,3.207,3.1923,3.0505,3.2584,3.3894,3.302,3.1379,3.0506,3.1033,3.1215,3.1114,3.0842,3.2678,3.4189,1.4992,0.0,0.0,0.0,0.0,1.3236,1.402,1.5262,1.5159,1.4736,1.4049,1.395,0.0,0.0,0.0,0.0,0.0,0.0,1.4331,1.5632,1.702,1.8397,1.9783,1.973,2.0158,2.0938,2.0328,2.0205,2.0482,1.8826,1.6008,1.221,0.0,0.0,0.0,0.0,1.8795,2.0539,2.3903,2.5699,2.5699,2.5689,2.5388,2.4714,2.3991,2.3145,2.2083,2.1426,1.9997,1.7667,1.6151,0.0,0.0,0.0,0.0,0.0,0.0,0.0,0.0,0.0,0.0,0.0,0.0,0.0,0.0,0.0,0.0,0.0,0.0,0.0,1.2187,1.3141,1.3793,0.0,0.0,0.0,0.0,0.0,0.0,0.0,0.0,0.0,2.5904,2.5714,2.5895,0.0,0.0,2.7583,2.71,2.8543,2.9896,3.0624,3.0327,0.0,3.1504,3.0842,3.0385,3.0954,3.2622,3.3858,3.3847,3.5236,3.6027,3.4935,3.6127,3.7029,3.6087,3.4946,3.4371,3.4943,3.4954,3.5019,3.5589,3.6228,3.6436,1.8598,1.6944,1.5705,1.5421,1.5898,1.6,1.6781,1.7931,1.7774,1.7375,1.6818,1.6544,1.535,1.3485,1.2807,0.0,0.0,0.0,1.508,1.6729,1.7333,1.853,2.014,2.019,2.0621,2.1311,2.0706,2.106,2.2252,2.1207,1.8946,1.5587,0.0,0.0,1.532,1.8037,2.0323,2.2179,2.4813,2.6144,2.6154,2.5968,2.5451,2.4528,2.4115,2.3442,2.2514,2.2215,2.108,1.8977,1.7592,1.5964,0.0,0.0,0.0,0.0,0.0,0.0,0.0,0.0,0.0,0.0,0.0,0.9703,0.7731,0.0,0.0,0.0,1.1415,1.2837,1.39,1.4998,0.0,0.0,0.0,0.0,0.0,0.0,0.0,2.2086,2.5174,2.7632,2.8624,2.8165,2.8109,2.9176,2.9277,2.9063,2.8609,0.0,3.137,3.1978,3.189,3.2068,3.3119,3.2689,3.2491,3.3244,3.4161,3.4939,3.5361,3.6542,3.7171,3.6858,3.7189,3.7574,3.6968,3.6366,3.6175,3.6838,3.7071,3.7216,3.7424,3.7731,3.7966,2.1177,2.0902,1.8022,1.722,1.7957,1.8569,1.9134,1.9574,1.9582,1.9598,1.9487,1.8804,1.789,1.6733,1.5056,0.0,1.5061,1.5345,1.6259,1.7682,1.8651,1.9439,2.0078,2.0353,2.0519,2.0519,2.0235,2.0868,2.2269,2.1826,2.0985,1.9912,1.9042,1.875,1.9106,2.0474,2.2149,2.4022,2.5744,2.6625,2.6615,2.6159,2.5471,2.458,2.4095,2.3598,2.3132,2.2242,2.1581,2.1124,1.8585,1.6937,1.6428,0.0,0.0,0.0,0.0,0.0,0.0,0.0,0.0,0.0,0.0,0.0,0.0,0.0,0.0,0.0,1.459,0.0,1.6433,1.7456,0.0,0.0,0.0,2.0133,2.1366,2.3663,2.5404,2.5977,0.0,0.0,3.0105,3.0984,3.2026,3.3237,3.3144,3.2641,3.1599,3.239,3.3018,3.2541,3.2528,3.2754,3.3526,3.4186,3.4989,3.5927,3.6417,3.6329,3.6329,3.6367,3.6405,3.6405,3.6405,3.6439,3.6405,3.6386,3.6577,3.707,3.7658,3.7802,3.7182,3.7909,3.8421,2.1872,2.1826,2.1014,2.0658,2.0633,2.1013,2.1233,2.139,2.1398,2.1044,2.0543,2.0369,1.9705,1.8682,1.7789,1.7629,1.7977,1.7803,1.8167,1.9026,1.961,2.0177,2.0742,2.1096,2.1364,2.1584,2.1557,2.2089,2.3202,2.2544,2.2303,2.2518,2.1758,2.0729,1.9592,2.196,2.3969,2.5433,2.6221,2.6625,2.6604,2.6113,2.5627,2.5034,2.396,2.3132,2.2677,2.1776,2.0928,2.0188,1.8821,1.7715,1.6798,1.3626,0.0,0.0,0.0,0.0,0.0,0.0,0.0,0.0,0.0,1.2228,0.9308,0.0,1.3688,0.0,1.6349,1.8585,1.9642,2.0334,0.0,0.0,2.2195,2.2831,2.5503,2.6757,2.7779,2.8737,3.0478,3.1964,3.283,3.3144,3.3872,3.5349,3.3746,3.2315,3.2089,3.3357,3.4286,3.4211,3.4776,3.5462,3.5537,3.5827,3.6091,3.6367,3.6417,3.6417,3.6417,3.6417,3.6417,3.6417,3.6417,3.6417,3.6417,3.6417,3.6424,3.6565,3.6742,3.7016,3.7417,3.735,3.7036,2.1717,2.1717,2.1831,2.1782,2.1607,2.2049,2.2269,2.2253,2.2213,2.1973,2.1608,2.1449,2.098,2.0299,1.9805,1.9475,1.9243,1.9013,1.9129,1.9418,2.0025,2.0533,2.0826,2.1271,2.1518,2.158,2.1588,2.2156,2.3076,2.2682,2.2852,2.3523,2.328,2.277,2.215,2.3099,2.3957,2.4757,2.5745,2.6361,2.6594,2.6113,2.5388,2.4343,2.3391,2.2377,2.1358,2.0586,1.9872,1.9202,1.8123,1.7269,1.6676,1.4073,1.2498,0.0,0.0,0.0,0.0,0.0,0.0,0.0,0.0,0.0,0.0,0.0,1.4952,1.5217,1.834,2.0532,2.1028,2.2138,2.331,2.4472,2.4528,2.5604,2.8523,2.896,2.9754,3.1764,3.2581,3.3422,3.446,3.4839,3.5316,3.6292,3.5027,3.406,3.4123,3.4889,3.5454,3.5491,3.6015,3.6417,3.6417,3.6417,3.6417,3.6417,3.6417,3.6417,3.6417,3.6417,3.6417,3.6417,3.6417,3.6417,3.6417,3.6417,3.6417,3.6417,3.6417,3.6593,3.7036,3.6769,3.6417,2.1211,2.1211,2.1497,2.1675,2.1668,2.223,2.2521,2.2554,2.2474,2.2443,2.2427,2.2119,2.1764,2.1419,2.0966,2.0431,1.9679,1.9549,1.9431,1.9434,2.0194,2.0597,2.0778,2.1278,2.1441,2.1231,2.1231,2.1697,2.2538,2.2543,2.2827,2.3441,2.3749,2.4248,2.475,2.3773,2.3448,2.3825,2.521,2.6072,2.6511,2.5972,2.484,2.3267,2.2563,2.1466,1.9876,1.9233,1.8745,1.832,1.7119,1.6516,1.6527,1.4444,1.3256,0.0,1.2109,0.0,0.0,0.0,0.0,0.0,0.0,0.0,0.0,1.6422,1.6932,1.7686,2.0544,2.2251,2.2124,2.3757,2.5113,2.5836,2.6857,2.8493,3.0812,3.0909,3.1741,3.4487,3.4539,3.467,3.5503,3.6069,3.6405,3.6405,3.6304,3.6141,3.6329,3.6304,3.6329,3.6417,3.6417,3.6417,3.6417,3.6417,3.6417,3.6417,3.6417,3.6417,3.6417,3.6417,3.6417,3.6417,3.6417,3.6417,3.6417,3.6417,3.6417,3.6417,3.6417,3.6417,3.6452,3.6452,3.6417,2.1211,2.1211,2.1268,2.1325,2.1325,2.1725,2.201,2.2165,2.2153,2.2186,2.2179,2.1899,2.1726,2.1564,2.0694,2.0234,2.0045,1.9561,1.959,2.0055,2.0217,2.0736,2.1451,2.1594,2.1756,2.1925,2.1918,2.203,2.2183,2.2127,2.2274,2.2568,2.2579,2.2623,2.2797,0.0,0.0,0.0,2.6119,2.5916,2.5958,2.4894,2.3919,2.3184,2.1642,0.0,1.9803,1.8609,1.7915,1.7812,1.7223,0.0,0.0,0.0,0.0,0.0,0.0,0.0,0.0,0.0,0.0,0.0,1.8093,1.7844,1.7528,1.9216,2.0786,2.1803,2.3186,2.4713,2.6357,2.6846,2.7796,2.9515,3.0295,3.1412,3.3114,3.3884,3.4739,3.5215,3.5669,3.6006,3.61,3.6355,3.6417,3.6417,3.6417,3.6417,3.6417,3.6417,3.6417,3.6417,3.6417,3.6417,3.6417,3.6417,3.6417,3.6417,3.6417,3.6417,3.6417,3.6417,3.6417,3.6417,3.6417,3.6417,3.6417,3.6417,3.6417,3.6417,3.6417,3.6417,3.6417,3.6417,3.6417,2.0263,2.0321,2.0917,2.1211,0.0,2.1382,2.1546,2.166,2.1938,2.2108,2.2108,2.1945,2.1888,2.1858,2.1021,2.0557,2.0419,1.9926,1.9791,2.0003,2.0429,2.0736,2.0959,2.129,2.1421,2.1414,2.1414,2.1503,2.1645,2.1771,2.2135,2.2728,2.2917,2.3509,2.4533,2.5317,2.5989,2.6579,2.6159,2.6148,2.6542,2.5723,2.4707,2.3587,2.217,0.0,0.0,0.0,0.0,0.0,0.0,0.0,0.0,0.0,0.0,1.7677,1.7512,1.7647,1.8319,1.898,1.9893,2.1047,2.1725,2.1443,1.9927,2.1923,2.3477,2.4032,2.4992,2.5957,2.703,2.7563,2.8213,2.9247,2.9831,3.0736,3.2125,3.2387,3.2961,3.4162,3.4619,3.4969,3.5571,3.6108,3.6358,3.6417,3.6417,3.6417,3.6417,3.6417,3.6417,3.6417,3.6417,3.6417,3.6417,3.6417,3.6417,3.6417,3.6417,3.6417,3.6417,3.6417,3.6417,3.6417,3.6417,3.6417,3.6417,3.6417,3.6417,3.6417,3.6417,3.6417,3.6417,3.6417,3.6417,1.8971,1.9029,2.009,2.0558,2.0558,2.0795,2.0974,2.1268,2.171,0.0,0.0,2.1945,2.1938,2.19,2.1233,2.083,2.0575,2.0189,1.9911,1.9823,2.0511,2.0614,2.0245,2.0737,2.0863,2.064,2.0633,2.0857,2.1229,2.1571,2.2191,2.3074,2.3708,2.5005,2.6958,2.7711,2.7448,2.6299,2.5999,2.6248,2.7019,2.6496,2.5471,2.3908,2.307,2.1828,2.0218,1.8971,1.8267,1.8163,1.7491,1.7471,1.8236,1.8298,1.8868,2.0041,2.0238,2.0674,2.1538,2.2035,2.2687,2.3598,2.4778,2.4643,2.2656,2.425,2.5334,2.5461,2.6144,2.6667,2.6796,2.7458,2.8004,2.8223,2.87,2.9607,3.0938,3.0511,3.112,3.2771,3.3289,3.3549,3.4434,3.5415,3.6121,3.6168,3.6263,3.6417,3.6417,3.6417,3.6417,3.6417,3.6417,3.6417,3.6417,3.6417,3.6417,3.6417,3.6417,3.6417,3.6417,3.6417,3.6417,3.6417,3.6417,3.6417,3.6417,3.6417,3.6417,3.6417,3.6417,3.6417,3.6417,3.6417,3.6417,1.7677,1.7677,1.7852,1.7917,1.8027,1.9087,2.0206,2.1211,2.1268,2.1325,2.1325,2.1318,2.1318,2.1288,2.0634,2.0285,2.0248,1.967,1.9552,1.9808,1.992,2.0082,2.0176,2.0281,2.0303,2.0303,2.0508,2.0795,2.1205,2.1737,2.2235,2.279,2.398,2.5622,2.7396,2.8168,2.8224,2.7624,2.6475,2.5947,2.6051,2.5254,2.454,2.394,2.3391,2.2604,2.1559,2.0948,2.0462,2.0034,1.9889,2.01,2.056,2.0638,2.0897,2.1476,2.189,2.2522,2.3463,2.3856,2.455,2.542,2.6096,2.6061,2.5399,2.563,2.5958,2.633,2.6584,2.69,2.7614,2.7862,2.8415,2.9558,3.0236,3.0976,3.1939,3.2277,3.2498,3.2928,3.3201,3.3201,3.3438,3.4385,3.5126,3.5174,3.5858,3.6417,3.631,3.6417,3.6417,3.6417,3.6417,3.6417,3.6417,3.6417,3.6417,3.6417,3.6417,3.6417,3.6417,3.6417,3.6417,3.6417,3.6417,3.6417,3.6417,3.6417,3.6417,3.6417,3.6417,3.6417,3.6417,3.6417,3.6417,1.6391,1.6509,1.7097,1.739,1.7443,1.8033,1.8971,2.0148,2.0148,2.0565,2.1211,2.1211,2.1211,2.1167,2.0713,2.0343,2.0161,1.9747,1.9573,1.9566,1.9735,1.974,1.9733,1.9894,2.0082,2.0182,2.029,2.0623,2.1158,2.1726,2.2451,2.3378,2.5519,2.7273,2.8468,2.8829,2.8752,2.8286,2.7438,2.6879,2.6677,2.6227,2.5802,2.5402,2.4881,2.4343,2.365,2.2987,2.2522,2.2315,2.2056,2.2242,2.2885,2.2926,2.3287,2.396,2.4219,2.4519,2.4933,2.5388,2.5813,2.6227,2.6729,2.6905,2.6698,2.6677,2.6864,2.7251,2.7303,2.7572,2.8235,2.8524,2.8953,2.9553,3.0088,3.0608,3.0997,3.1302,3.1443,3.1505,3.1982,3.2336,3.2336,3.3784,3.4775,3.4884,3.5715,3.6168,3.5655,3.6048,3.6417,3.6417,3.6417,3.6417,3.6417,3.6417,3.6417,3.6417,3.6417,3.6417,3.6417,3.6417,3.6417,3.6417,3.6417,3.6417,3.6417,3.6417,3.6417,3.6417,3.6417,3.6417,3.6417,3.6417,3.6417,1.5207,1.5278,1.6155,1.6915,1.739,1.739,1.8267,1.9679,1.973,2.0263,2.1146,2.1211,2.1211,2.1174,2.0867,2.0526,2.0325,2.0018,1.9703,1.9485,1.9698,1.9676,1.9523,1.9692,1.9947,2.0272,2.0332,2.062,2.1102,2.2041,2.3321,2.4867,2.7088,2.8605,2.9415,2.9456,2.9228,2.8773,2.8421,2.7966,2.7438,2.7455,2.7237,2.6744,2.6418,2.5978,2.5533,2.4861,2.4436,2.4365,2.3991,2.4126,2.4735,2.4797,2.5161,2.5792,2.593,2.5927,2.6051,2.6521,2.677,2.6781,2.7195,2.7407,2.7417,2.7558,2.7655,2.7893,2.7937,2.8266,2.87,2.9063,2.9342,2.9456,2.9766,3.0057,2.9994,2.9994,2.9994,3.0099,3.0744,3.1227,3.1586,3.2878,3.4178,3.4775,3.5523,3.5667,3.5367,3.5906,3.6358,3.6417,3.6417,3.6417,3.6417,3.6417,3.6417,3.6417,3.6417,3.6417,3.6417,3.6417,3.6417,3.6417,3.6417,3.6417,3.6417,3.6417,3.6417,3.6417,3.6417,3.6417,3.6417,3.6568,3.6531,1.405,1.3878,1.4112,1.5332,1.7267,1.7384,1.8739,2.0802,2.1031,2.1039,2.1211,2.1211,2.1211,2.1167,2.0874,2.0713,2.0584,2.034,2.0018,1.9793,1.9801,1.99,2.0053,1.9874,1.9994,2.0567,2.0817,2.0953,2.1198,2.3067,2.5263,2.7529,2.8096,2.8817,2.9807,2.9911,2.9694,2.9249,2.9197,2.8752,2.7924,2.7862,2.7655,2.7258,2.7195,2.6967,2.6434,2.6407,2.6159,2.5796,2.5637,2.5647,2.5751,2.5796,2.5802,2.5896,2.5906,2.6107,2.6486,2.6988,2.7247,2.7278,2.7603,2.7862,2.7883,2.8245,2.8307,2.8082,2.8328,2.8731,2.9166,2.9301,2.9497,2.9829,2.9942,2.9994,2.9994,2.9994,2.9994,2.9994,3.0141,3.0141,3.0391,3.1483,3.2778,3.4434,3.5066,3.5463,3.5823,3.6203,3.6417,3.6417,3.6417,3.6417,3.6417,3.6417,3.6417,3.6417,3.6417,3.6417,3.6417,3.6417,3.643,3.6556,3.648,3.6493,3.6531,3.6417,3.6493,3.6656,3.6606,3.6468,3.648,3.682,3.6923,1.4066,1.3882,1.3882,1.4816,1.6343,1.7091,1.8441,2.0033,2.009,2.05,2.1153,2.1211,2.1211,2.1196,2.1072,2.0911,2.072,2.0581,2.0355,2.0062,2.0256,2.0364,2.0503,2.0552,2.0765,2.1148,2.1324,2.1423,2.1975,2.4108,2.6275,2.8077,2.888,2.9501,2.9994,2.9994,2.9901,2.9725,2.9704,2.9394,2.8763,2.8204,2.7831,2.7645,2.7455,2.7226,2.705,2.7019,2.6926,2.676,2.6739,2.6739,2.675,2.6739,2.675,2.6739,2.6739,2.6822,2.7009,2.7396,2.7655,2.7655,2.8069,2.8338,2.8349,2.8763,2.8928,2.8804,2.8918,2.9208,2.9622,2.9704,2.9787,2.9963,2.9994,2.9994,2.9994,2.9994,2.9994,2.9994,2.9994,2.9994,3.0245,3.1494,3.2789,3.3944,3.4775,3.5655,3.5619,3.5966,3.6358,3.6417,3.6417,3.6417,3.6417,3.6417,3.6417,3.6417,3.6417,3.6417,3.6468,3.6417,3.6493,3.682,3.6883,3.7046,3.7349,3.7324,3.7337,3.7287,3.7324,3.7324,3.7337,3.7513,3.7513,1.4826,1.4711,1.5003,1.5832,1.6795,1.7675,1.8745,1.9737,1.9795,2.0328,2.1153,2.1211,2.1211,2.1211,2.1211,2.1072,2.0874,2.0916,2.0795,2.0564,2.0808,2.0973,2.1074,2.1139,2.1418,2.1767,2.1837,2.2311,2.3348,2.5298,2.7232,2.8608,2.9554,2.9994,2.9994,2.9994,2.9994,2.9994,2.9994,2.9829,2.9425,2.8711,2.8245,2.809,2.7676,2.7438,2.7438,2.7372,2.732,2.7309,2.732,2.732,2.732,2.732,2.732,2.733,2.7423,2.7496,2.7448,2.7862,2.811,2.8142,2.8545,2.8754,2.8876,2.9228,2.9477,2.9477,2.9487,2.9653,2.9922,2.9994,2.9994,2.9994,2.9994,2.9994,2.9994,2.9994,2.9994,2.9994,2.9994,3.0141,3.0588,3.1739,3.2851,3.3784,3.4981,3.5966,3.5512,3.6042,3.6656,3.6644,3.6757,3.6732,3.6518,3.6606,3.6606,3.6694,3.6769,3.6971,3.687,3.6883,3.6908,3.7374,3.74,3.7462,3.7676,3.7877,3.8027,3.8002,3.8015,3.8002,3.7852,3.8078,3.8228,1.6479,1.6516,1.7676,1.8615,1.9575,1.9674,2.0179,2.101,2.1031,2.1146,2.1203,2.1211,2.1211,2.1211,2.1211,2.1196,2.1174,2.1452,2.1451,2.1167,2.1423,2.1748,2.2009,2.1752,2.1876,2.2395,2.2576,2.3733,2.6073,2.7079,2.8398,2.9806,2.9942,2.9994,2.9994,2.9994,2.9994,2.9994,2.9994,2.9973,2.9891,2.9466,2.9021,2.8628,2.8142,2.7893,2.7852,2.7489,2.734,2.733,2.734,2.733,2.732,2.733,2.7351,2.7372,2.7665,2.7893,2.7945,2.8328,2.8587,2.8638,2.9011,2.927,2.929,2.9642,2.988,2.9953,2.9911,2.9942,2.9984,2.9994,2.9994,2.9994,2.9994,2.9994,2.9994,2.9994,2.9994,3.0099,3.0245,3.0588,3.1381,3.1575,3.2828,3.4091,3.4836,3.532,3.6175,3.6774,3.7098,3.7236,3.7437,3.7563,3.6744,3.6895,3.7123,3.7186,3.7425,3.7801,3.7914,3.7952,3.7927,3.7952,3.7965,3.799,3.8002,3.8065,3.8178,3.8216,3.8266,3.8253,3.8429,3.8605,3.8755,1.8041,1.7972,1.9109,1.9838,2.0154,2.0757,2.1204,2.1445,2.1291,2.1211,2.1211,2.1211,2.1211,2.1211,2.1211,2.1211,2.1211,2.1554,2.1601,2.1609,2.1989,2.2327,2.2423,2.2466,2.2577,2.2911,2.3587,2.4844,2.6336,2.681,2.7578,2.8787,2.9659,2.9994,2.9994,2.9994,2.9994,2.9994,2.9994,2.9994,2.9994,2.9829,2.9663,2.9477,2.8763,2.8359,2.8359,2.8204,2.7986,2.7696,2.7676,2.7552,2.7372,2.7531,2.7686,2.7728,2.811,2.8359,2.8421,2.8804,2.9052,2.9083,2.9487,2.9735,2.9766,2.9891,2.9994,2.9994,2.9994,2.9994,2.9994,2.9994,2.9994,2.9994,2.9994,2.9994,2.9994,2.9994,3.0245,3.0929,3.1545,3.1993,3.183,3.2778,3.392,3.4714,3.566,3.639,3.6816,3.7362,3.7713,3.7726,3.7852,3.7877,3.7563,3.755,3.7713,3.7739,3.7877,3.7952,3.8052,3.814,3.8115,3.8492,3.8555,3.8668,3.873,3.8868,3.8881,3.8919,3.8931,3.8831,3.9094,3.9145,3.927,1.9878,2.0188,2.0876,2.1106,2.1124,2.1723,2.1876,2.1693,2.1459,2.1306,2.1225,2.1211,2.1211,2.1211,2.1211,2.1211,2.1268,2.1546,2.1675,2.1725,2.2237,2.2513,2.2626,2.2796,2.2901,2.3183,2.4223,2.5368,2.6436,2.687,2.7624,2.8827,2.9659,2.9994,2.9994,2.9994,2.9994,2.9994,2.9994,2.9994,2.9994,2.9994,2.9994,2.9911,2.9373,2.898,2.8856,2.869,2.8483,2.8204,2.8142,2.8017,2.7779,2.7986,2.8142,2.8144,2.8576,2.8835,2.8887,2.927,2.9528,2.9539,2.9808,2.9994,2.9994,2.9994,2.9994,2.9994,2.9994,2.9994,2.9994,2.9994,2.9994,2.9994,2.9994,2.9994,2.9994,2.9994,3.0287,3.0888,3.1443,3.175,3.1942,3.3227,3.4272,3.4955,3.632,3.715,3.745,3.7914,3.8278,3.8304,3.8492,3.8617,3.8542,3.8605,3.8417,3.8391,3.8542,3.8479,3.8417,3.8442,3.8567,3.8956,3.9195,3.9346,3.9496,3.9647,3.9697,3.9697,3.9559,3.9358,3.9521,3.9609,3.9597,2.1832,2.2827,2.3098,2.2755,2.2447,2.2496,2.225,2.1811,2.1723,2.154,2.1298,2.124,2.1247,2.1211,2.1211,2.1211,2.1268,2.1497,2.1668,2.1725,2.2059,2.2343,2.257,2.2683,2.2901,2.3239,2.4287,2.5423,2.649,2.7517,2.8615,2.9659,2.9889,2.9994,2.9994,2.9994,2.9994,2.9994,2.9994,2.9994,2.9994,2.9994,2.9994,2.9994,2.9922,2.9694,2.9311,2.8918,2.87,2.8628,2.8618,2.8618,2.8514,2.8587,2.8568,2.868,2.9052,2.928,2.9352,2.9704,2.9922,2.9922,2.9984,2.9994,2.9994,2.9994,2.9994,2.9994,2.9994,2.9994,2.9994,2.9994,2.9994,2.9994,2.9994,2.9994,2.9994,3.0047,2.9994,3.0193,3.0599,3.064,3.1534,3.3108,3.445,3.5635,3.6677,3.7563,3.7977,3.8504,3.8881,3.9007,3.9107,3.9258,3.9471,3.9634,3.9295,3.9069,3.9283,3.9358,3.9245,3.9233,3.917,3.9446,3.9446,3.9572,3.9572,3.9697,3.9697,3.9697,3.9697,3.9697,3.9697,3.9697,3.9736,2.2724,2.3113,2.3106,2.3054,2.2923,2.2718,2.2491,2.2315,2.2125,2.1847,2.1584,2.1547,2.1423,2.124,2.1211,2.1211,2.1211,2.1325,2.1497,2.1725,2.218,2.2456,2.2626,2.2796,2.3344,2.4119,2.462,2.5368,2.649,2.7624,2.8445,2.8827,2.9606,2.9994,2.9994,2.9994,2.9994,2.9994,2.9994,2.9994,2.9994,2.9994,2.9994,2.9994,2.9994,2.9911,2.9787,2.9642,2.9415,2.9114,2.9094,2.8949,2.8731,2.8918,2.9073,2.9135,2.9528,2.9787,2.9787,2.9901,2.9994,2.9994,2.9994,2.9994,2.9994,2.9994,2.9994,2.9994,2.9994,2.9994,2.9994,2.9994,2.9994,2.9994,2.9994,2.9994,3.0099,3.0588,3.0692,3.0443,3.1891,3.2989,3.317,3.4289,3.5856,3.653,3.7568,3.8391,3.863,3.9044,3.9408,3.9484,3.9685,3.9697,3.9697,3.9697,3.9534,3.9358,3.9546,3.9697,3.9697,3.9697,3.9697,3.9697,3.9697,3.9697,3.9697,3.9697,3.9697,3.9697,3.9697,3.9697,3.9749,3.9788,3.9839,2.3106,2.3106,2.3106,2.3106,2.3091,2.2879,2.2732,2.2608,2.2425,2.2169,2.192,2.1876,2.1701,2.1437,2.1393,2.1313,2.1218,2.1211,2.1382,2.1725,2.2067,2.2351,2.257,2.2853,2.3344,2.4064,2.4565,2.5368,2.6535,2.7624,2.8392,2.8943,2.9659,2.9994,2.9994,2.9994,2.9994,2.9994,2.9994,2.9994,2.9994,2.9994,2.9994,2.9994,2.9994,2.9994,2.9994,2.9994,2.986,2.9622,2.9559,2.9415,2.9177,2.9415,2.957,2.9622,2.9808,2.9994,2.9994,2.9984,2.9994,2.9994,2.9994,2.9994,2.9994,2.9994,2.9994,2.9994,2.9994,2.9994,2.9994,2.9994,2.9994,2.9994,2.9994,2.9994,3.0099,3.0588,3.0981,3.1023,3.2453,3.3442,3.4082,3.5322,3.6961,3.7295,3.8204,3.907,3.9145,3.9459,3.9622,3.9697,3.9697,3.9697,3.9697,3.9697,3.9697,3.9647,3.9659,3.9697,3.9697,3.9697,3.9697,3.9697,3.9697,3.9697,3.9697,3.9697,3.9697,3.9697,3.9697,3.98,3.9839,3.9942,4.0032,2.3106,2.3106,2.3106,2.3106,2.3106,2.3084,2.293,2.2696,2.2652,2.2484,2.2257,2.2198,2.203,2.1774,2.1679,2.1503,2.1276,2.1211,2.1382,2.1611,2.1782,2.2067,2.2626,2.2909,2.3175,2.3568,2.4501,2.558,2.6806,2.7956,2.889,2.9774,2.9889,2.9994,2.9994,2.9994,2.9994,2.9994,2.9994,2.9994,2.9994,2.9994,2.9994,2.9994,2.9994,2.9994,2.9994,2.9994,2.9994,2.9984,2.9932,2.9911,2.9953,2.9984,2.9953,2.9932,2.9984,2.9994,2.9994,2.9994,2.9994,2.9994,2.9994,2.9994,2.9994,2.9994,2.9994,2.9994,2.9994,2.9994,2.9994,2.9994,2.9994,2.9994,2.9994,2.9994,2.9994,3.0036,3.0391,3.121,3.202,3.2794,3.3861,3.5485,3.6657,3.7504,3.8387,3.9093,3.9459,3.9647,3.9685,3.9697,3.9697,3.9697,3.9697,3.9697,3.9697,3.9697,3.9697,3.9697,3.9697,3.9697,3.9697,3.9697,3.9697,3.9697,3.9697,3.9697,3.9697,3.9697,3.9749,3.9839,3.9993,4.0083,4.0236,2.3106,2.3106,2.3106,2.3106,2.3106,2.3106,2.3062,2.2981,2.2974,2.2784,2.2564,2.2506,2.2323,2.2045,2.1796,2.1642,2.1503,2.1306,2.1382,2.1668,2.1675,2.2173,2.2732,2.2958,2.3456,2.4334,2.5415,2.6653,2.7785,2.8837,2.9659,2.9994,2.9994,2.9994,2.9994,2.9994,2.9994,2.9994,2.9994,2.9994,2.9994,2.9994,2.9994,2.9994,2.9994,2.9994,2.9994,2.9994,2.9994,2.9994,2.9994,2.9994,2.9994,2.9994,2.9994,2.9994,2.9994,2.9994,2.9994,2.9994,2.9994,2.9994,2.9994,2.9994,2.9994,2.9994,2.9994,2.9994,2.9994,2.9994,2.9994,2.9994,2.9994,2.9994,2.9994,2.9994,2.9994,2.9994,3.0151,3.0496,3.1639,3.289,3.4097,3.5762,3.7309,3.8181,3.8927,3.9459,3.9647,3.9697,3.9697,3.9697,3.9697,3.9697,3.9697,3.9697,3.9697,3.9697,3.9697,3.9697,3.9697,3.9697,3.9697,3.9697,3.9697,3.9697,3.9697,3.9697,3.9697,3.9749,3.98,3.989,4.0083,4.0236,4.0389,2.3106,2.3106,2.3106,2.3106,2.3106,2.3106,2.3106,2.3106,2.3098,2.301,2.2828,2.2667,2.2462,2.2162,2.1847,2.162,2.1474,2.1306,2.139,2.1725,2.1953,2.2343,2.2788,2.2958,2.3624,2.4825,2.5954,2.7077,2.8179,2.9438,2.9942,2.9994,2.9994,2.9994,2.9994,2.9994,2.9994,2.9994,2.9994,2.9994,2.9994,2.9994,2.9994,2.9994,2.9994,2.9994,2.9994,2.9994,2.9994,2.9994,2.9994,2.9994,2.9994,2.9994,2.9994,2.9994,2.9994,2.9994,2.9994,2.9994,2.9994,2.9994,2.9994,2.9994,2.9994,2.9994,2.9994,2.9994,2.9994,2.9994,2.9994,2.9994,2.9994,2.9994,2.9994,2.9994,3.0005,3.0191,3.0517,3.1179,3.2512,3.3784,3.4578,3.6665,3.7892,3.8566,3.9098,3.9494,3.9697,3.9697,3.9697,3.9697,3.9697,3.9697,3.9697,3.9697,3.9697,3.9697,3.9697,3.9697,3.9697,3.9697,3.9697,3.9697,3.9697,3.9697,3.9697,3.9749,3.9788,3.9839,3.9839,4.0044,4.0287,4.044,4.0593,2.3106,2.3106,2.3106,2.3106,2.3106,2.3106,2.3106,2.3106,2.3106,2.3098,2.3025,2.2798,2.255,2.2213,2.195,2.1591,2.1298,2.1254,2.1454,2.1782,2.218,2.2513,2.2626,2.3239,2.4064,2.5148,2.6173,2.7356,2.8562,2.9606,2.9942,2.9994,2.9994,2.9994,2.9994,2.9994,2.9994,2.9994,2.9994,2.9994,2.9994,2.9994,2.9994,2.9994,2.9994,2.9994,2.9994,2.9994,2.9994,2.9994,2.9994,2.9994,2.9994,2.9994,2.9994,2.9994,2.9994,2.9994,2.9994,2.9994,2.9994,2.9994,2.9994,2.9994,2.9994,2.9994,2.9994,2.9994,2.9994,2.9994,2.9994,2.9994,2.9994,3.0015,3.0025,3.0129,3.0286,3.0545,3.1105,3.2111,3.4022,3.5059,3.6086,3.75,3.9117,3.8867,3.9312,3.9556,3.9697,3.9697,3.9697,3.9697,3.9697,3.9697,3.9697,3.9697,3.9697,3.9697,3.9697,3.9697,3.9697,3.9697,3.9697,3.9697,3.9697,3.9697,3.9697,3.9736,3.9878,3.9929,3.9981,4.0287,4.0643,4.0694,4.0795,2.3106,2.3106,2.3106,2.3106,2.3106,2.3106,2.3106,2.3106,2.3106,2.3106,2.3084,2.3018,2.2798,2.2498,2.2184,2.1898,2.1576,2.1422,2.1382,2.1725,2.2059,2.24,2.2845,2.3784,2.4991,2.6118,2.7248,2.8445,2.9438,2.9774,2.9994,2.9994,2.9994,2.9994,2.9994,2.9994,2.9994,2.9994,2.9994,2.9994,2.9994,2.9994,2.9994,2.9994,2.9994,2.9994,2.9994,2.9994,2.9994,2.9994,2.9994,2.9994,2.9994,2.9994,2.9994,2.9994,2.9994,2.9994,2.9994,2.9994,2.9994,2.9994,2.9994,2.9994,2.9994,2.9994,2.9994,2.9994,2.9994,2.9994,2.9994,2.9994,3.0025,3.0087,3.041,3.0926,3.1528,3.1158,3.1153,3.1931,3.328,3.4486,3.542,3.7139,3.8428,3.9025,3.9426,3.9645,3.9697,3.9697,3.9697,3.9697,3.9697,3.9697,3.9697,3.9697,3.9697,3.9697,3.9697,3.9697,3.9697,3.9749,3.9788,3.9749,3.9697,3.9749,3.9852,3.9942,4.0083,4.0083,4.0134,4.0491,4.0744,4.0846,4.1139,2.3106,2.3106,2.3106,2.3106,2.3106,2.3106,2.3106,2.3106,2.3106,2.3106,2.3069,2.2959,2.2784,2.2608,2.2323,2.2067,2.1943,2.1758,2.1637,2.1827,2.2173,2.2732,2.3608,2.4816,2.6009,2.6644,2.7624,2.8827,2.9722,2.9994,2.9994,2.9994,2.9994,2.9994,2.9994,2.9994,2.9994,2.9994,2.9994,2.9994,2.9994,2.9994,2.9994,2.9994,2.9994,2.9994,2.9994,2.9994,2.9994,2.9994,2.9994,2.9994,2.9994,2.9994,2.9994,2.9994,2.9994,2.9994,2.9994,2.9994,2.9994,2.9994,2.9994,2.9994,2.9994,2.9994,2.9994,2.9994,2.9994,2.9994,2.9994,2.9994,3.0056,3.0421,3.1043,3.171,3.2019,3.168,3.1644,3.2561,3.4065,3.4667,3.5663,3.7275,3.8036,3.8816,3.9478,3.9697,3.9697,3.9697,3.9697,3.9697,3.9697,3.9697,3.9697,3.9697,3.9697,3.9697,3.9697,3.9697,3.9697,3.9788,3.989,3.989,3.989,4.0108,4.0211,4.0249,4.0338,4.0491,4.0593,4.0744,4.0949,4.132,4.1603,2.3106,2.3106,2.3106,2.3106,2.3106,2.3106,2.3106,2.3106,2.3106,2.3106,2.3069,2.2798,2.274,2.2579,2.2389,2.225,2.2148,2.2119,2.1982,2.199,2.2706,2.3456,2.4484,2.5836,2.6816,2.6924,2.8062,2.9164,2.9774,2.9994,2.9994,2.9994,2.9994,2.9994,2.9994,2.9994,2.9994,2.9994,2.9994,2.9994,2.9994,2.9994,2.9994,2.9994,2.9994,2.9994,2.9994,2.9994,2.9994,2.9994,2.9994,2.9994,2.9994,2.9994,2.9994,2.9994,2.9994,2.9994,2.9994,2.9994,2.9994,2.9994,2.9994,2.9994,2.9994,2.9994,2.9994,2.9994,2.9994,2.9994,3.0005,3.0129,3.0315,3.0797,3.1773,3.2491,3.2613,3.2566,3.3242,3.378,3.5115,3.6067,3.6633,3.7701,3.8161,3.8607,3.9258,3.9697,3.9697,3.9697,3.9697,3.9697,3.9697,3.9697,3.9697,3.9839,3.9839,3.9839,3.9852,3.9852,3.9903,4.0134,4.0287,4.0134,4.0198,4.0351,4.0453,4.0504,4.0643,4.0833,4.0972,4.1024,4.1383,4.1809,4.2121,2.3106,2.3106,2.3106,2.3106,2.3106,2.3106,2.3106,2.3106,2.3106,2.3106,2.3098,2.3047,2.2849,2.2681,2.2601,2.2425,2.2258,2.2282,2.2293,2.2605,2.3448,2.4371,2.5223,2.6928,2.7881,2.8232,2.9036,2.9773,2.9889,2.9994,2.9994,2.9994,2.9994,2.9994,2.9994,2.9994,2.9994,2.9994,2.9994,2.9994,2.9994,2.9994,2.9994,2.9994,2.9994,2.9994,2.9994,2.9994,2.9994,2.9994,2.9994,2.9994,2.9994,2.9994,2.9994,2.9994,2.9994,2.9994,2.9994,2.9994,2.9994,2.9994,2.9994,2.9994,2.9994,2.9994,2.9994,3.0005,3.0015,3.0025,3.0015,3.0356,3.0638,3.1165,3.2459,3.3864,3.4562,3.5113,3.5077,3.5022,3.6356,3.7459,3.7725,3.8108,3.8764,3.9102,3.9426,3.9697,3.9697,3.9697,3.9697,3.9697,3.9697,3.9697,3.9697,3.9942,4.0032,4.0083,4.0147,4.0249,4.0351,4.058,4.0681,4.0478,4.044,4.0542,4.0643,4.0744,4.0744,4.0909,4.1075,4.1304,4.1693,4.2096,4.2722,2.3106,2.3106,2.3106,2.3106,2.3106,2.3106,2.3106,2.3106,2.3106,2.3106,2.3106,2.3098,2.3032,2.2901,2.2871,2.2703,2.2539,2.2812,2.2862,2.3216,2.4351,2.5618,2.6332,2.8155,2.9011,2.9524,3.0071,3.0191,3.0015,2.9994,2.9994,2.9994,2.9994,2.9994,2.9994,2.9994,2.9994,2.9994,2.9994,2.9994,2.9994,2.9994,2.9994,2.9994,2.9994,2.9994,2.9994,2.9994,2.9994,2.9994,2.9994,2.9994,2.9994,2.9994,2.9994,2.9994,2.9994,2.9994,2.9994,2.9994,2.9994,2.9994,2.9994,2.9994,2.9994,2.9994,3.0005,3.0056,3.0274,3.0346,3.0387,3.0781,3.1427,3.2394,3.3702,3.4877,3.5891,3.7133,3.6972,3.6371,3.7126,3.7832,3.8003,3.8554,3.9426,3.9697,3.9697,3.9697,3.9697,3.9697,3.9697,3.9697,3.9749,3.98,3.9839,4.0032,4.0185,4.0287,4.0466,4.058,4.0733,4.0898,4.0884,4.0681,4.0681,4.1002,4.0896,4.106,4.101,4.0935,4.1201,4.1522,4.1928,4.2397,4.3075,2.3106,2.3106,2.3106,2.3106,2.3106,2.3106,2.3106,2.3106,2.3106,2.3106,2.3106,2.3106,2.3106,2.3098,2.3069,2.2952,2.2772,2.3331,2.3534,2.4107,2.5501,2.6923,2.8145,2.925,3.0158,3.0348,3.0562,3.0439,3.0077,2.9994,2.9994,2.9994,2.9994,2.9994,2.9994,2.9994,2.9994,2.9994,2.9994,2.9994,2.9994,2.9994,2.9994,2.9994,2.9994,2.9994,2.9994,2.9994,2.9994,2.9994,2.9994,2.9994,2.9994,2.9994,2.9994,2.9994,2.9994,2.9994,2.9994,2.9994,2.9994,2.9994,2.9994,2.9994,2.9994,3.0015,3.0046,3.018,3.0408,3.0729,3.0843,3.1236,3.2192,3.3486,3.4681,3.5982,3.6914,3.7861,3.8675,3.8384,3.8319,3.8384,3.8607,3.8816,3.9594,3.9697,3.9697,3.9697,3.9697,3.9697,3.9697,3.9736,3.9788,3.9839,3.9993,4.0236,4.0338,4.0402,4.0695,4.0936,4.1039,4.1168,4.1181,4.1361,4.1606,4.18,4.1613,4.1376,4.1341,4.1343,4.143,4.1873,4.2592,4.301,4.348,2.3106,2.3106,2.3106,2.3106,2.3106,2.3106,2.3106,2.3106,2.3106,2.3106,2.3106,2.3106,2.3106,2.3106,2.3106,2.3076,2.316,2.3642,2.4209,2.4922,2.6746,2.818,2.93,3.0625,3.0864,3.0926,3.0781,3.0419,3.0139,3.0046,2.9994,2.9994,2.9994,2.9994,2.9994,2.9994,2.9994,2.9994,2.9994,2.9994,2.9994,2.9994,2.9994,2.9994,2.9994,2.9994,2.9994,2.9994,2.9994,2.9994,2.9994,2.9994,2.9994,2.9994,2.9994,2.9994,2.9994,2.9994,2.9994,2.9994,2.9994,2.9994,2.9994,2.9994,3.0015,3.0077,3.0222,3.0594,3.0719,3.0936,3.1309,3.1712,3.2596,3.3824,3.517,3.641,3.7566,3.8437,3.9258,3.9362,3.9037,3.9154,3.9426,3.953,3.9697,3.9697,3.9697,3.9697,3.9697,3.9697,3.9697,3.9736,3.989,3.9993,4.0185,4.0389,4.0605,4.0618,4.0976,4.1357,4.1526,4.1748,4.2176,4.2358,4.2552,4.2383,4.1977,4.1755,4.169,4.1821,4.2017,4.2696,4.3533,4.3794,4.3846,2.3106,2.3106,2.3106,2.3106,2.3106,2.3106,2.3106,2.3106,2.3106,2.3106,2.3106,2.3106,2.3106,2.3106,2.3106,2.3106,2.338,2.4277,2.4711,2.5649,2.7664,2.9297,2.9642,3.1061,3.1899,3.1443,3.1164,3.0853,3.046,3.0118,2.9994,2.9994,2.9994,2.9994,2.9994,2.9994,2.9994,2.9994,2.9994,2.9994,2.9994,2.9994,2.9994,2.9994,2.9994,2.9994,2.9994,2.9994,2.9994,2.9994,2.9994,2.9994,2.9994,2.9994,2.9994,2.9994,2.9994,2.9994,2.9994,2.9994,2.9994,2.9994,2.9994,2.9994,3.0046,3.0243,3.0419,3.0657,3.1184,3.1526,3.1764,3.2168,3.3053,3.4129,3.5395,3.6537,3.7779,3.8933,3.9645,3.9697,3.9697,3.9697,3.9697,3.9697,3.9697,3.9697,3.9697,3.9697,3.9697,3.9697,3.9697,3.9697,3.989,4.0147,4.0338,4.0593,4.0884,4.1012,4.1554,4.1861,4.2057,4.2369,4.2801,4.2944,4.2879,4.2631,4.2291,4.2278,4.2369,4.25,4.2657,4.3258,4.382,4.3979,4.4309,2.3106,2.3106,2.3106,2.3106,2.3106,2.3106,2.3106,2.3106,2.3106,2.3106,2.3106,2.3106,2.3106,2.3106,2.3106,2.3106,2.3238,2.4818,2.5301,2.6443,2.8188,2.9876,3.0655,3.1974,3.2426,3.1988,3.1681,3.1205,3.0698,3.0367,3.016,3.0005,2.9994,2.9994,2.9994,2.9994,2.9994,2.9994,2.9994,2.9994,2.9994,2.9994,2.9994,2.9994,2.9994,2.9994,2.9994,2.9994,2.9994,2.9994,2.9994,2.9994,2.9994,2.9994,2.9994,2.9994,2.9994,2.9994,2.9994,2.9994,2.9994,2.9994,3.0025,3.0056,3.0253,3.0522,3.0905,3.1091,3.1547,3.1905,3.2184,3.254,3.3261,3.4281,3.553,3.663,3.7779,3.8933,3.9697,3.9697,3.9697,3.9697,3.9697,3.9697,3.9697,3.9697,3.9697,3.9697,3.9697,3.9749,3.9788,3.9839,4.0198,4.0402,4.0466,4.0733,4.1062,4.146,4.1953,4.2473,4.2761,4.2984,4.335,4.3376,4.3337,4.3441,4.3454,4.3245,4.3062,4.3154,4.3284,4.3559,4.3939,4.4176,4.5205,2.3106,2.3106,2.3106,2.3106,2.3106,2.3106,2.3106,2.3106,2.3106,2.3106,2.3106,2.3106,2.3106,2.3106,2.3106,2.3106,2.3168,2.3914,2.5354,2.7039,2.8715,3.0285,3.1353,3.2129,3.2473,3.2112,3.1874,3.1454,3.0915,3.076,3.0398,3.0056,3.0067,3.0025,2.9994,2.9994,2.9994,2.9994,2.9994,2.9994,2.9994,2.9994,2.9994,2.9994,2.9994,2.9994,2.9994,2.9994,2.9994,2.9994,2.9994,2.9994,2.9994,2.9994,2.9994,2.9994,2.9994,3.0025,3.0087,3.0036,3.0015,3.0005,3.0077,3.0263,3.0605,3.0667,3.1071,3.1712,3.1957,3.2204,3.2452,3.282,3.3275,3.4368,3.5498,3.6642,3.7779,3.8985,3.9594,3.9697,3.9697,3.9697,3.9697,3.9697,3.9697,3.9697,3.9697,3.9697,3.9749,3.98,3.9942,4.0083,4.0491,4.0656,4.0606,4.095,4.1474,4.1941,4.2396,4.2984,4.352,4.3742,4.3925,4.4108,4.4147,4.4382,4.4394,4.3951,4.3663,4.3755,4.3952,4.4175,4.4851,4.5432,4.6812,2.3106,2.3106,2.3106,2.3106,2.3106,2.3106,2.3106,2.3106,2.3106,2.3106,2.3098,2.3106,2.3106,2.3106,2.3106,2.3106,2.3293,2.451,2.5713,2.7091,2.8715,3.0334,3.1526,3.2295,3.2566,3.2359,3.2132,3.1905,3.1588,3.1247,3.1071,3.077,3.0325,3.0046,2.9994,3.0087,3.0056,3.0046,3.0025,3.0005,2.9994,2.9994,2.9994,2.9994,2.9994,2.9994,2.9994,2.9994,2.9994,2.9994,2.9994,2.9994,2.9994,2.9994,3.0015,3.0036,3.0046,3.017,3.0325,3.0222,3.0118,3.0387,3.045,3.0615,3.1071,3.1319,3.1598,3.1957,3.2359,3.2654,3.2701,3.2784,3.3172,3.4368,3.5553,3.6738,3.7832,3.8985,3.9594,3.9697,3.9697,3.9697,3.9697,3.9697,3.9697,3.9697,3.9697,3.9697,3.9749,3.9928,4.0095,4.0364,4.0798,4.1246,4.1273,4.1606,4.2005,4.2436,4.2866,4.3402,4.3978,4.4278,4.4474,4.4642,4.4681,4.4615,4.4472,4.4263,4.4212,4.4238,4.4491,4.4783,4.5595,4.6608,4.7993,2.3106,2.3106,2.3106,2.3106,2.3106,2.3106,2.3106,2.3106,2.3106,2.304,2.2967,2.2967,2.2967,2.2981,2.3076,2.3106,2.3534,2.4687,2.5774,2.7331,2.9002,3.0568,3.1478,3.2133,3.2649,3.2587,3.2401,3.2142,3.1874,3.1702,3.1464,3.1153,3.0781,3.0532,3.046,3.0408,3.0398,3.0408,3.0408,3.0408,3.0439,3.045,3.046,3.0481,3.0501,3.0377,3.0315,3.0253,3.0139,3.0067,2.9994,2.9994,2.9994,3.0015,3.0067,3.0149,3.0253,3.0419,3.0657,3.0688,3.0563,3.0843,3.0884,3.1133,3.1516,3.1878,3.2058,3.2923,3.3163,3.3332,3.3491,3.4089,3.4302,3.5443,3.6317,3.7394,3.8003,3.8933,3.9374,3.9697,3.9697,3.9697,3.9697,3.971,3.9786,3.9722,3.9697,3.9697,3.9749,3.9954,4.0351,4.0645,4.1067,4.1531,4.2022,4.2293,4.2618,4.3062,4.3467,4.3768,4.4212,4.4552,4.4668,4.4681,4.4681,4.4681,4.4589,4.4446,4.4511,4.4615,4.4845,4.5074,4.6463,4.7471,4.8546,2.3076,2.3106,2.3084,2.3076,2.3047,2.3106,2.3106,2.3098,2.3069,2.2908,2.2659,2.2652,2.2674,2.2747,2.2974,2.3223,2.372,2.4887,2.6338,2.8051,2.9434,3.1121,3.2076,3.2612,3.2669,3.2669,3.2556,3.2349,3.206,3.2019,3.1836,3.1629,3.1443,3.1267,3.1384,3.1319,3.1319,3.1309,3.1247,3.1205,3.1174,3.1143,3.1122,3.1112,3.1112,3.0926,3.075,3.0677,3.0543,3.0336,3.0263,3.0253,3.0232,3.0212,3.0346,3.0636,3.0667,3.0905,3.1288,3.1319,3.1371,3.135,3.136,3.1578,3.1909,3.2162,3.2511,3.3289,3.4,3.4736,3.5388,3.5925,3.587,3.6306,3.718,3.7885,3.8489,3.8933,3.9478,3.9697,3.9697,3.9697,3.971,3.9774,3.9812,3.9812,3.971,3.9774,3.9849,4.0169,4.058,4.1106,4.1544,4.2126,4.2671,4.2853,4.318,4.3637,4.3964,4.4212,4.4395,4.463,4.4681,4.4681,4.4681,4.4681,4.4681,4.4655,4.4884,4.5046,4.4992,4.5422,4.6905,4.8282,4.9254,2.2498,2.2491,2.2498,2.2491,2.2557,2.2937,2.3106,2.3069,2.2879,2.2615,2.2425,2.252,2.2623,2.2725,2.3054,2.3596,2.4456,2.4764,2.639,2.9089,2.9924,3.1121,3.219,3.2669,3.2669,3.2669,3.2649,3.2628,3.252,3.239,3.238,3.2292,3.2106,3.1919,3.1536,3.1381,3.1371,3.1371,3.136,3.1371,3.1391,3.1412,3.1433,3.1443,3.1454,3.135,3.1174,3.1143,3.1008,3.0833,3.0791,3.0812,3.0822,3.0822,3.0936,3.1122,3.1153,3.135,3.1785,3.2002,3.2095,3.194,3.1847,3.2033,3.2359,3.2432,3.2886,3.3438,3.4302,3.4792,3.4902,3.5815,3.6197,3.7126,3.7885,3.8437,3.8985,3.931,3.9697,3.9697,3.9697,3.9735,3.976,4.0102,4.019,4.0268,4.0268,4.0278,4.0341,4.0586,4.0974,4.167,4.2214,4.2827,4.3297,4.3506,4.3742,4.4147,4.4369,4.4526,4.4683,4.4681,4.4681,4.4681,4.4681,4.4681,4.4681,4.4789,4.5248,4.5449,4.5595,4.615,4.7573,4.8745,4.9708,2.2184,2.2184,2.2184,2.2184,2.2242,2.2623,2.2784,2.2725,2.2447,2.2184,2.2111,2.233,2.2462,2.2708,2.3441,2.4085,2.5186,2.6216,2.7116,2.9884,3.0421,3.1488,3.2315,3.2669,3.2669,3.2669,3.2669,3.2649,3.2628,3.2659,3.2618,3.2597,3.2659,3.2395,3.2023,3.193,3.1919,3.195,3.1971,3.195,3.193,3.1909,3.1899,3.1899,3.1878,3.1795,3.1671,3.1588,3.1536,3.1464,3.1402,3.1402,3.1402,3.1402,3.1464,3.1536,3.1805,3.1981,3.2302,3.2468,3.2457,3.2313,3.2235,3.237,3.2607,3.2607,3.3016,3.3593,3.4357,3.5124,3.5663,3.6522,3.7447,3.8384,3.8594,3.9141,3.9258,3.9645,3.9697,3.9697,3.9747,3.9785,4.0038,4.0341,4.0686,4.0776,4.0801,4.0915,4.1016,4.1277,4.1666,4.2327,4.2901,4.3412,4.3832,4.4121,4.4369,4.4629,4.4735,4.4722,4.4735,4.4681,4.4681,4.4681,4.4681,4.4681,4.4681,4.4884,4.5395,4.6058,4.6621,4.7383,4.8382,4.9205,5.0076,2.2147,2.2162,2.2147,2.2125,2.214,2.214,2.2162,2.2154,2.1854,2.1723,2.1708,2.2142,2.2453,2.2759,2.4229,2.5213,2.5716,2.7648,2.9002,3.0109,3.1073,3.2028,3.244,3.2669,3.2669,3.2669,3.2669,3.2669,3.2669,3.2669,3.2669,3.2669,3.2669,3.2545,3.254,3.2499,3.2499,3.2457,3.2457,3.2447,3.2426,3.2473,3.2489,3.2411,3.2468,3.2323,3.2178,3.1998,3.1857,3.1692,3.1526,3.1495,3.1464,3.1443,3.1712,3.2033,3.2447,3.3004,3.2907,3.3094,3.3254,3.3353,3.3134,3.2934,3.2659,3.2727,3.3001,3.3931,3.4902,3.6208,3.7287,3.8267,3.9206,3.9426,3.9478,3.9594,3.9645,3.9697,3.9697,3.9735,3.981,3.9986,4.0568,4.0898,4.1466,4.1868,4.2089,4.2349,4.24,4.2301,4.2651,4.3143,4.3669,4.404,4.4369,4.4487,4.4565,4.4681,4.4681,4.4735,4.4681,4.4735,4.4681,4.4681,4.4681,4.4789,4.514,4.5342,4.5609,4.636,4.7638,4.8145,4.9007,4.9562,5.0331,2.1489,2.1489,2.1489,2.1489,2.1489,2.1496,2.1613,2.1796,2.1723,2.1584,2.1372,2.2604,2.3065,2.3313,2.4825,2.616,2.7226,2.831,2.9666,3.0771,3.1526,3.2133,3.2498,3.2669,3.2669,3.2669,3.2669,3.2669,3.2669,3.2669,3.2669,3.2669,3.2669,3.2669,3.2669,3.2669,3.2669,3.2669,3.2669,3.2669,3.2669,3.2669,3.2669,3.2669,3.2669,3.2525,3.2463,3.2421,3.2333,3.2323,3.2313,3.2323,3.2333,3.2344,3.2468,3.2715,3.3856,3.4947,3.4312,3.4736,3.5057,3.4891,3.5002,3.4032,3.3378,3.2944,3.3218,3.4256,3.5498,3.675,3.7619,3.8542,3.9426,3.9697,3.9697,3.9697,3.9722,3.981,3.9823,4.0049,4.0111,4.0671,4.119,4.1808,4.2381,4.2918,4.3325,4.3508,4.3616,4.3395,4.3449,4.389,4.4167,4.4407,4.4539,4.4657,4.4696,4.4681,4.4681,4.4735,4.4735,4.4735,4.4735,4.4735,4.483,4.5301,4.5914,4.6058,4.6058,4.774,4.9007,4.9268,4.9562,5.0124,5.0522,2.1211,2.1211,2.1211,2.1211,2.1261,2.171,2.2059,2.2103,2.1728,2.1602,2.2033,2.3027,2.3729,2.4417,2.5786,2.7004,2.7855,2.8836,3.0016,3.0805,3.1639,3.2065,3.243,3.2659,3.2669,3.2669,3.2669,3.2669,3.2669,3.2669,3.2669,3.2669,3.2669,3.2669,3.2669,3.2669,3.2669,3.2669,3.2669,3.2669,3.2669,3.2669,3.2669,3.2669,3.2669,3.2669,3.2669,3.2669,3.2669,3.2669,3.2669,3.2669,3.2649,3.2649,3.3151,3.347,3.4346,3.5168,3.5168,3.5663,3.6088,3.624,3.6294,3.5487,3.4847,3.4458,3.4469,3.4847,3.6034,3.7115,3.7713,3.8372,3.9089,3.9697,3.9697,3.9697,3.9798,3.9923,4.0136,4.0388,4.082,4.1382,4.2014,4.2649,4.3198,4.3607,4.3898,4.4097,4.4165,4.4155,4.4129,4.4351,4.4509,4.4683,4.4681,4.4681,4.4681,4.4681,4.4681,4.4735,4.4776,4.5181,4.5555,4.5342,4.4979,4.5648,4.6426,4.6426,4.6725,4.851,4.982,4.9917,5.011,5.0618,5.0964,2.1268,2.1432,2.1432,2.1489,2.1382,2.2425,2.2934,2.2869,2.174,2.1873,2.2876,2.3593,2.4374,2.5111,2.6623,2.7526,2.8286,2.9145,2.9904,3.0707,3.1361,3.1856,3.224,3.2534,3.2669,3.2669,3.2669,3.2669,3.2669,3.2669,3.2669,3.2669,3.2669,3.2669,3.2669,3.2669,3.2669,3.2669,3.2669,3.2669,3.2669,3.2669,3.2669,3.2669,3.2669,3.2669,3.2669,3.2669,3.2669,3.2669,3.2669,3.2669,3.2669,3.3264,3.3875,3.4536,3.5289,3.5925,3.6414,3.6792,3.6846,3.6792,3.6511,3.6684,3.6576,3.5651,3.5443,3.5608,3.663,3.734,3.7938,3.8752,3.9478,3.9697,3.9697,3.9823,4.0023,4.03,4.0752,4.1056,4.1506,4.2071,4.2681,4.3361,4.3671,4.4144,4.4357,4.4505,4.4546,4.4602,4.4615,4.4613,4.4668,4.4681,4.4681,4.4681,4.4681,4.4681,4.4789,4.5046,4.5342,4.59,4.6517,4.636,4.615,4.6308,4.6725,4.7139,4.7892,4.9219,5.022,5.0364,5.0665,5.1058,5.1167,2.1767,2.2644,2.3519,2.2918,2.1489,2.2482,2.3038,2.2862,2.171,2.2036,2.3159,2.4791,2.5407,2.5459,2.7223,2.8143,2.8641,2.9085,2.9721,3.0392,3.1083,3.1558,3.2066,3.2385,3.2587,3.2669,3.2669,3.2669,3.2669,3.2669,3.2669,3.2669,3.2669,3.2669,3.2669,3.2669,3.2669,3.2669,3.2669,3.2669,3.2669,3.2669,3.2669,3.2669,3.2669,3.2669,3.2669,3.2669,3.2669,3.2669,3.2669,3.2669,3.2669,3.4357,3.4847,3.5013,3.6708,3.7406,3.7725,3.8056,3.8384,3.8594,3.8712,3.8816,3.8372,3.7007,3.6468,3.6738,3.7126,3.7672,3.8214,3.9089,3.9697,3.9697,3.9772,4.0023,4.0275,4.0827,4.1367,4.1776,4.2191,4.2792,4.3406,4.3833,4.417,4.4385,4.4533,4.4681,4.4681,4.4655,4.4642,4.4681,4.4681,4.4681,4.4681,4.4681,4.4681,4.4992,4.5154,4.5502,4.5914,4.6621,4.7266,4.7471,4.7522,4.7522,4.7827,4.866,4.9513,5.0331,5.0632,5.0775,5.087,5.1167,5.1167,2.2044,2.2312,2.2862,2.2418,2.1653,2.303,2.3743,2.3799,2.4142,2.442,2.4522,2.5351,2.5845,2.6063,2.7789,2.8369,2.8736,2.904,2.9421,3.0048,3.0691,3.1106,3.163,3.2153,3.2256,3.238,3.2597,3.2669,3.2669,3.2669,3.2669,3.2669,3.2669,3.2669,3.2669,3.2669,3.2669,3.2669,3.2669,3.2669,3.2669,3.2669,3.2669,3.2669,3.2669,3.2669,3.2669,3.2669,3.2669,3.2944,3.3218,3.3547,3.3931,3.5113,3.5979,3.6534,3.7566,3.8868,3.8921,3.9206,3.9697,3.9697,3.9697,3.9362,3.9362,3.8214,3.8161,3.8384,3.8425,3.8921,3.8921,3.9581,3.9697,3.9697,4.0086,4.0463,4.0965,4.1555,4.202,4.2439,4.2878,4.3325,4.3826,4.4142,4.4479,4.4533,4.4681,4.4681,4.4681,4.4681,4.4681,4.4681,4.4681,4.4681,4.4681,4.4681,4.4681,4.5046,4.5462,4.6164,4.6764,4.742,4.7979,4.8382,4.8582,4.8432,4.8894,4.9611,5.0172,5.0728,5.0979,5.112,5.1229,5.1229,5.1274,2.2093,2.1268,2.1759,2.1702,2.1824,2.3902,2.4948,2.5223,2.6844,2.7295,2.6527,2.5507,2.6391,2.7457,2.8291,2.8354,2.8496,2.8903,2.9263,2.9728,3.0397,3.0768,3.1179,3.1618,3.2039,3.2308,3.2582,3.2628,3.2669,3.2669,3.2669,3.2669,3.2669,3.2669,3.2669,3.2669,3.2669,3.2669,3.2669,3.2669,3.2669,3.2669,3.2669,3.2669,3.2669,3.2669,3.2669,3.2669,3.2669,3.3115,3.3717,3.4312,3.5013,3.5925,3.6738,3.7512,3.8068,3.8985,3.9362,3.9581,3.9697,3.9697,3.9697,3.9697,3.9697,3.9645,3.953,3.953,3.9581,3.9633,3.9633,3.9645,3.9697,3.9986,4.0488,4.0978,4.1593,4.2225,4.2615,4.3004,4.3406,4.3819,4.4136,4.4463,4.4572,4.4681,4.4681,4.4681,4.4681,4.4681,4.4681,4.4681,4.4681,4.4681,4.4681,4.4735,4.4735,4.514,4.5648,4.666,4.7712,4.8681,4.9337,4.9499,4.9596,4.9484,4.9547,5.0061,5.0618,5.1073,5.112,5.1229,5.1229,5.1244,5.1334,2.1432,2.1432,2.4261,2.442,2.3199,2.5131,2.6191,2.6018,2.5617,2.6227,2.7295,2.6799,2.6581,2.6916,2.796,2.8344,2.8597,2.8906,2.9219,2.9652,3.0166,3.0471,3.0867,3.1447,3.2122,3.2432,3.2597,3.2638,3.2669,3.2669,3.2669,3.2669,3.2669,3.2669,3.2669,3.2669,3.2669,3.2669,3.2669,3.2669,3.2669,3.2669,3.2669,3.2669,3.2669,3.2669,3.2669,3.2669,3.2669,3.3058,3.3987,3.5013,3.5991,3.69,3.7725,3.8161,3.8712,3.9206,3.9645,3.9697,3.9697,3.9697,3.9697,3.9697,3.9697,3.9697,3.9645,3.9645,3.9697,3.9697,3.9697,3.9697,3.9747,4.0488,4.1091,4.1568,4.2175,4.2595,4.296,4.3295,4.364,4.3929,4.4203,4.4463,4.4626,4.4681,4.4681,4.4681,4.4681,4.4681,4.4681,4.4681,4.4681,4.4681,4.4681,4.4735,4.4776,4.5235,4.6137,4.7661,4.9028,5.0302,5.076,5.0508,5.0603,5.065,5.076,5.057,5.0822,5.1167,5.1182,5.1229,5.1229,5.1289,5.1394]}]]